<?xml version="1.0" encoding="UTF-8" standalone="no" ?>
<gpx xmlns="http://www.topografix.com/GPX/1/1" xmlns:xsi="http://www.w3.org/2001/XMLSchema-instance" xsi:schemaLocation="http://www.topografix.com/GPX/1/1 http://www.topografix.com/GPX/1/1/gpx.xsd" version="1.1" creator="VisuGPX - https://www.visugpx.com">
  <metadata>
    <name>M.N. au bois de chaville 2014/01/26</name>
    <desc><![CDATA[randonnée nordique du 26 janvier 2014]]></desc>
  </metadata>
  <trk>
    <name><![CDATA[26 janv. 2014 09:45:47]]></name>
    <cmt><![CDATA[26 janv. 2014 09:45:47]]></cmt>
    <trkseg>
      <trkpt lat="48.78862" lon="2.19314">
        <ele>166</ele>
        <time>2014-01-26T08:45:47Z</time>
      </trkpt>
      <trkpt lat="48.78863" lon="2.1931">
        <ele>170</ele>
        <time>2014-01-26T08:46:12Z</time>
      </trkpt>
      <trkpt lat="48.78862" lon="2.19306">
        <ele>169</ele>
        <time>2014-01-26T08:46:17Z</time>
      </trkpt>
      <trkpt lat="48.78857" lon="2.19315">
        <ele>169</ele>
        <time>2014-01-26T08:46:25Z</time>
      </trkpt>
      <trkpt lat="48.78858" lon="2.19313">
        <ele>169</ele>
        <time>2014-01-26T08:46:43Z</time>
      </trkpt>
      <trkpt lat="48.78855" lon="2.19308">
        <ele>168</ele>
        <time>2014-01-26T08:46:50Z</time>
      </trkpt>
      <trkpt lat="48.78853" lon="2.19315">
        <ele>165</ele>
        <time>2014-01-26T08:46:56Z</time>
      </trkpt>
      <trkpt lat="48.78855" lon="2.19322">
        <ele>164</ele>
        <time>2014-01-26T08:47:00Z</time>
      </trkpt>
      <trkpt lat="48.78859" lon="2.1932">
        <ele>164</ele>
        <time>2014-01-26T08:47:11Z</time>
      </trkpt>
      <trkpt lat="48.78859" lon="2.19313">
        <ele>163</ele>
        <time>2014-01-26T08:47:14Z</time>
      </trkpt>
      <trkpt lat="48.78858" lon="2.19304">
        <ele>164</ele>
        <time>2014-01-26T08:47:18Z</time>
      </trkpt>
      <trkpt lat="48.78853" lon="2.19303">
        <ele>166</ele>
        <time>2014-01-26T08:47:24Z</time>
      </trkpt>
      <trkpt lat="48.78847" lon="2.19308">
        <ele>166</ele>
        <time>2014-01-26T08:47:26Z</time>
      </trkpt>
      <trkpt lat="48.78842" lon="2.19312">
        <ele>166</ele>
        <time>2014-01-26T08:47:28Z</time>
      </trkpt>
      <trkpt lat="48.78843" lon="2.19319">
        <ele>167</ele>
        <time>2014-01-26T08:47:33Z</time>
      </trkpt>
      <trkpt lat="48.78848" lon="2.19321">
        <ele>167</ele>
        <time>2014-01-26T08:47:37Z</time>
      </trkpt>
      <trkpt lat="48.78853" lon="2.1932">
        <ele>167</ele>
        <time>2014-01-26T08:47:41Z</time>
      </trkpt>
      <trkpt lat="48.78858" lon="2.19316">
        <ele>167</ele>
        <time>2014-01-26T08:47:45Z</time>
      </trkpt>
      <trkpt lat="48.78862" lon="2.1931">
        <ele>168</ele>
        <time>2014-01-26T08:47:48Z</time>
      </trkpt>
      <trkpt lat="48.78864" lon="2.19303">
        <ele>168</ele>
        <time>2014-01-26T08:47:51Z</time>
      </trkpt>
      <trkpt lat="48.78865" lon="2.19295">
        <ele>166</ele>
        <time>2014-01-26T08:47:54Z</time>
      </trkpt>
      <trkpt lat="48.78863" lon="2.19289">
        <ele>166</ele>
        <time>2014-01-26T08:47:58Z</time>
      </trkpt>
      <trkpt lat="48.78859" lon="2.19292">
        <ele>166</ele>
        <time>2014-01-26T08:48:01Z</time>
      </trkpt>
      <trkpt lat="48.78853" lon="2.19299">
        <ele>165</ele>
        <time>2014-01-26T08:48:03Z</time>
      </trkpt>
      <trkpt lat="48.78849" lon="2.19305">
        <ele>165</ele>
        <time>2014-01-26T08:48:06Z</time>
      </trkpt>
      <trkpt lat="48.78852" lon="2.19312">
        <ele>165</ele>
        <time>2014-01-26T08:48:09Z</time>
      </trkpt>
      <trkpt lat="48.78856" lon="2.19317">
        <ele>165</ele>
        <time>2014-01-26T08:48:12Z</time>
      </trkpt>
      <trkpt lat="48.7886" lon="2.1932">
        <ele>164</ele>
        <time>2014-01-26T08:48:15Z</time>
      </trkpt>
      <trkpt lat="48.78864" lon="2.19318">
        <ele>160</ele>
        <time>2014-01-26T08:48:28Z</time>
      </trkpt>
      <trkpt lat="48.78867" lon="2.19322">
        <ele>160</ele>
        <time>2014-01-26T08:48:48Z</time>
      </trkpt>
      <trkpt lat="48.78871" lon="2.19328">
        <ele>162</ele>
        <time>2014-01-26T08:48:52Z</time>
      </trkpt>
      <trkpt lat="48.78875" lon="2.19333">
        <ele>164</ele>
        <time>2014-01-26T08:48:54Z</time>
      </trkpt>
      <trkpt lat="48.7888" lon="2.19336">
        <ele>166</ele>
        <time>2014-01-26T08:48:59Z</time>
      </trkpt>
      <trkpt lat="48.78885" lon="2.1934">
        <ele>167</ele>
        <time>2014-01-26T08:49:04Z</time>
      </trkpt>
      <trkpt lat="48.78889" lon="2.19341">
        <ele>167</ele>
        <time>2014-01-26T08:49:06Z</time>
      </trkpt>
      <trkpt lat="48.78894" lon="2.19343">
        <ele>167</ele>
        <time>2014-01-26T08:49:13Z</time>
      </trkpt>
      <trkpt lat="48.78898" lon="2.19347">
        <ele>168</ele>
        <time>2014-01-26T08:49:17Z</time>
      </trkpt>
      <trkpt lat="48.78903" lon="2.19348">
        <ele>169</ele>
        <time>2014-01-26T08:49:20Z</time>
      </trkpt>
      <trkpt lat="48.78907" lon="2.19355">
        <ele>170</ele>
        <time>2014-01-26T08:49:24Z</time>
      </trkpt>
      <trkpt lat="48.78911" lon="2.19363">
        <ele>171</ele>
        <time>2014-01-26T08:49:26Z</time>
      </trkpt>
      <trkpt lat="48.78914" lon="2.19372">
        <ele>172</ele>
        <time>2014-01-26T08:49:29Z</time>
      </trkpt>
      <trkpt lat="48.78919" lon="2.19372">
        <ele>170</ele>
        <time>2014-01-26T08:49:34Z</time>
      </trkpt>
      <trkpt lat="48.78923" lon="2.19368">
        <ele>168</ele>
        <time>2014-01-26T08:49:37Z</time>
      </trkpt>
      <trkpt lat="48.78928" lon="2.19363">
        <ele>167</ele>
        <time>2014-01-26T08:49:40Z</time>
      </trkpt>
      <trkpt lat="48.78932" lon="2.19361">
        <ele>166</ele>
        <time>2014-01-26T08:49:43Z</time>
      </trkpt>
      <trkpt lat="48.78936" lon="2.19365">
        <ele>166</ele>
        <time>2014-01-26T08:49:46Z</time>
      </trkpt>
      <trkpt lat="48.7894" lon="2.1937">
        <ele>166</ele>
        <time>2014-01-26T08:49:49Z</time>
      </trkpt>
      <trkpt lat="48.78943" lon="2.19378">
        <ele>167</ele>
        <time>2014-01-26T08:49:52Z</time>
      </trkpt>
      <trkpt lat="48.78946" lon="2.19383">
        <ele>167</ele>
        <time>2014-01-26T08:49:55Z</time>
      </trkpt>
      <trkpt lat="48.78947" lon="2.19391">
        <ele>166</ele>
        <time>2014-01-26T08:50:02Z</time>
      </trkpt>
      <trkpt lat="48.78942" lon="2.19396">
        <ele>166</ele>
        <time>2014-01-26T08:50:04Z</time>
      </trkpt>
      <trkpt lat="48.78937" lon="2.19408">
        <ele>166</ele>
        <time>2014-01-26T08:50:11Z</time>
      </trkpt>
      <trkpt lat="48.78946" lon="2.19411">
        <ele>166</ele>
        <time>2014-01-26T08:50:14Z</time>
      </trkpt>
      <trkpt lat="48.78959" lon="2.19411">
        <ele>166</ele>
        <time>2014-01-26T08:50:17Z</time>
      </trkpt>
      <trkpt lat="48.78966" lon="2.1941">
        <ele>165</ele>
        <time>2014-01-26T08:50:19Z</time>
      </trkpt>
      <trkpt lat="48.78972" lon="2.19409">
        <ele>164</ele>
        <time>2014-01-26T08:50:21Z</time>
      </trkpt>
      <trkpt lat="48.78978" lon="2.19409">
        <ele>163</ele>
        <time>2014-01-26T08:50:23Z</time>
      </trkpt>
      <trkpt lat="48.78983" lon="2.1941">
        <ele>162</ele>
        <time>2014-01-26T08:50:25Z</time>
      </trkpt>
      <trkpt lat="48.78989" lon="2.19415">
        <ele>159</ele>
        <time>2014-01-26T08:50:28Z</time>
      </trkpt>
      <trkpt lat="48.78999" lon="2.19424">
        <ele>154</ele>
        <time>2014-01-26T08:50:38Z</time>
      </trkpt>
      <trkpt lat="48.79005" lon="2.19424">
        <ele>152</ele>
        <time>2014-01-26T08:50:42Z</time>
      </trkpt>
      <trkpt lat="48.7901" lon="2.19424">
        <ele>151</ele>
        <time>2014-01-26T08:50:46Z</time>
      </trkpt>
      <trkpt lat="48.79014" lon="2.19428">
        <ele>151</ele>
        <time>2014-01-26T08:50:48Z</time>
      </trkpt>
      <trkpt lat="48.79018" lon="2.19433">
        <ele>151</ele>
        <time>2014-01-26T08:50:52Z</time>
      </trkpt>
      <trkpt lat="48.79023" lon="2.19438">
        <ele>150</ele>
        <time>2014-01-26T08:50:56Z</time>
      </trkpt>
      <trkpt lat="48.79028" lon="2.19441">
        <ele>149</ele>
        <time>2014-01-26T08:50:59Z</time>
      </trkpt>
      <trkpt lat="48.79032" lon="2.19444">
        <ele>149</ele>
        <time>2014-01-26T08:51:03Z</time>
      </trkpt>
      <trkpt lat="48.79037" lon="2.19447">
        <ele>149</ele>
        <time>2014-01-26T08:51:07Z</time>
      </trkpt>
      <trkpt lat="48.79041" lon="2.19447">
        <ele>149</ele>
        <time>2014-01-26T08:51:10Z</time>
      </trkpt>
      <trkpt lat="48.79046" lon="2.19448">
        <ele>148</ele>
        <time>2014-01-26T08:51:13Z</time>
      </trkpt>
      <trkpt lat="48.7905" lon="2.19451">
        <ele>148</ele>
        <time>2014-01-26T08:51:16Z</time>
      </trkpt>
      <trkpt lat="48.79054" lon="2.19453">
        <ele>148</ele>
        <time>2014-01-26T08:51:19Z</time>
      </trkpt>
      <trkpt lat="48.79059" lon="2.19457">
        <ele>148</ele>
        <time>2014-01-26T08:51:22Z</time>
      </trkpt>
      <trkpt lat="48.79063" lon="2.1946">
        <ele>147</ele>
        <time>2014-01-26T08:51:26Z</time>
      </trkpt>
      <trkpt lat="48.79069" lon="2.19461">
        <ele>146</ele>
        <time>2014-01-26T08:51:30Z</time>
      </trkpt>
      <trkpt lat="48.79073" lon="2.19462">
        <ele>146</ele>
        <time>2014-01-26T08:51:33Z</time>
      </trkpt>
      <trkpt lat="48.79078" lon="2.19463">
        <ele>146</ele>
        <time>2014-01-26T08:51:37Z</time>
      </trkpt>
      <trkpt lat="48.79084" lon="2.19466">
        <ele>144</ele>
        <time>2014-01-26T08:51:40Z</time>
      </trkpt>
      <trkpt lat="48.79088" lon="2.19468">
        <ele>144</ele>
        <time>2014-01-26T08:51:44Z</time>
      </trkpt>
      <trkpt lat="48.79093" lon="2.19472">
        <ele>144</ele>
        <time>2014-01-26T08:51:47Z</time>
      </trkpt>
      <trkpt lat="48.79098" lon="2.19475">
        <ele>144</ele>
        <time>2014-01-26T08:51:51Z</time>
      </trkpt>
      <trkpt lat="48.79103" lon="2.19478">
        <ele>144</ele>
        <time>2014-01-26T08:51:54Z</time>
      </trkpt>
      <trkpt lat="48.79107" lon="2.1948">
        <ele>143</ele>
        <time>2014-01-26T08:51:56Z</time>
      </trkpt>
      <trkpt lat="48.79103" lon="2.19478">
        <ele>138</ele>
        <time>2014-01-26T08:52:06Z</time>
      </trkpt>
      <trkpt lat="48.79099" lon="2.19482">
        <ele>136</ele>
        <time>2014-01-26T08:52:10Z</time>
      </trkpt>
      <trkpt lat="48.79097" lon="2.1949">
        <ele>135</ele>
        <time>2014-01-26T08:52:15Z</time>
      </trkpt>
      <trkpt lat="48.79096" lon="2.19497">
        <ele>134</ele>
        <time>2014-01-26T08:52:18Z</time>
      </trkpt>
      <trkpt lat="48.79094" lon="2.19503">
        <ele>133</ele>
        <time>2014-01-26T08:52:21Z</time>
      </trkpt>
      <trkpt lat="48.79092" lon="2.1951">
        <ele>131</ele>
        <time>2014-01-26T08:52:24Z</time>
      </trkpt>
      <trkpt lat="48.79088" lon="2.19516">
        <ele>131</ele>
        <time>2014-01-26T08:52:27Z</time>
      </trkpt>
      <trkpt lat="48.79087" lon="2.19523">
        <ele>131</ele>
        <time>2014-01-26T08:52:32Z</time>
      </trkpt>
      <trkpt lat="48.79083" lon="2.1953">
        <ele>132</ele>
        <time>2014-01-26T08:52:36Z</time>
      </trkpt>
      <trkpt lat="48.79081" lon="2.19538">
        <ele>132</ele>
        <time>2014-01-26T08:52:41Z</time>
      </trkpt>
      <trkpt lat="48.79079" lon="2.19545">
        <ele>133</ele>
        <time>2014-01-26T08:52:44Z</time>
      </trkpt>
      <trkpt lat="48.79076" lon="2.19552">
        <ele>133</ele>
        <time>2014-01-26T08:52:47Z</time>
      </trkpt>
      <trkpt lat="48.79073" lon="2.19559">
        <ele>133</ele>
        <time>2014-01-26T08:52:50Z</time>
      </trkpt>
      <trkpt lat="48.7907" lon="2.19565">
        <ele>133</ele>
        <time>2014-01-26T08:52:54Z</time>
      </trkpt>
      <trkpt lat="48.79069" lon="2.19574">
        <ele>132</ele>
        <time>2014-01-26T08:52:57Z</time>
      </trkpt>
      <trkpt lat="48.79068" lon="2.1958">
        <ele>132</ele>
        <time>2014-01-26T08:52:59Z</time>
      </trkpt>
      <trkpt lat="48.79067" lon="2.19588">
        <ele>131</ele>
        <time>2014-01-26T08:53:02Z</time>
      </trkpt>
      <trkpt lat="48.79066" lon="2.19597">
        <ele>131</ele>
        <time>2014-01-26T08:53:05Z</time>
      </trkpt>
      <trkpt lat="48.79063" lon="2.19603">
        <ele>132</ele>
        <time>2014-01-26T08:53:09Z</time>
      </trkpt>
      <trkpt lat="48.79061" lon="2.1961">
        <ele>131</ele>
        <time>2014-01-26T08:53:14Z</time>
      </trkpt>
      <trkpt lat="48.7906" lon="2.19618">
        <ele>131</ele>
        <time>2014-01-26T08:53:18Z</time>
      </trkpt>
      <trkpt lat="48.79057" lon="2.19626">
        <ele>130</ele>
        <time>2014-01-26T08:53:24Z</time>
      </trkpt>
      <trkpt lat="48.79057" lon="2.19633">
        <ele>130</ele>
        <time>2014-01-26T08:53:28Z</time>
      </trkpt>
      <trkpt lat="48.79055" lon="2.19641">
        <ele>129</ele>
        <time>2014-01-26T08:53:32Z</time>
      </trkpt>
      <trkpt lat="48.79052" lon="2.19648">
        <ele>128</ele>
        <time>2014-01-26T08:53:36Z</time>
      </trkpt>
      <trkpt lat="48.79048" lon="2.19654">
        <ele>129</ele>
        <time>2014-01-26T08:53:40Z</time>
      </trkpt>
      <trkpt lat="48.79045" lon="2.19661">
        <ele>129</ele>
        <time>2014-01-26T08:53:44Z</time>
      </trkpt>
      <trkpt lat="48.79043" lon="2.19668">
        <ele>130</ele>
        <time>2014-01-26T08:53:48Z</time>
      </trkpt>
      <trkpt lat="48.7904" lon="2.19675">
        <ele>130</ele>
        <time>2014-01-26T08:53:51Z</time>
      </trkpt>
      <trkpt lat="48.79038" lon="2.19682">
        <ele>131</ele>
        <time>2014-01-26T08:53:56Z</time>
      </trkpt>
      <trkpt lat="48.79038" lon="2.19689">
        <ele>131</ele>
        <time>2014-01-26T08:54:00Z</time>
      </trkpt>
      <trkpt lat="48.79037" lon="2.19698">
        <ele>133</ele>
        <time>2014-01-26T08:54:05Z</time>
      </trkpt>
      <trkpt lat="48.79034" lon="2.19704">
        <ele>133</ele>
        <time>2014-01-26T08:54:09Z</time>
      </trkpt>
      <trkpt lat="48.7903" lon="2.1971">
        <ele>134</ele>
        <time>2014-01-26T08:54:14Z</time>
      </trkpt>
      <trkpt lat="48.79029" lon="2.19717">
        <ele>134</ele>
        <time>2014-01-26T08:54:19Z</time>
      </trkpt>
      <trkpt lat="48.79028" lon="2.19724">
        <ele>136</ele>
        <time>2014-01-26T08:54:22Z</time>
      </trkpt>
      <trkpt lat="48.79026" lon="2.19731">
        <ele>136</ele>
        <time>2014-01-26T08:54:25Z</time>
      </trkpt>
      <trkpt lat="48.79022" lon="2.19738">
        <ele>136</ele>
        <time>2014-01-26T08:54:30Z</time>
      </trkpt>
      <trkpt lat="48.79021" lon="2.19746">
        <ele>136</ele>
        <time>2014-01-26T08:54:34Z</time>
      </trkpt>
      <trkpt lat="48.79017" lon="2.19752">
        <ele>136</ele>
        <time>2014-01-26T08:54:38Z</time>
      </trkpt>
      <trkpt lat="48.79015" lon="2.1976">
        <ele>138</ele>
        <time>2014-01-26T08:54:42Z</time>
      </trkpt>
      <trkpt lat="48.79014" lon="2.19767">
        <ele>139</ele>
        <time>2014-01-26T08:54:46Z</time>
      </trkpt>
      <trkpt lat="48.79015" lon="2.19774">
        <ele>139</ele>
        <time>2014-01-26T08:54:50Z</time>
      </trkpt>
      <trkpt lat="48.79013" lon="2.19781">
        <ele>139</ele>
        <time>2014-01-26T08:54:53Z</time>
      </trkpt>
      <trkpt lat="48.79013" lon="2.19789">
        <ele>139</ele>
        <time>2014-01-26T08:54:55Z</time>
      </trkpt>
      <trkpt lat="48.79012" lon="2.19797">
        <ele>138</ele>
        <time>2014-01-26T08:54:57Z</time>
      </trkpt>
      <trkpt lat="48.79011" lon="2.19806">
        <ele>137</ele>
        <time>2014-01-26T08:54:59Z</time>
      </trkpt>
      <trkpt lat="48.7901" lon="2.19814">
        <ele>136</ele>
        <time>2014-01-26T08:55:03Z</time>
      </trkpt>
      <trkpt lat="48.79008" lon="2.19821">
        <ele>136</ele>
        <time>2014-01-26T08:55:07Z</time>
      </trkpt>
      <trkpt lat="48.79005" lon="2.1983">
        <ele>136</ele>
        <time>2014-01-26T08:55:11Z</time>
      </trkpt>
      <trkpt lat="48.79003" lon="2.19837">
        <ele>136</ele>
        <time>2014-01-26T08:55:15Z</time>
      </trkpt>
      <trkpt lat="48.79001" lon="2.19844">
        <ele>137</ele>
        <time>2014-01-26T08:55:21Z</time>
      </trkpt>
      <trkpt lat="48.78999" lon="2.1985">
        <ele>136</ele>
        <time>2014-01-26T08:55:23Z</time>
      </trkpt>
      <trkpt lat="48.78997" lon="2.19858">
        <ele>136</ele>
        <time>2014-01-26T08:55:27Z</time>
      </trkpt>
      <trkpt lat="48.78996" lon="2.19868">
        <ele>135</ele>
        <time>2014-01-26T08:55:31Z</time>
      </trkpt>
      <trkpt lat="48.78995" lon="2.19876">
        <ele>135</ele>
        <time>2014-01-26T08:55:34Z</time>
      </trkpt>
      <trkpt lat="48.78994" lon="2.19884">
        <ele>135</ele>
        <time>2014-01-26T08:55:36Z</time>
      </trkpt>
      <trkpt lat="48.78992" lon="2.1989">
        <ele>135</ele>
        <time>2014-01-26T08:55:39Z</time>
      </trkpt>
      <trkpt lat="48.78989" lon="2.19897">
        <ele>134</ele>
        <time>2014-01-26T08:55:44Z</time>
      </trkpt>
      <trkpt lat="48.78988" lon="2.19904">
        <ele>135</ele>
        <time>2014-01-26T08:55:47Z</time>
      </trkpt>
      <trkpt lat="48.78987" lon="2.19912">
        <ele>135</ele>
        <time>2014-01-26T08:55:48Z</time>
      </trkpt>
      <trkpt lat="48.78986" lon="2.1992">
        <ele>135</ele>
        <time>2014-01-26T08:55:51Z</time>
      </trkpt>
      <trkpt lat="48.78983" lon="2.19928">
        <ele>137</ele>
        <time>2014-01-26T08:55:56Z</time>
      </trkpt>
      <trkpt lat="48.78984" lon="2.19935">
        <ele>137</ele>
        <time>2014-01-26T08:56:01Z</time>
      </trkpt>
      <trkpt lat="48.78982" lon="2.19942">
        <ele>138</ele>
        <time>2014-01-26T08:56:04Z</time>
      </trkpt>
      <trkpt lat="48.78978" lon="2.19946">
        <ele>139</ele>
        <time>2014-01-26T08:56:10Z</time>
      </trkpt>
      <trkpt lat="48.78976" lon="2.19953">
        <ele>140</ele>
        <time>2014-01-26T08:56:16Z</time>
      </trkpt>
      <trkpt lat="48.78973" lon="2.1996">
        <ele>140</ele>
        <time>2014-01-26T08:56:20Z</time>
      </trkpt>
      <trkpt lat="48.7897" lon="2.19968">
        <ele>140</ele>
        <time>2014-01-26T08:56:22Z</time>
      </trkpt>
      <trkpt lat="48.78968" lon="2.19976">
        <ele>141</ele>
        <time>2014-01-26T08:56:26Z</time>
      </trkpt>
      <trkpt lat="48.78965" lon="2.19981">
        <ele>141</ele>
        <time>2014-01-26T08:56:29Z</time>
      </trkpt>
      <trkpt lat="48.78968" lon="2.19989">
        <ele>140</ele>
        <time>2014-01-26T08:56:33Z</time>
      </trkpt>
      <trkpt lat="48.78972" lon="2.19993">
        <ele>138</ele>
        <time>2014-01-26T08:56:37Z</time>
      </trkpt>
      <trkpt lat="48.7897" lon="2.19999">
        <ele>136</ele>
        <time>2014-01-26T08:56:46Z</time>
      </trkpt>
      <trkpt lat="48.78976" lon="2.20003">
        <ele>132</ele>
        <time>2014-01-26T08:56:50Z</time>
      </trkpt>
      <trkpt lat="48.78975" lon="2.20008">
        <ele>132</ele>
        <time>2014-01-26T08:57:03Z</time>
      </trkpt>
      <trkpt lat="48.78975" lon="2.20003">
        <ele>130</ele>
        <time>2014-01-26T08:57:23Z</time>
      </trkpt>
      <trkpt lat="48.78972" lon="2.20004">
        <ele>133</ele>
        <time>2014-01-26T08:57:45Z</time>
      </trkpt>
      <trkpt lat="48.78968" lon="2.20008">
        <ele>134</ele>
        <time>2014-01-26T08:57:58Z</time>
      </trkpt>
      <trkpt lat="48.78963" lon="2.20008">
        <ele>134</ele>
        <time>2014-01-26T08:58:01Z</time>
      </trkpt>
      <trkpt lat="48.78959" lon="2.2001">
        <ele>135</ele>
        <time>2014-01-26T08:58:05Z</time>
      </trkpt>
      <trkpt lat="48.78957" lon="2.20017">
        <ele>136</ele>
        <time>2014-01-26T08:58:11Z</time>
      </trkpt>
      <trkpt lat="48.78953" lon="2.20022">
        <ele>136</ele>
        <time>2014-01-26T08:58:15Z</time>
      </trkpt>
      <trkpt lat="48.78948" lon="2.20024">
        <ele>137</ele>
        <time>2014-01-26T08:58:19Z</time>
      </trkpt>
      <trkpt lat="48.78944" lon="2.20028">
        <ele>138</ele>
        <time>2014-01-26T08:58:22Z</time>
      </trkpt>
      <trkpt lat="48.78941" lon="2.20034">
        <ele>139</ele>
        <time>2014-01-26T08:58:25Z</time>
      </trkpt>
      <trkpt lat="48.78938" lon="2.2004">
        <ele>140</ele>
        <time>2014-01-26T08:58:28Z</time>
      </trkpt>
      <trkpt lat="48.78934" lon="2.20047">
        <ele>141</ele>
        <time>2014-01-26T08:58:33Z</time>
      </trkpt>
      <trkpt lat="48.7893" lon="2.2005">
        <ele>142</ele>
        <time>2014-01-26T08:58:37Z</time>
      </trkpt>
      <trkpt lat="48.78925" lon="2.20054">
        <ele>142</ele>
        <time>2014-01-26T08:58:42Z</time>
      </trkpt>
      <trkpt lat="48.78921" lon="2.20058">
        <ele>142</ele>
        <time>2014-01-26T08:58:45Z</time>
      </trkpt>
      <trkpt lat="48.78917" lon="2.20061">
        <ele>142</ele>
        <time>2014-01-26T08:58:47Z</time>
      </trkpt>
      <trkpt lat="48.78913" lon="2.20066">
        <ele>143</ele>
        <time>2014-01-26T08:58:52Z</time>
      </trkpt>
      <trkpt lat="48.78908" lon="2.2007">
        <ele>143</ele>
        <time>2014-01-26T08:58:58Z</time>
      </trkpt>
      <trkpt lat="48.78904" lon="2.20076">
        <ele>144</ele>
        <time>2014-01-26T08:59:01Z</time>
      </trkpt>
      <trkpt lat="48.78901" lon="2.20081">
        <ele>144</ele>
        <time>2014-01-26T08:59:04Z</time>
      </trkpt>
      <trkpt lat="48.78897" lon="2.20087">
        <ele>144</ele>
        <time>2014-01-26T08:59:07Z</time>
      </trkpt>
      <trkpt lat="48.78893" lon="2.20091">
        <ele>144</ele>
        <time>2014-01-26T08:59:09Z</time>
      </trkpt>
      <trkpt lat="48.7889" lon="2.20097">
        <ele>143</ele>
        <time>2014-01-26T08:59:12Z</time>
      </trkpt>
      <trkpt lat="48.78889" lon="2.20107">
        <ele>141</ele>
        <time>2014-01-26T08:59:16Z</time>
      </trkpt>
      <trkpt lat="48.78887" lon="2.20114">
        <ele>140</ele>
        <time>2014-01-26T08:59:19Z</time>
      </trkpt>
      <trkpt lat="48.78882" lon="2.20121">
        <ele>139</ele>
        <time>2014-01-26T08:59:23Z</time>
      </trkpt>
      <trkpt lat="48.78878" lon="2.20126">
        <ele>138</ele>
        <time>2014-01-26T08:59:26Z</time>
      </trkpt>
      <trkpt lat="48.78873" lon="2.2013">
        <ele>137</ele>
        <time>2014-01-26T08:59:30Z</time>
      </trkpt>
      <trkpt lat="48.78868" lon="2.20132">
        <ele>137</ele>
        <time>2014-01-26T08:59:34Z</time>
      </trkpt>
      <trkpt lat="48.78863" lon="2.20135">
        <ele>138</ele>
        <time>2014-01-26T08:59:39Z</time>
      </trkpt>
      <trkpt lat="48.78858" lon="2.20136">
        <ele>139</ele>
        <time>2014-01-26T08:59:44Z</time>
      </trkpt>
      <trkpt lat="48.78854" lon="2.20141">
        <ele>140</ele>
        <time>2014-01-26T08:59:49Z</time>
      </trkpt>
      <trkpt lat="48.78851" lon="2.20149">
        <ele>141</ele>
        <time>2014-01-26T08:59:54Z</time>
      </trkpt>
      <trkpt lat="48.78848" lon="2.20154">
        <ele>141</ele>
        <time>2014-01-26T08:59:57Z</time>
      </trkpt>
      <trkpt lat="48.78844" lon="2.20159">
        <ele>141</ele>
        <time>2014-01-26T09:00:00Z</time>
      </trkpt>
      <trkpt lat="48.78839" lon="2.20162">
        <ele>141</ele>
        <time>2014-01-26T09:00:03Z</time>
      </trkpt>
      <trkpt lat="48.78835" lon="2.20169">
        <ele>140</ele>
        <time>2014-01-26T09:00:06Z</time>
      </trkpt>
      <trkpt lat="48.78832" lon="2.20176">
        <ele>140</ele>
        <time>2014-01-26T09:00:09Z</time>
      </trkpt>
      <trkpt lat="48.78828" lon="2.20184">
        <ele>139</ele>
        <time>2014-01-26T09:00:13Z</time>
      </trkpt>
      <trkpt lat="48.78824" lon="2.20188">
        <ele>139</ele>
        <time>2014-01-26T09:00:16Z</time>
      </trkpt>
      <trkpt lat="48.78819" lon="2.20191">
        <ele>139</ele>
        <time>2014-01-26T09:00:19Z</time>
      </trkpt>
      <trkpt lat="48.78814" lon="2.20194">
        <ele>139</ele>
        <time>2014-01-26T09:00:23Z</time>
      </trkpt>
      <trkpt lat="48.78811" lon="2.202">
        <ele>139</ele>
        <time>2014-01-26T09:00:26Z</time>
      </trkpt>
      <trkpt lat="48.78807" lon="2.20203">
        <ele>138</ele>
        <time>2014-01-26T09:00:29Z</time>
      </trkpt>
      <trkpt lat="48.78802" lon="2.20209">
        <ele>138</ele>
        <time>2014-01-26T09:00:32Z</time>
      </trkpt>
      <trkpt lat="48.78798" lon="2.20214">
        <ele>137</ele>
        <time>2014-01-26T09:00:34Z</time>
      </trkpt>
      <trkpt lat="48.78796" lon="2.20221">
        <ele>136</ele>
        <time>2014-01-26T09:00:39Z</time>
      </trkpt>
      <trkpt lat="48.78792" lon="2.20227">
        <ele>137</ele>
        <time>2014-01-26T09:00:44Z</time>
      </trkpt>
      <trkpt lat="48.78791" lon="2.20235">
        <ele>137</ele>
        <time>2014-01-26T09:00:50Z</time>
      </trkpt>
      <trkpt lat="48.78787" lon="2.20242">
        <ele>137</ele>
        <time>2014-01-26T09:00:54Z</time>
      </trkpt>
      <trkpt lat="48.78784" lon="2.2025">
        <ele>137</ele>
        <time>2014-01-26T09:00:56Z</time>
      </trkpt>
      <trkpt lat="48.78781" lon="2.20257">
        <ele>137</ele>
        <time>2014-01-26T09:00:59Z</time>
      </trkpt>
      <trkpt lat="48.78777" lon="2.2026">
        <ele>139</ele>
        <time>2014-01-26T09:01:04Z</time>
      </trkpt>
      <trkpt lat="48.78773" lon="2.20254">
        <ele>141</ele>
        <time>2014-01-26T09:01:07Z</time>
      </trkpt>
      <trkpt lat="48.78768" lon="2.20254">
        <ele>145</ele>
        <time>2014-01-26T09:01:12Z</time>
      </trkpt>
      <trkpt lat="48.78767" lon="2.20263">
        <ele>145</ele>
        <time>2014-01-26T09:01:17Z</time>
      </trkpt>
      <trkpt lat="48.78768" lon="2.20269">
        <ele>144</ele>
        <time>2014-01-26T09:01:20Z</time>
      </trkpt>
      <trkpt lat="48.78773" lon="2.20275">
        <ele>142</ele>
        <time>2014-01-26T09:01:23Z</time>
      </trkpt>
      <trkpt lat="48.78769" lon="2.20278">
        <ele>137</ele>
        <time>2014-01-26T09:01:32Z</time>
      </trkpt>
      <trkpt lat="48.78766" lon="2.20284">
        <ele>136</ele>
        <time>2014-01-26T09:01:37Z</time>
      </trkpt>
      <trkpt lat="48.78761" lon="2.20282">
        <ele>136</ele>
        <time>2014-01-26T09:01:42Z</time>
      </trkpt>
      <trkpt lat="48.78756" lon="2.20282">
        <ele>137</ele>
        <time>2014-01-26T09:01:48Z</time>
      </trkpt>
      <trkpt lat="48.78752" lon="2.20285">
        <ele>136</ele>
        <time>2014-01-26T09:01:51Z</time>
      </trkpt>
      <trkpt lat="48.78748" lon="2.2029">
        <ele>135</ele>
        <time>2014-01-26T09:01:53Z</time>
      </trkpt>
      <trkpt lat="48.78744" lon="2.20292">
        <ele>136</ele>
        <time>2014-01-26T09:01:58Z</time>
      </trkpt>
      <trkpt lat="48.78739" lon="2.20292">
        <ele>137</ele>
        <time>2014-01-26T09:02:04Z</time>
      </trkpt>
      <trkpt lat="48.78735" lon="2.20295">
        <ele>138</ele>
        <time>2014-01-26T09:02:12Z</time>
      </trkpt>
      <trkpt lat="48.7873" lon="2.20298">
        <ele>139</ele>
        <time>2014-01-26T09:02:18Z</time>
      </trkpt>
      <trkpt lat="48.78727" lon="2.20303">
        <ele>141</ele>
        <time>2014-01-26T09:02:24Z</time>
      </trkpt>
      <trkpt lat="48.78723" lon="2.20309">
        <ele>141</ele>
        <time>2014-01-26T09:02:30Z</time>
      </trkpt>
      <trkpt lat="48.7872" lon="2.20314">
        <ele>141</ele>
        <time>2014-01-26T09:02:35Z</time>
      </trkpt>
      <trkpt lat="48.78717" lon="2.20321">
        <ele>140</ele>
        <time>2014-01-26T09:02:41Z</time>
      </trkpt>
      <trkpt lat="48.78714" lon="2.20328">
        <ele>141</ele>
        <time>2014-01-26T09:02:46Z</time>
      </trkpt>
      <trkpt lat="48.78709" lon="2.20332">
        <ele>141</ele>
        <time>2014-01-26T09:02:49Z</time>
      </trkpt>
      <trkpt lat="48.78706" lon="2.20338">
        <ele>141</ele>
        <time>2014-01-26T09:02:53Z</time>
      </trkpt>
      <trkpt lat="48.78704" lon="2.20346">
        <ele>141</ele>
        <time>2014-01-26T09:02:58Z</time>
      </trkpt>
      <trkpt lat="48.78701" lon="2.20353">
        <ele>140</ele>
        <time>2014-01-26T09:03:00Z</time>
      </trkpt>
      <trkpt lat="48.78699" lon="2.2036">
        <ele>141</ele>
        <time>2014-01-26T09:03:06Z</time>
      </trkpt>
      <trkpt lat="48.78698" lon="2.20368">
        <ele>143</ele>
        <time>2014-01-26T09:03:13Z</time>
      </trkpt>
      <trkpt lat="48.78694" lon="2.20374">
        <ele>144</ele>
        <time>2014-01-26T09:03:17Z</time>
      </trkpt>
      <trkpt lat="48.78691" lon="2.20378">
        <ele>144</ele>
        <time>2014-01-26T09:03:21Z</time>
      </trkpt>
      <trkpt lat="48.78687" lon="2.20383">
        <ele>146</ele>
        <time>2014-01-26T09:03:24Z</time>
      </trkpt>
      <trkpt lat="48.78681" lon="2.20387">
        <ele>147</ele>
        <time>2014-01-26T09:03:27Z</time>
      </trkpt>
      <trkpt lat="48.78678" lon="2.20392">
        <ele>147</ele>
        <time>2014-01-26T09:03:30Z</time>
      </trkpt>
      <trkpt lat="48.78673" lon="2.20393">
        <ele>149</ele>
        <time>2014-01-26T09:03:37Z</time>
      </trkpt>
      <trkpt lat="48.78669" lon="2.20393">
        <ele>150</ele>
        <time>2014-01-26T09:03:41Z</time>
      </trkpt>
      <trkpt lat="48.78668" lon="2.20402">
        <ele>151</ele>
        <time>2014-01-26T09:03:45Z</time>
      </trkpt>
      <trkpt lat="48.78663" lon="2.20406">
        <ele>153</ele>
        <time>2014-01-26T09:03:49Z</time>
      </trkpt>
      <trkpt lat="48.78658" lon="2.20405">
        <ele>155</ele>
        <time>2014-01-26T09:03:56Z</time>
      </trkpt>
      <trkpt lat="48.78653" lon="2.20406">
        <ele>156</ele>
        <time>2014-01-26T09:03:59Z</time>
      </trkpt>
      <trkpt lat="48.78648" lon="2.20408">
        <ele>156</ele>
        <time>2014-01-26T09:04:03Z</time>
      </trkpt>
      <trkpt lat="48.78644" lon="2.20413">
        <ele>156</ele>
        <time>2014-01-26T09:04:05Z</time>
      </trkpt>
      <trkpt lat="48.78639" lon="2.20419">
        <ele>156</ele>
        <time>2014-01-26T09:04:08Z</time>
      </trkpt>
      <trkpt lat="48.78635" lon="2.2042">
        <ele>155</ele>
        <time>2014-01-26T09:04:12Z</time>
      </trkpt>
      <trkpt lat="48.78629" lon="2.2042">
        <ele>155</ele>
        <time>2014-01-26T09:04:16Z</time>
      </trkpt>
      <trkpt lat="48.78626" lon="2.20425">
        <ele>155</ele>
        <time>2014-01-26T09:04:18Z</time>
      </trkpt>
      <trkpt lat="48.78624" lon="2.20434">
        <ele>155</ele>
        <time>2014-01-26T09:04:20Z</time>
      </trkpt>
      <trkpt lat="48.78624" lon="2.20441">
        <ele>155</ele>
        <time>2014-01-26T09:04:24Z</time>
      </trkpt>
      <trkpt lat="48.78621" lon="2.20448">
        <ele>156</ele>
        <time>2014-01-26T09:04:32Z</time>
      </trkpt>
      <trkpt lat="48.78619" lon="2.20458">
        <ele>155</ele>
        <time>2014-01-26T09:04:37Z</time>
      </trkpt>
      <trkpt lat="48.78615" lon="2.20465">
        <ele>155</ele>
        <time>2014-01-26T09:04:41Z</time>
      </trkpt>
      <trkpt lat="48.78612" lon="2.20472">
        <ele>155</ele>
        <time>2014-01-26T09:04:44Z</time>
      </trkpt>
      <trkpt lat="48.78608" lon="2.20476">
        <ele>157</ele>
        <time>2014-01-26T09:04:50Z</time>
      </trkpt>
      <trkpt lat="48.78603" lon="2.2048">
        <ele>158</ele>
        <time>2014-01-26T09:04:55Z</time>
      </trkpt>
      <trkpt lat="48.786" lon="2.20486">
        <ele>159</ele>
        <time>2014-01-26T09:05:02Z</time>
      </trkpt>
      <trkpt lat="48.78594" lon="2.20487">
        <ele>161</ele>
        <time>2014-01-26T09:05:06Z</time>
      </trkpt>
      <trkpt lat="48.78584" lon="2.20487">
        <ele>170</ele>
        <time>2014-01-26T09:05:16Z</time>
      </trkpt>
      <trkpt lat="48.7858" lon="2.20491">
        <ele>171</ele>
        <time>2014-01-26T09:05:19Z</time>
      </trkpt>
      <trkpt lat="48.78576" lon="2.20496">
        <ele>172</ele>
        <time>2014-01-26T09:05:24Z</time>
      </trkpt>
      <trkpt lat="48.78572" lon="2.205">
        <ele>173</ele>
        <time>2014-01-26T09:05:30Z</time>
      </trkpt>
      <trkpt lat="48.78568" lon="2.20504">
        <ele>174</ele>
        <time>2014-01-26T09:05:33Z</time>
      </trkpt>
      <trkpt lat="48.78563" lon="2.20508">
        <ele>176</ele>
        <time>2014-01-26T09:05:37Z</time>
      </trkpt>
      <trkpt lat="48.7856" lon="2.20514">
        <ele>178</ele>
        <time>2014-01-26T09:05:41Z</time>
      </trkpt>
      <trkpt lat="48.78558" lon="2.2052">
        <ele>179</ele>
        <time>2014-01-26T09:05:45Z</time>
      </trkpt>
      <trkpt lat="48.78555" lon="2.20526">
        <ele>178</ele>
        <time>2014-01-26T09:05:48Z</time>
      </trkpt>
      <trkpt lat="48.78551" lon="2.20534">
        <ele>177</ele>
        <time>2014-01-26T09:05:51Z</time>
      </trkpt>
      <trkpt lat="48.78549" lon="2.2054">
        <ele>176</ele>
        <time>2014-01-26T09:05:54Z</time>
      </trkpt>
      <trkpt lat="48.78545" lon="2.20546">
        <ele>175</ele>
        <time>2014-01-26T09:05:59Z</time>
      </trkpt>
      <trkpt lat="48.78543" lon="2.20553">
        <ele>174</ele>
        <time>2014-01-26T09:06:04Z</time>
      </trkpt>
      <trkpt lat="48.78539" lon="2.20561">
        <ele>174</ele>
        <time>2014-01-26T09:06:07Z</time>
      </trkpt>
      <trkpt lat="48.78537" lon="2.20568">
        <ele>174</ele>
        <time>2014-01-26T09:06:11Z</time>
      </trkpt>
      <trkpt lat="48.78536" lon="2.20575">
        <ele>174</ele>
        <time>2014-01-26T09:06:17Z</time>
      </trkpt>
      <trkpt lat="48.78534" lon="2.20581">
        <ele>174</ele>
        <time>2014-01-26T09:06:20Z</time>
      </trkpt>
      <trkpt lat="48.7853" lon="2.20588">
        <ele>174</ele>
        <time>2014-01-26T09:06:25Z</time>
      </trkpt>
      <trkpt lat="48.78527" lon="2.20593">
        <ele>175</ele>
        <time>2014-01-26T09:06:28Z</time>
      </trkpt>
      <trkpt lat="48.78524" lon="2.20599">
        <ele>175</ele>
        <time>2014-01-26T09:06:32Z</time>
      </trkpt>
      <trkpt lat="48.78521" lon="2.20605">
        <ele>174</ele>
        <time>2014-01-26T09:06:34Z</time>
      </trkpt>
      <trkpt lat="48.78517" lon="2.20609">
        <ele>173</ele>
        <time>2014-01-26T09:06:38Z</time>
      </trkpt>
      <trkpt lat="48.78513" lon="2.20614">
        <ele>173</ele>
        <time>2014-01-26T09:06:41Z</time>
      </trkpt>
      <trkpt lat="48.7851" lon="2.20619">
        <ele>174</ele>
        <time>2014-01-26T09:06:44Z</time>
      </trkpt>
      <trkpt lat="48.78507" lon="2.20625">
        <ele>175</ele>
        <time>2014-01-26T09:06:49Z</time>
      </trkpt>
      <trkpt lat="48.78506" lon="2.20632">
        <ele>178</ele>
        <time>2014-01-26T09:06:54Z</time>
      </trkpt>
      <trkpt lat="48.78506" lon="2.20642">
        <ele>179</ele>
        <time>2014-01-26T09:06:59Z</time>
      </trkpt>
      <trkpt lat="48.78507" lon="2.20651">
        <ele>180</ele>
        <time>2014-01-26T09:07:01Z</time>
      </trkpt>
      <trkpt lat="48.78508" lon="2.20659">
        <ele>180</ele>
        <time>2014-01-26T09:07:03Z</time>
      </trkpt>
      <trkpt lat="48.78506" lon="2.20661">
        <ele>182</ele>
        <time>2014-01-26T09:07:23Z</time>
      </trkpt>
      <trkpt lat="48.78502" lon="2.20659">
        <ele>183</ele>
        <time>2014-01-26T09:07:45Z</time>
      </trkpt>
      <trkpt lat="48.78505" lon="2.20668">
        <ele>184</ele>
        <time>2014-01-26T09:08:05Z</time>
      </trkpt>
      <trkpt lat="48.78509" lon="2.20664">
        <ele>184</ele>
        <time>2014-01-26T09:08:15Z</time>
      </trkpt>
      <trkpt lat="48.78512" lon="2.20671">
        <ele>183</ele>
        <time>2014-01-26T09:08:16Z</time>
      </trkpt>
      <trkpt lat="48.78515" lon="2.20679">
        <ele>178</ele>
        <time>2014-01-26T09:08:57Z</time>
      </trkpt>
      <trkpt lat="48.78517" lon="2.20683">
        <ele>177</ele>
        <time>2014-01-26T09:09:10Z</time>
      </trkpt>
      <trkpt lat="48.78522" lon="2.20682">
        <ele>177</ele>
        <time>2014-01-26T09:09:17Z</time>
      </trkpt>
      <trkpt lat="48.78529" lon="2.20688">
        <ele>185</ele>
        <time>2014-01-26T09:09:48Z</time>
      </trkpt>
      <trkpt lat="48.78527" lon="2.2069">
        <ele>186</ele>
        <time>2014-01-26T09:10:05Z</time>
      </trkpt>
      <trkpt lat="48.78523" lon="2.20686">
        <ele>186</ele>
        <time>2014-01-26T09:10:12Z</time>
      </trkpt>
      <trkpt lat="48.78519" lon="2.20678">
        <ele>186</ele>
        <time>2014-01-26T09:10:15Z</time>
      </trkpt>
      <trkpt lat="48.78516" lon="2.20671">
        <ele>184</ele>
        <time>2014-01-26T09:10:18Z</time>
      </trkpt>
      <trkpt lat="48.78513" lon="2.20665">
        <ele>182</ele>
        <time>2014-01-26T09:10:21Z</time>
      </trkpt>
      <trkpt lat="48.78514" lon="2.20658">
        <ele>181</ele>
        <time>2014-01-26T09:10:24Z</time>
      </trkpt>
      <trkpt lat="48.78511" lon="2.20658">
        <ele>181</ele>
        <time>2014-01-26T09:10:31Z</time>
      </trkpt>
      <trkpt lat="48.78511" lon="2.20663">
        <ele>181</ele>
        <time>2014-01-26T09:11:03Z</time>
      </trkpt>
      <trkpt lat="48.78514" lon="2.20664">
        <ele>180</ele>
        <time>2014-01-26T09:11:20Z</time>
      </trkpt>
      <trkpt lat="48.78518" lon="2.20668">
        <ele>180</ele>
        <time>2014-01-26T09:11:24Z</time>
      </trkpt>
      <trkpt lat="48.78523" lon="2.20669">
        <ele>186</ele>
        <time>2014-01-26T09:11:43Z</time>
      </trkpt>
      <trkpt lat="48.78527" lon="2.20673">
        <ele>187</ele>
        <time>2014-01-26T09:11:48Z</time>
      </trkpt>
      <trkpt lat="48.7853" lon="2.20678">
        <ele>189</ele>
        <time>2014-01-26T09:11:52Z</time>
      </trkpt>
      <trkpt lat="48.78535" lon="2.20682">
        <ele>191</ele>
        <time>2014-01-26T09:11:56Z</time>
      </trkpt>
      <trkpt lat="48.7854" lon="2.20688">
        <ele>191</ele>
        <time>2014-01-26T09:11:59Z</time>
      </trkpt>
      <trkpt lat="48.78544" lon="2.20694">
        <ele>192</ele>
        <time>2014-01-26T09:12:03Z</time>
      </trkpt>
      <trkpt lat="48.78548" lon="2.20699">
        <ele>192</ele>
        <time>2014-01-26T09:12:07Z</time>
      </trkpt>
      <trkpt lat="48.78552" lon="2.20705">
        <ele>192</ele>
        <time>2014-01-26T09:12:11Z</time>
      </trkpt>
      <trkpt lat="48.78557" lon="2.20708">
        <ele>191</ele>
        <time>2014-01-26T09:12:15Z</time>
      </trkpt>
      <trkpt lat="48.78562" lon="2.20711">
        <ele>192</ele>
        <time>2014-01-26T09:12:21Z</time>
      </trkpt>
      <trkpt lat="48.78567" lon="2.20713">
        <ele>191</ele>
        <time>2014-01-26T09:12:26Z</time>
      </trkpt>
      <trkpt lat="48.78572" lon="2.20713">
        <ele>191</ele>
        <time>2014-01-26T09:12:33Z</time>
      </trkpt>
      <trkpt lat="48.78576" lon="2.20717">
        <ele>191</ele>
        <time>2014-01-26T09:12:37Z</time>
      </trkpt>
      <trkpt lat="48.7858" lon="2.20722">
        <ele>191</ele>
        <time>2014-01-26T09:12:40Z</time>
      </trkpt>
      <trkpt lat="48.78583" lon="2.20727">
        <ele>192</ele>
        <time>2014-01-26T09:12:44Z</time>
      </trkpt>
      <trkpt lat="48.78587" lon="2.20732">
        <ele>193</ele>
        <time>2014-01-26T09:12:48Z</time>
      </trkpt>
      <trkpt lat="48.78592" lon="2.20732">
        <ele>194</ele>
        <time>2014-01-26T09:12:54Z</time>
      </trkpt>
      <trkpt lat="48.78597" lon="2.20734">
        <ele>196</ele>
        <time>2014-01-26T09:12:58Z</time>
      </trkpt>
      <trkpt lat="48.786" lon="2.20736">
        <ele>196</ele>
        <time>2014-01-26T09:13:06Z</time>
      </trkpt>
      <trkpt lat="48.78604" lon="2.20731">
        <ele>195</ele>
        <time>2014-01-26T09:13:25Z</time>
      </trkpt>
      <trkpt lat="48.78609" lon="2.20732">
        <ele>193</ele>
        <time>2014-01-26T09:13:30Z</time>
      </trkpt>
      <trkpt lat="48.78613" lon="2.20734">
        <ele>191</ele>
        <time>2014-01-26T09:13:35Z</time>
      </trkpt>
      <trkpt lat="48.78617" lon="2.20739">
        <ele>191</ele>
        <time>2014-01-26T09:13:40Z</time>
      </trkpt>
      <trkpt lat="48.7862" lon="2.20744">
        <ele>191</ele>
        <time>2014-01-26T09:13:43Z</time>
      </trkpt>
      <trkpt lat="48.78623" lon="2.20749">
        <ele>191</ele>
        <time>2014-01-26T09:13:47Z</time>
      </trkpt>
      <trkpt lat="48.78628" lon="2.20755">
        <ele>191</ele>
        <time>2014-01-26T09:13:53Z</time>
      </trkpt>
      <trkpt lat="48.78632" lon="2.20759">
        <ele>191</ele>
        <time>2014-01-26T09:13:59Z</time>
      </trkpt>
      <trkpt lat="48.78638" lon="2.20762">
        <ele>188</ele>
        <time>2014-01-26T09:14:03Z</time>
      </trkpt>
      <trkpt lat="48.78643" lon="2.20763">
        <ele>186</ele>
        <time>2014-01-26T09:14:06Z</time>
      </trkpt>
      <trkpt lat="48.78647" lon="2.20766">
        <ele>186</ele>
        <time>2014-01-26T09:14:09Z</time>
      </trkpt>
      <trkpt lat="48.7865" lon="2.20772">
        <ele>186</ele>
        <time>2014-01-26T09:14:15Z</time>
      </trkpt>
      <trkpt lat="48.78656" lon="2.20775">
        <ele>185</ele>
        <time>2014-01-26T09:14:25Z</time>
      </trkpt>
      <trkpt lat="48.78661" lon="2.20781">
        <ele>185</ele>
        <time>2014-01-26T09:14:28Z</time>
      </trkpt>
      <trkpt lat="48.78664" lon="2.20786">
        <ele>188</ele>
        <time>2014-01-26T09:14:33Z</time>
      </trkpt>
      <trkpt lat="48.78666" lon="2.20793">
        <ele>189</ele>
        <time>2014-01-26T09:14:41Z</time>
      </trkpt>
      <trkpt lat="48.78671" lon="2.20796">
        <ele>191</ele>
        <time>2014-01-26T09:14:45Z</time>
      </trkpt>
      <trkpt lat="48.78672" lon="2.20808">
        <ele>192</ele>
        <time>2014-01-26T09:14:46Z</time>
      </trkpt>
      <trkpt lat="48.78672" lon="2.20813">
        <ele>192</ele>
        <time>2014-01-26T09:14:48Z</time>
      </trkpt>
      <trkpt lat="48.78675" lon="2.20817">
        <ele>193</ele>
        <time>2014-01-26T09:14:50Z</time>
      </trkpt>
      <trkpt lat="48.78678" lon="2.2082">
        <ele>193</ele>
        <time>2014-01-26T09:14:52Z</time>
      </trkpt>
      <trkpt lat="48.78683" lon="2.20821">
        <ele>194</ele>
        <time>2014-01-26T09:14:55Z</time>
      </trkpt>
      <trkpt lat="48.78688" lon="2.20822">
        <ele>193</ele>
        <time>2014-01-26T09:14:59Z</time>
      </trkpt>
      <trkpt lat="48.78692" lon="2.20819">
        <ele>191</ele>
        <time>2014-01-26T09:15:06Z</time>
      </trkpt>
      <trkpt lat="48.78694" lon="2.20814">
        <ele>186</ele>
        <time>2014-01-26T09:15:17Z</time>
      </trkpt>
      <trkpt lat="48.78698" lon="2.20808">
        <ele>182</ele>
        <time>2014-01-26T09:15:26Z</time>
      </trkpt>
      <trkpt lat="48.78704" lon="2.20808">
        <ele>177</ele>
        <time>2014-01-26T09:15:30Z</time>
      </trkpt>
      <trkpt lat="48.78706" lon="2.20809">
        <ele>177</ele>
        <time>2014-01-26T09:15:37Z</time>
      </trkpt>
      <trkpt lat="48.78708" lon="2.20816">
        <ele>175</ele>
        <time>2014-01-26T09:15:45Z</time>
      </trkpt>
      <trkpt lat="48.78713" lon="2.20816">
        <ele>171</ele>
        <time>2014-01-26T09:15:57Z</time>
      </trkpt>
      <trkpt lat="48.78716" lon="2.20822">
        <ele>170</ele>
        <time>2014-01-26T09:16:02Z</time>
      </trkpt>
      <trkpt lat="48.78716" lon="2.20824">
        <ele>168</ele>
        <time>2014-01-26T09:16:22Z</time>
      </trkpt>
      <trkpt lat="48.78721" lon="2.20827">
        <ele>169</ele>
        <time>2014-01-26T09:16:30Z</time>
      </trkpt>
      <trkpt lat="48.78723" lon="2.20833">
        <ele>172</ele>
        <time>2014-01-26T09:16:34Z</time>
      </trkpt>
      <trkpt lat="48.78722" lon="2.2085">
        <ele>181</ele>
        <time>2014-01-26T09:16:39Z</time>
      </trkpt>
      <trkpt lat="48.78726" lon="2.20854">
        <ele>190</ele>
        <time>2014-01-26T09:16:52Z</time>
      </trkpt>
      <trkpt lat="48.7873" lon="2.20852">
        <ele>191</ele>
        <time>2014-01-26T09:16:56Z</time>
      </trkpt>
      <trkpt lat="48.78736" lon="2.20851">
        <ele>194</ele>
        <time>2014-01-26T09:17:00Z</time>
      </trkpt>
      <trkpt lat="48.78742" lon="2.20852">
        <ele>193</ele>
        <time>2014-01-26T09:17:04Z</time>
      </trkpt>
      <trkpt lat="48.78747" lon="2.20853">
        <ele>192</ele>
        <time>2014-01-26T09:17:06Z</time>
      </trkpt>
      <trkpt lat="48.78752" lon="2.20853">
        <ele>190</ele>
        <time>2014-01-26T09:17:09Z</time>
      </trkpt>
      <trkpt lat="48.78757" lon="2.20852">
        <ele>188</ele>
        <time>2014-01-26T09:17:11Z</time>
      </trkpt>
      <trkpt lat="48.78761" lon="2.20848">
        <ele>187</ele>
        <time>2014-01-26T09:17:13Z</time>
      </trkpt>
      <trkpt lat="48.78765" lon="2.20845">
        <ele>186</ele>
        <time>2014-01-26T09:17:16Z</time>
      </trkpt>
      <trkpt lat="48.78769" lon="2.2084">
        <ele>184</ele>
        <time>2014-01-26T09:17:20Z</time>
      </trkpt>
      <trkpt lat="48.78774" lon="2.20837">
        <ele>183</ele>
        <time>2014-01-26T09:17:24Z</time>
      </trkpt>
      <trkpt lat="48.78778" lon="2.20834">
        <ele>182</ele>
        <time>2014-01-26T09:17:27Z</time>
      </trkpt>
      <trkpt lat="48.78781" lon="2.2083">
        <ele>181</ele>
        <time>2014-01-26T09:17:30Z</time>
      </trkpt>
      <trkpt lat="48.78784" lon="2.20824">
        <ele>181</ele>
        <time>2014-01-26T09:17:35Z</time>
      </trkpt>
      <trkpt lat="48.78789" lon="2.2082">
        <ele>181</ele>
        <time>2014-01-26T09:17:42Z</time>
      </trkpt>
      <trkpt lat="48.78793" lon="2.20818">
        <ele>181</ele>
        <time>2014-01-26T09:17:47Z</time>
      </trkpt>
      <trkpt lat="48.78798" lon="2.20814">
        <ele>182</ele>
        <time>2014-01-26T09:17:52Z</time>
      </trkpt>
      <trkpt lat="48.78801" lon="2.20807">
        <ele>181</ele>
        <time>2014-01-26T09:17:56Z</time>
      </trkpt>
      <trkpt lat="48.78801" lon="2.20798">
        <ele>181</ele>
        <time>2014-01-26T09:17:59Z</time>
      </trkpt>
      <trkpt lat="48.78803" lon="2.20791">
        <ele>181</ele>
        <time>2014-01-26T09:18:01Z</time>
      </trkpt>
      <trkpt lat="48.78808" lon="2.20791">
        <ele>181</ele>
        <time>2014-01-26T09:18:05Z</time>
      </trkpt>
      <trkpt lat="48.78813" lon="2.2079">
        <ele>180</ele>
        <time>2014-01-26T09:18:10Z</time>
      </trkpt>
      <trkpt lat="48.78819" lon="2.20787">
        <ele>180</ele>
        <time>2014-01-26T09:18:12Z</time>
      </trkpt>
      <trkpt lat="48.78823" lon="2.20784">
        <ele>181</ele>
        <time>2014-01-26T09:18:15Z</time>
      </trkpt>
      <trkpt lat="48.78828" lon="2.20779">
        <ele>181</ele>
        <time>2014-01-26T09:18:19Z</time>
      </trkpt>
      <trkpt lat="48.78831" lon="2.20774">
        <ele>181</ele>
        <time>2014-01-26T09:18:21Z</time>
      </trkpt>
      <trkpt lat="48.78834" lon="2.20766">
        <ele>182</ele>
        <time>2014-01-26T09:18:25Z</time>
      </trkpt>
      <trkpt lat="48.78839" lon="2.20761">
        <ele>182</ele>
        <time>2014-01-26T09:18:28Z</time>
      </trkpt>
      <trkpt lat="48.78843" lon="2.20758">
        <ele>181</ele>
        <time>2014-01-26T09:18:32Z</time>
      </trkpt>
      <trkpt lat="48.78848" lon="2.20756">
        <ele>180</ele>
        <time>2014-01-26T09:18:37Z</time>
      </trkpt>
      <trkpt lat="48.78853" lon="2.20753">
        <ele>178</ele>
        <time>2014-01-26T09:18:41Z</time>
      </trkpt>
      <trkpt lat="48.78857" lon="2.20747">
        <ele>178</ele>
        <time>2014-01-26T09:18:46Z</time>
      </trkpt>
      <trkpt lat="48.7886" lon="2.20743">
        <ele>179</ele>
        <time>2014-01-26T09:18:49Z</time>
      </trkpt>
      <trkpt lat="48.78864" lon="2.20737">
        <ele>178</ele>
        <time>2014-01-26T09:18:53Z</time>
      </trkpt>
      <trkpt lat="48.78868" lon="2.20732">
        <ele>178</ele>
        <time>2014-01-26T09:18:58Z</time>
      </trkpt>
      <trkpt lat="48.78872" lon="2.20729">
        <ele>178</ele>
        <time>2014-01-26T09:19:02Z</time>
      </trkpt>
      <trkpt lat="48.78877" lon="2.20727">
        <ele>178</ele>
        <time>2014-01-26T09:19:05Z</time>
      </trkpt>
      <trkpt lat="48.78884" lon="2.20724">
        <ele>178</ele>
        <time>2014-01-26T09:19:08Z</time>
      </trkpt>
      <trkpt lat="48.78888" lon="2.2072">
        <ele>178</ele>
        <time>2014-01-26T09:19:09Z</time>
      </trkpt>
      <trkpt lat="48.78893" lon="2.20717">
        <ele>177</ele>
        <time>2014-01-26T09:19:13Z</time>
      </trkpt>
      <trkpt lat="48.78898" lon="2.20712">
        <ele>177</ele>
        <time>2014-01-26T09:19:17Z</time>
      </trkpt>
      <trkpt lat="48.78903" lon="2.20708">
        <ele>177</ele>
        <time>2014-01-26T09:19:21Z</time>
      </trkpt>
      <trkpt lat="48.78907" lon="2.20708">
        <ele>177</ele>
        <time>2014-01-26T09:19:23Z</time>
      </trkpt>
      <trkpt lat="48.78913" lon="2.20705">
        <ele>175</ele>
        <time>2014-01-26T09:19:26Z</time>
      </trkpt>
      <trkpt lat="48.78917" lon="2.20704">
        <ele>174</ele>
        <time>2014-01-26T09:19:33Z</time>
      </trkpt>
      <trkpt lat="48.78922" lon="2.207">
        <ele>174</ele>
        <time>2014-01-26T09:19:37Z</time>
      </trkpt>
      <trkpt lat="48.78926" lon="2.20695">
        <ele>175</ele>
        <time>2014-01-26T09:19:41Z</time>
      </trkpt>
      <trkpt lat="48.7893" lon="2.2069">
        <ele>176</ele>
        <time>2014-01-26T09:19:45Z</time>
      </trkpt>
      <trkpt lat="48.78933" lon="2.20683">
        <ele>176</ele>
        <time>2014-01-26T09:19:49Z</time>
      </trkpt>
      <trkpt lat="48.78938" lon="2.2068">
        <ele>176</ele>
        <time>2014-01-26T09:19:52Z</time>
      </trkpt>
      <trkpt lat="48.78942" lon="2.20678">
        <ele>175</ele>
        <time>2014-01-26T09:19:54Z</time>
      </trkpt>
      <trkpt lat="48.78947" lon="2.20676">
        <ele>175</ele>
        <time>2014-01-26T09:19:58Z</time>
      </trkpt>
      <trkpt lat="48.78951" lon="2.20674">
        <ele>175</ele>
        <time>2014-01-26T09:20:03Z</time>
      </trkpt>
      <trkpt lat="48.78957" lon="2.20672">
        <ele>175</ele>
        <time>2014-01-26T09:20:08Z</time>
      </trkpt>
      <trkpt lat="48.78962" lon="2.20667">
        <ele>175</ele>
        <time>2014-01-26T09:20:11Z</time>
      </trkpt>
      <trkpt lat="48.78964" lon="2.2066">
        <ele>176</ele>
        <time>2014-01-26T09:20:14Z</time>
      </trkpt>
      <trkpt lat="48.78969" lon="2.2066">
        <ele>177</ele>
        <time>2014-01-26T09:20:18Z</time>
      </trkpt>
      <trkpt lat="48.78973" lon="2.20657">
        <ele>176</ele>
        <time>2014-01-26T09:20:23Z</time>
      </trkpt>
      <trkpt lat="48.78979" lon="2.20653">
        <ele>176</ele>
        <time>2014-01-26T09:20:26Z</time>
      </trkpt>
      <trkpt lat="48.78983" lon="2.2065">
        <ele>176</ele>
        <time>2014-01-26T09:20:30Z</time>
      </trkpt>
      <trkpt lat="48.78987" lon="2.20646">
        <ele>176</ele>
        <time>2014-01-26T09:20:33Z</time>
      </trkpt>
      <trkpt lat="48.78993" lon="2.20645">
        <ele>174</ele>
        <time>2014-01-26T09:20:36Z</time>
      </trkpt>
      <trkpt lat="48.78999" lon="2.2064">
        <ele>172</ele>
        <time>2014-01-26T09:20:39Z</time>
      </trkpt>
      <trkpt lat="48.79003" lon="2.20635">
        <ele>172</ele>
        <time>2014-01-26T09:20:42Z</time>
      </trkpt>
      <trkpt lat="48.79007" lon="2.2063">
        <ele>172</ele>
        <time>2014-01-26T09:20:45Z</time>
      </trkpt>
      <trkpt lat="48.79013" lon="2.20624">
        <ele>173</ele>
        <time>2014-01-26T09:20:50Z</time>
      </trkpt>
      <trkpt lat="48.79016" lon="2.20618">
        <ele>175</ele>
        <time>2014-01-26T09:20:53Z</time>
      </trkpt>
      <trkpt lat="48.7902" lon="2.20615">
        <ele>175</ele>
        <time>2014-01-26T09:20:57Z</time>
      </trkpt>
      <trkpt lat="48.79025" lon="2.20613">
        <ele>176</ele>
        <time>2014-01-26T09:21:00Z</time>
      </trkpt>
      <trkpt lat="48.79029" lon="2.20611">
        <ele>178</ele>
        <time>2014-01-26T09:21:08Z</time>
      </trkpt>
      <trkpt lat="48.79039" lon="2.20615">
        <ele>184</ele>
        <time>2014-01-26T09:21:18Z</time>
      </trkpt>
      <trkpt lat="48.79043" lon="2.20619">
        <ele>185</ele>
        <time>2014-01-26T09:21:21Z</time>
      </trkpt>
      <trkpt lat="48.79048" lon="2.20624">
        <ele>185</ele>
        <time>2014-01-26T09:21:24Z</time>
      </trkpt>
      <trkpt lat="48.79053" lon="2.20627">
        <ele>185</ele>
        <time>2014-01-26T09:21:27Z</time>
      </trkpt>
      <trkpt lat="48.79058" lon="2.20629">
        <ele>185</ele>
        <time>2014-01-26T09:21:30Z</time>
      </trkpt>
      <trkpt lat="48.79062" lon="2.2063">
        <ele>186</ele>
        <time>2014-01-26T09:21:34Z</time>
      </trkpt>
      <trkpt lat="48.79067" lon="2.20632">
        <ele>187</ele>
        <time>2014-01-26T09:21:38Z</time>
      </trkpt>
      <trkpt lat="48.79071" lon="2.20635">
        <ele>188</ele>
        <time>2014-01-26T09:21:42Z</time>
      </trkpt>
      <trkpt lat="48.79075" lon="2.2064">
        <ele>188</ele>
        <time>2014-01-26T09:21:45Z</time>
      </trkpt>
      <trkpt lat="48.7908" lon="2.20643">
        <ele>189</ele>
        <time>2014-01-26T09:21:51Z</time>
      </trkpt>
      <trkpt lat="48.79085" lon="2.20646">
        <ele>188</ele>
        <time>2014-01-26T09:21:55Z</time>
      </trkpt>
      <trkpt lat="48.79091" lon="2.20647">
        <ele>189</ele>
        <time>2014-01-26T09:21:59Z</time>
      </trkpt>
      <trkpt lat="48.79096" lon="2.20647">
        <ele>191</ele>
        <time>2014-01-26T09:22:02Z</time>
      </trkpt>
      <trkpt lat="48.79101" lon="2.20649">
        <ele>191</ele>
        <time>2014-01-26T09:22:06Z</time>
      </trkpt>
      <trkpt lat="48.79106" lon="2.20651">
        <ele>191</ele>
        <time>2014-01-26T09:22:09Z</time>
      </trkpt>
      <trkpt lat="48.79111" lon="2.20653">
        <ele>191</ele>
        <time>2014-01-26T09:22:13Z</time>
      </trkpt>
      <trkpt lat="48.79116" lon="2.20658">
        <ele>189</ele>
        <time>2014-01-26T09:22:16Z</time>
      </trkpt>
      <trkpt lat="48.7912" lon="2.20663">
        <ele>188</ele>
        <time>2014-01-26T09:22:19Z</time>
      </trkpt>
      <trkpt lat="48.79126" lon="2.20664">
        <ele>186</ele>
        <time>2014-01-26T09:22:23Z</time>
      </trkpt>
      <trkpt lat="48.79131" lon="2.20661">
        <ele>183</ele>
        <time>2014-01-26T09:22:27Z</time>
      </trkpt>
      <trkpt lat="48.79137" lon="2.20661">
        <ele>182</ele>
        <time>2014-01-26T09:22:31Z</time>
      </trkpt>
      <trkpt lat="48.79141" lon="2.20661">
        <ele>180</ele>
        <time>2014-01-26T09:22:34Z</time>
      </trkpt>
      <trkpt lat="48.79148" lon="2.2066">
        <ele>178</ele>
        <time>2014-01-26T09:22:39Z</time>
      </trkpt>
      <trkpt lat="48.79154" lon="2.2066">
        <ele>175</ele>
        <time>2014-01-26T09:22:42Z</time>
      </trkpt>
      <trkpt lat="48.79159" lon="2.20658">
        <ele>173</ele>
        <time>2014-01-26T09:22:45Z</time>
      </trkpt>
      <trkpt lat="48.79164" lon="2.20657">
        <ele>172</ele>
        <time>2014-01-26T09:22:47Z</time>
      </trkpt>
      <trkpt lat="48.79169" lon="2.20657">
        <ele>170</ele>
        <time>2014-01-26T09:22:52Z</time>
      </trkpt>
      <trkpt lat="48.79175" lon="2.20653">
        <ele>169</ele>
        <time>2014-01-26T09:22:56Z</time>
      </trkpt>
      <trkpt lat="48.79181" lon="2.20651">
        <ele>169</ele>
        <time>2014-01-26T09:23:00Z</time>
      </trkpt>
      <trkpt lat="48.79185" lon="2.20649">
        <ele>170</ele>
        <time>2014-01-26T09:23:03Z</time>
      </trkpt>
      <trkpt lat="48.79189" lon="2.20647">
        <ele>171</ele>
        <time>2014-01-26T09:23:06Z</time>
      </trkpt>
      <trkpt lat="48.79194" lon="2.20643">
        <ele>171</ele>
        <time>2014-01-26T09:23:10Z</time>
      </trkpt>
      <trkpt lat="48.79199" lon="2.20644">
        <ele>171</ele>
        <time>2014-01-26T09:23:14Z</time>
      </trkpt>
      <trkpt lat="48.79204" lon="2.20645">
        <ele>170</ele>
        <time>2014-01-26T09:23:16Z</time>
      </trkpt>
      <trkpt lat="48.79209" lon="2.20646">
        <ele>171</ele>
        <time>2014-01-26T09:23:20Z</time>
      </trkpt>
      <trkpt lat="48.79215" lon="2.20648">
        <ele>172</ele>
        <time>2014-01-26T09:23:24Z</time>
      </trkpt>
      <trkpt lat="48.7922" lon="2.20647">
        <ele>174</ele>
        <time>2014-01-26T09:23:26Z</time>
      </trkpt>
      <trkpt lat="48.79225" lon="2.20647">
        <ele>175</ele>
        <time>2014-01-26T09:23:30Z</time>
      </trkpt>
      <trkpt lat="48.7923" lon="2.20648">
        <ele>176</ele>
        <time>2014-01-26T09:23:34Z</time>
      </trkpt>
      <trkpt lat="48.79236" lon="2.20655">
        <ele>180</ele>
        <time>2014-01-26T09:23:45Z</time>
      </trkpt>
      <trkpt lat="48.79239" lon="2.20662">
        <ele>181</ele>
        <time>2014-01-26T09:23:50Z</time>
      </trkpt>
      <trkpt lat="48.79244" lon="2.20667">
        <ele>181</ele>
        <time>2014-01-26T09:23:54Z</time>
      </trkpt>
      <trkpt lat="48.79249" lon="2.2067">
        <ele>180</ele>
        <time>2014-01-26T09:23:58Z</time>
      </trkpt>
      <trkpt lat="48.79252" lon="2.20675">
        <ele>178</ele>
        <time>2014-01-26T09:24:02Z</time>
      </trkpt>
      <trkpt lat="48.79255" lon="2.20684">
        <ele>176</ele>
        <time>2014-01-26T09:24:06Z</time>
      </trkpt>
      <trkpt lat="48.79256" lon="2.20691">
        <ele>175</ele>
        <time>2014-01-26T09:24:09Z</time>
      </trkpt>
      <trkpt lat="48.79258" lon="2.20698">
        <ele>174</ele>
        <time>2014-01-26T09:24:14Z</time>
      </trkpt>
      <trkpt lat="48.79256" lon="2.20705">
        <ele>173</ele>
        <time>2014-01-26T09:24:18Z</time>
      </trkpt>
      <trkpt lat="48.79255" lon="2.20712">
        <ele>173</ele>
        <time>2014-01-26T09:24:20Z</time>
      </trkpt>
      <trkpt lat="48.79253" lon="2.20719">
        <ele>172</ele>
        <time>2014-01-26T09:24:25Z</time>
      </trkpt>
      <trkpt lat="48.79251" lon="2.20728">
        <ele>171</ele>
        <time>2014-01-26T09:24:28Z</time>
      </trkpt>
      <trkpt lat="48.79248" lon="2.20735">
        <ele>170</ele>
        <time>2014-01-26T09:24:32Z</time>
      </trkpt>
      <trkpt lat="48.79247" lon="2.20742">
        <ele>168</ele>
        <time>2014-01-26T09:24:35Z</time>
      </trkpt>
      <trkpt lat="48.79246" lon="2.20749">
        <ele>167</ele>
        <time>2014-01-26T09:24:40Z</time>
      </trkpt>
      <trkpt lat="48.79244" lon="2.20756">
        <ele>166</ele>
        <time>2014-01-26T09:24:43Z</time>
      </trkpt>
      <trkpt lat="48.79242" lon="2.20763">
        <ele>166</ele>
        <time>2014-01-26T09:24:44Z</time>
      </trkpt>
      <trkpt lat="48.79241" lon="2.2077">
        <ele>166</ele>
        <time>2014-01-26T09:24:48Z</time>
      </trkpt>
      <trkpt lat="48.79236" lon="2.20772">
        <ele>167</ele>
        <time>2014-01-26T09:24:55Z</time>
      </trkpt>
      <trkpt lat="48.79233" lon="2.20779">
        <ele>168</ele>
        <time>2014-01-26T09:25:00Z</time>
      </trkpt>
      <trkpt lat="48.79232" lon="2.20789">
        <ele>168</ele>
        <time>2014-01-26T09:25:03Z</time>
      </trkpt>
      <trkpt lat="48.7923" lon="2.20796">
        <ele>167</ele>
        <time>2014-01-26T09:25:05Z</time>
      </trkpt>
      <trkpt lat="48.79228" lon="2.20803">
        <ele>167</ele>
        <time>2014-01-26T09:25:08Z</time>
      </trkpt>
      <trkpt lat="48.79228" lon="2.2081">
        <ele>166</ele>
        <time>2014-01-26T09:25:10Z</time>
      </trkpt>
      <trkpt lat="48.79226" lon="2.20818">
        <ele>166</ele>
        <time>2014-01-26T09:25:16Z</time>
      </trkpt>
      <trkpt lat="48.79226" lon="2.20825">
        <ele>167</ele>
        <time>2014-01-26T09:25:21Z</time>
      </trkpt>
      <trkpt lat="48.79229" lon="2.20833">
        <ele>168</ele>
        <time>2014-01-26T09:25:26Z</time>
      </trkpt>
      <trkpt lat="48.79231" lon="2.20839">
        <ele>168</ele>
        <time>2014-01-26T09:25:28Z</time>
      </trkpt>
      <trkpt lat="48.79235" lon="2.20843">
        <ele>169</ele>
        <time>2014-01-26T09:25:34Z</time>
      </trkpt>
      <trkpt lat="48.79239" lon="2.20847">
        <ele>170</ele>
        <time>2014-01-26T09:25:38Z</time>
      </trkpt>
      <trkpt lat="48.79241" lon="2.20853">
        <ele>171</ele>
        <time>2014-01-26T09:25:41Z</time>
      </trkpt>
      <trkpt lat="48.79246" lon="2.20858">
        <ele>172</ele>
        <time>2014-01-26T09:25:46Z</time>
      </trkpt>
      <trkpt lat="48.79249" lon="2.20864">
        <ele>172</ele>
        <time>2014-01-26T09:25:50Z</time>
      </trkpt>
      <trkpt lat="48.7925" lon="2.20871">
        <ele>172</ele>
        <time>2014-01-26T09:25:53Z</time>
      </trkpt>
      <trkpt lat="48.79253" lon="2.20878">
        <ele>173</ele>
        <time>2014-01-26T09:25:57Z</time>
      </trkpt>
      <trkpt lat="48.79256" lon="2.20884">
        <ele>173</ele>
        <time>2014-01-26T09:25:58Z</time>
      </trkpt>
      <trkpt lat="48.79262" lon="2.20888">
        <ele>173</ele>
        <time>2014-01-26T09:26:02Z</time>
      </trkpt>
      <trkpt lat="48.79268" lon="2.20889">
        <ele>173</ele>
        <time>2014-01-26T09:26:05Z</time>
      </trkpt>
      <trkpt lat="48.79272" lon="2.20892">
        <ele>173</ele>
        <time>2014-01-26T09:26:09Z</time>
      </trkpt>
      <trkpt lat="48.79276" lon="2.20896">
        <ele>173</ele>
        <time>2014-01-26T09:26:16Z</time>
      </trkpt>
      <trkpt lat="48.79281" lon="2.209">
        <ele>174</ele>
        <time>2014-01-26T09:26:22Z</time>
      </trkpt>
      <trkpt lat="48.79287" lon="2.20902">
        <ele>175</ele>
        <time>2014-01-26T09:26:26Z</time>
      </trkpt>
      <trkpt lat="48.79291" lon="2.20905">
        <ele>176</ele>
        <time>2014-01-26T09:26:29Z</time>
      </trkpt>
      <trkpt lat="48.79292" lon="2.20912">
        <ele>177</ele>
        <time>2014-01-26T09:26:35Z</time>
      </trkpt>
      <trkpt lat="48.79298" lon="2.20917">
        <ele>179</ele>
        <time>2014-01-26T09:26:42Z</time>
      </trkpt>
      <trkpt lat="48.79302" lon="2.20922">
        <ele>179</ele>
        <time>2014-01-26T09:26:44Z</time>
      </trkpt>
      <trkpt lat="48.79305" lon="2.20927">
        <ele>180</ele>
        <time>2014-01-26T09:26:50Z</time>
      </trkpt>
      <trkpt lat="48.79309" lon="2.20931">
        <ele>180</ele>
        <time>2014-01-26T09:26:54Z</time>
      </trkpt>
      <trkpt lat="48.7931" lon="2.20939">
        <ele>183</ele>
        <time>2014-01-26T09:26:57Z</time>
      </trkpt>
      <trkpt lat="48.79312" lon="2.20948">
        <ele>185</ele>
        <time>2014-01-26T09:26:59Z</time>
      </trkpt>
      <trkpt lat="48.79315" lon="2.20953">
        <ele>186</ele>
        <time>2014-01-26T09:27:03Z</time>
      </trkpt>
      <trkpt lat="48.79321" lon="2.20955">
        <ele>186</ele>
        <time>2014-01-26T09:27:09Z</time>
      </trkpt>
      <trkpt lat="48.79326" lon="2.20959">
        <ele>186</ele>
        <time>2014-01-26T09:27:11Z</time>
      </trkpt>
      <trkpt lat="48.79329" lon="2.20965">
        <ele>188</ele>
        <time>2014-01-26T09:27:16Z</time>
      </trkpt>
      <trkpt lat="48.79333" lon="2.2097">
        <ele>189</ele>
        <time>2014-01-26T09:27:22Z</time>
      </trkpt>
      <trkpt lat="48.79338" lon="2.20974">
        <ele>190</ele>
        <time>2014-01-26T09:27:26Z</time>
      </trkpt>
      <trkpt lat="48.79342" lon="2.20978">
        <ele>191</ele>
        <time>2014-01-26T09:27:30Z</time>
      </trkpt>
      <trkpt lat="48.79346" lon="2.20982">
        <ele>190</ele>
        <time>2014-01-26T09:27:32Z</time>
      </trkpt>
      <trkpt lat="48.79351" lon="2.20984">
        <ele>188</ele>
        <time>2014-01-26T09:27:34Z</time>
      </trkpt>
      <trkpt lat="48.79356" lon="2.20983">
        <ele>187</ele>
        <time>2014-01-26T09:27:36Z</time>
      </trkpt>
      <trkpt lat="48.79362" lon="2.20979">
        <ele>184</ele>
        <time>2014-01-26T09:27:39Z</time>
      </trkpt>
      <trkpt lat="48.79367" lon="2.20974">
        <ele>181</ele>
        <time>2014-01-26T09:27:42Z</time>
      </trkpt>
      <trkpt lat="48.79373" lon="2.20977">
        <ele>180</ele>
        <time>2014-01-26T09:27:46Z</time>
      </trkpt>
      <trkpt lat="48.79377" lon="2.20981">
        <ele>179</ele>
        <time>2014-01-26T09:27:48Z</time>
      </trkpt>
      <trkpt lat="48.79381" lon="2.20976">
        <ele>177</ele>
        <time>2014-01-26T09:27:58Z</time>
      </trkpt>
      <trkpt lat="48.79385" lon="2.20968">
        <ele>176</ele>
        <time>2014-01-26T09:28:00Z</time>
      </trkpt>
      <trkpt lat="48.79389" lon="2.20961">
        <ele>175</ele>
        <time>2014-01-26T09:28:02Z</time>
      </trkpt>
      <trkpt lat="48.79394" lon="2.20954">
        <ele>175</ele>
        <time>2014-01-26T09:28:04Z</time>
      </trkpt>
      <trkpt lat="48.79396" lon="2.20947">
        <ele>174</ele>
        <time>2014-01-26T09:28:07Z</time>
      </trkpt>
      <trkpt lat="48.794" lon="2.20943">
        <ele>173</ele>
        <time>2014-01-26T09:28:11Z</time>
      </trkpt>
      <trkpt lat="48.79402" lon="2.20934">
        <ele>171</ele>
        <time>2014-01-26T09:28:16Z</time>
      </trkpt>
      <trkpt lat="48.79402" lon="2.20927">
        <ele>170</ele>
        <time>2014-01-26T09:28:18Z</time>
      </trkpt>
      <trkpt lat="48.79403" lon="2.2092">
        <ele>170</ele>
        <time>2014-01-26T09:28:20Z</time>
      </trkpt>
      <trkpt lat="48.79407" lon="2.20913">
        <ele>169</ele>
        <time>2014-01-26T09:28:23Z</time>
      </trkpt>
      <trkpt lat="48.79409" lon="2.20909">
        <ele>169</ele>
        <time>2014-01-26T09:28:25Z</time>
      </trkpt>
      <trkpt lat="48.79412" lon="2.20903">
        <ele>168</ele>
        <time>2014-01-26T09:28:28Z</time>
      </trkpt>
      <trkpt lat="48.79414" lon="2.20896">
        <ele>168</ele>
        <time>2014-01-26T09:28:31Z</time>
      </trkpt>
      <trkpt lat="48.79415" lon="2.20886">
        <ele>167</ele>
        <time>2014-01-26T09:28:33Z</time>
      </trkpt>
      <trkpt lat="48.79417" lon="2.20879">
        <ele>166</ele>
        <time>2014-01-26T09:28:37Z</time>
      </trkpt>
      <trkpt lat="48.79417" lon="2.20871">
        <ele>165</ele>
        <time>2014-01-26T09:28:42Z</time>
      </trkpt>
      <trkpt lat="48.79419" lon="2.20868">
        <ele>164</ele>
        <time>2014-01-26T09:28:49Z</time>
      </trkpt>
      <trkpt lat="48.79414" lon="2.20866">
        <ele>163</ele>
        <time>2014-01-26T09:28:53Z</time>
      </trkpt>
      <trkpt lat="48.79417" lon="2.20859">
        <ele>163</ele>
        <time>2014-01-26T09:28:58Z</time>
      </trkpt>
      <trkpt lat="48.79422" lon="2.20857">
        <ele>163</ele>
        <time>2014-01-26T09:29:00Z</time>
      </trkpt>
      <trkpt lat="48.79426" lon="2.20853">
        <ele>162</ele>
        <time>2014-01-26T09:29:02Z</time>
      </trkpt>
      <trkpt lat="48.79432" lon="2.2085">
        <ele>162</ele>
        <time>2014-01-26T09:29:05Z</time>
      </trkpt>
      <trkpt lat="48.79437" lon="2.20848">
        <ele>162</ele>
        <time>2014-01-26T09:29:08Z</time>
      </trkpt>
      <trkpt lat="48.79441" lon="2.20852">
        <ele>162</ele>
        <time>2014-01-26T09:29:15Z</time>
      </trkpt>
      <trkpt lat="48.79446" lon="2.20857">
        <ele>161</ele>
        <time>2014-01-26T09:29:25Z</time>
      </trkpt>
      <trkpt lat="48.79451" lon="2.20859">
        <ele>160</ele>
        <time>2014-01-26T09:29:28Z</time>
      </trkpt>
      <trkpt lat="48.79453" lon="2.20859">
        <ele>161</ele>
        <time>2014-01-26T09:29:38Z</time>
      </trkpt>
      <trkpt lat="48.79457" lon="2.2085">
        <ele>164</ele>
        <time>2014-01-26T09:29:45Z</time>
      </trkpt>
      <trkpt lat="48.79455" lon="2.20843">
        <ele>165</ele>
        <time>2014-01-26T09:29:47Z</time>
      </trkpt>
      <trkpt lat="48.79456" lon="2.20837">
        <ele>159</ele>
        <time>2014-01-26T09:30:43Z</time>
      </trkpt>
      <trkpt lat="48.7946" lon="2.20833">
        <ele>159</ele>
        <time>2014-01-26T09:30:49Z</time>
      </trkpt>
      <trkpt lat="48.79466" lon="2.2083">
        <ele>161</ele>
        <time>2014-01-26T09:30:56Z</time>
      </trkpt>
      <trkpt lat="48.79463" lon="2.20827">
        <ele>162</ele>
        <time>2014-01-26T09:31:28Z</time>
      </trkpt>
      <trkpt lat="48.79459" lon="2.20831">
        <ele>162</ele>
        <time>2014-01-26T09:31:32Z</time>
      </trkpt>
      <trkpt lat="48.79456" lon="2.20831">
        <ele>174</ele>
        <time>2014-01-26T09:32:00Z</time>
      </trkpt>
      <trkpt lat="48.79453" lon="2.20825">
        <ele>175</ele>
        <time>2014-01-26T09:32:03Z</time>
      </trkpt>
      <trkpt lat="48.79453" lon="2.2083">
        <ele>178</ele>
        <time>2014-01-26T09:32:38Z</time>
      </trkpt>
      <trkpt lat="48.79453" lon="2.20834">
        <ele>178</ele>
        <time>2014-01-26T09:32:45Z</time>
      </trkpt>
      <trkpt lat="48.79449" lon="2.20838">
        <ele>178</ele>
        <time>2014-01-26T09:32:46Z</time>
      </trkpt>
      <trkpt lat="48.79445" lon="2.20837">
        <ele>179</ele>
        <time>2014-01-26T09:33:10Z</time>
      </trkpt>
      <trkpt lat="48.7944" lon="2.20833">
        <ele>178</ele>
        <time>2014-01-26T09:33:25Z</time>
      </trkpt>
      <trkpt lat="48.79438" lon="2.20838">
        <ele>178</ele>
        <time>2014-01-26T09:34:11Z</time>
      </trkpt>
      <trkpt lat="48.79436" lon="2.20843">
        <ele>178</ele>
        <time>2014-01-26T09:34:22Z</time>
      </trkpt>
      <trkpt lat="48.79438" lon="2.2085">
        <ele>177</ele>
        <time>2014-01-26T09:34:26Z</time>
      </trkpt>
      <trkpt lat="48.79441" lon="2.20858">
        <ele>176</ele>
        <time>2014-01-26T09:34:29Z</time>
      </trkpt>
      <trkpt lat="48.79444" lon="2.20864">
        <ele>175</ele>
        <time>2014-01-26T09:34:34Z</time>
      </trkpt>
      <trkpt lat="48.79446" lon="2.2087">
        <ele>170</ele>
        <time>2014-01-26T09:34:51Z</time>
      </trkpt>
      <trkpt lat="48.79451" lon="2.20866">
        <ele>168</ele>
        <time>2014-01-26T09:35:04Z</time>
      </trkpt>
      <trkpt lat="48.7945" lon="2.20863">
        <ele>168</ele>
        <time>2014-01-26T09:35:10Z</time>
      </trkpt>
      <trkpt lat="48.79456" lon="2.20865">
        <ele>169</ele>
        <time>2014-01-26T09:35:23Z</time>
      </trkpt>
      <trkpt lat="48.79453" lon="2.20866">
        <ele>170</ele>
        <time>2014-01-26T09:35:40Z</time>
      </trkpt>
      <trkpt lat="48.79452" lon="2.20867">
        <ele>171</ele>
        <time>2014-01-26T09:35:58Z</time>
      </trkpt>
      <trkpt lat="48.79449" lon="2.20861">
        <ele>169</ele>
        <time>2014-01-26T09:36:07Z</time>
      </trkpt>
      <trkpt lat="48.79446" lon="2.20861">
        <ele>168</ele>
        <time>2014-01-26T09:36:14Z</time>
      </trkpt>
      <trkpt lat="48.79441" lon="2.20863">
        <ele>166</ele>
        <time>2014-01-26T09:36:22Z</time>
      </trkpt>
      <trkpt lat="48.79441" lon="2.20871">
        <ele>167</ele>
        <time>2014-01-26T09:36:45Z</time>
      </trkpt>
      <trkpt lat="48.7944" lon="2.20879">
        <ele>168</ele>
        <time>2014-01-26T09:36:51Z</time>
      </trkpt>
      <trkpt lat="48.79445" lon="2.20879">
        <ele>169</ele>
        <time>2014-01-26T09:37:07Z</time>
      </trkpt>
      <trkpt lat="48.79446" lon="2.20887">
        <ele>170</ele>
        <time>2014-01-26T09:37:27Z</time>
      </trkpt>
      <trkpt lat="48.79444" lon="2.20884">
        <ele>175</ele>
        <time>2014-01-26T09:37:40Z</time>
      </trkpt>
      <trkpt lat="48.7944" lon="2.20884">
        <ele>176</ele>
        <time>2014-01-26T09:38:25Z</time>
      </trkpt>
      <trkpt lat="48.7944" lon="2.2088">
        <ele>177</ele>
        <time>2014-01-26T09:38:37Z</time>
      </trkpt>
      <trkpt lat="48.79439" lon="2.20873">
        <ele>180</ele>
        <time>2014-01-26T09:39:29Z</time>
      </trkpt>
      <trkpt lat="48.79445" lon="2.20867">
        <ele>181</ele>
        <time>2014-01-26T09:39:31Z</time>
      </trkpt>
      <trkpt lat="48.7945" lon="2.20862">
        <ele>180</ele>
        <time>2014-01-26T09:39:34Z</time>
      </trkpt>
      <trkpt lat="48.79453" lon="2.20855">
        <ele>179</ele>
        <time>2014-01-26T09:39:36Z</time>
      </trkpt>
      <trkpt lat="48.79457" lon="2.20857">
        <ele>178</ele>
        <time>2014-01-26T09:39:49Z</time>
      </trkpt>
      <trkpt lat="48.79456" lon="2.20862">
        <ele>181</ele>
        <time>2014-01-26T09:39:58Z</time>
      </trkpt>
      <trkpt lat="48.79457" lon="2.20871">
        <ele>183</ele>
        <time>2014-01-26T09:40:05Z</time>
      </trkpt>
      <trkpt lat="48.7946" lon="2.20878">
        <ele>184</ele>
        <time>2014-01-26T09:40:08Z</time>
      </trkpt>
      <trkpt lat="48.79464" lon="2.20884">
        <ele>185</ele>
        <time>2014-01-26T09:40:12Z</time>
      </trkpt>
      <trkpt lat="48.79467" lon="2.20891">
        <ele>184</ele>
        <time>2014-01-26T09:40:16Z</time>
      </trkpt>
      <trkpt lat="48.7947" lon="2.20897">
        <ele>184</ele>
        <time>2014-01-26T09:40:21Z</time>
      </trkpt>
      <trkpt lat="48.79473" lon="2.20903">
        <ele>186</ele>
        <time>2014-01-26T09:40:27Z</time>
      </trkpt>
      <trkpt lat="48.79478" lon="2.20909">
        <ele>186</ele>
        <time>2014-01-26T09:40:32Z</time>
      </trkpt>
      <trkpt lat="48.79481" lon="2.20913">
        <ele>186</ele>
        <time>2014-01-26T09:40:34Z</time>
      </trkpt>
      <trkpt lat="48.79486" lon="2.20917">
        <ele>186</ele>
        <time>2014-01-26T09:40:36Z</time>
      </trkpt>
      <trkpt lat="48.79492" lon="2.2092">
        <ele>185</ele>
        <time>2014-01-26T09:40:37Z</time>
      </trkpt>
      <trkpt lat="48.79497" lon="2.20921">
        <ele>184</ele>
        <time>2014-01-26T09:40:40Z</time>
      </trkpt>
      <trkpt lat="48.79502" lon="2.20922">
        <ele>183</ele>
        <time>2014-01-26T09:40:44Z</time>
      </trkpt>
      <trkpt lat="48.79505" lon="2.2092">
        <ele>181</ele>
        <time>2014-01-26T09:40:51Z</time>
      </trkpt>
      <trkpt lat="48.79509" lon="2.20914">
        <ele>181</ele>
        <time>2014-01-26T09:40:55Z</time>
      </trkpt>
      <trkpt lat="48.79512" lon="2.20908">
        <ele>181</ele>
        <time>2014-01-26T09:41:01Z</time>
      </trkpt>
      <trkpt lat="48.79518" lon="2.20906">
        <ele>180</ele>
        <time>2014-01-26T09:41:03Z</time>
      </trkpt>
      <trkpt lat="48.79524" lon="2.20907">
        <ele>180</ele>
        <time>2014-01-26T09:41:07Z</time>
      </trkpt>
      <trkpt lat="48.79529" lon="2.20904">
        <ele>179</ele>
        <time>2014-01-26T09:41:12Z</time>
      </trkpt>
      <trkpt lat="48.79534" lon="2.20902">
        <ele>177</ele>
        <time>2014-01-26T09:41:15Z</time>
      </trkpt>
      <trkpt lat="48.79539" lon="2.20901">
        <ele>176</ele>
        <time>2014-01-26T09:41:17Z</time>
      </trkpt>
      <trkpt lat="48.79545" lon="2.20899">
        <ele>176</ele>
        <time>2014-01-26T09:41:21Z</time>
      </trkpt>
      <trkpt lat="48.79548" lon="2.20893">
        <ele>177</ele>
        <time>2014-01-26T09:41:27Z</time>
      </trkpt>
      <trkpt lat="48.79553" lon="2.2089">
        <ele>179</ele>
        <time>2014-01-26T09:41:31Z</time>
      </trkpt>
      <trkpt lat="48.79558" lon="2.20887">
        <ele>180</ele>
        <time>2014-01-26T09:41:34Z</time>
      </trkpt>
      <trkpt lat="48.79563" lon="2.20885">
        <ele>181</ele>
        <time>2014-01-26T09:41:37Z</time>
      </trkpt>
      <trkpt lat="48.79567" lon="2.20881">
        <ele>182</ele>
        <time>2014-01-26T09:41:44Z</time>
      </trkpt>
      <trkpt lat="48.79574" lon="2.20881">
        <ele>182</ele>
        <time>2014-01-26T09:41:48Z</time>
      </trkpt>
      <trkpt lat="48.79579" lon="2.20881">
        <ele>182</ele>
        <time>2014-01-26T09:41:50Z</time>
      </trkpt>
      <trkpt lat="48.7959" lon="2.20867">
        <ele>190</ele>
        <time>2014-01-26T09:42:05Z</time>
      </trkpt>
      <trkpt lat="48.79595" lon="2.20866">
        <ele>190</ele>
        <time>2014-01-26T09:42:07Z</time>
      </trkpt>
      <trkpt lat="48.79601" lon="2.20866">
        <ele>191</ele>
        <time>2014-01-26T09:42:09Z</time>
      </trkpt>
      <trkpt lat="48.79606" lon="2.20865">
        <ele>191</ele>
        <time>2014-01-26T09:42:11Z</time>
      </trkpt>
      <trkpt lat="48.79611" lon="2.20861">
        <ele>191</ele>
        <time>2014-01-26T09:42:12Z</time>
      </trkpt>
      <trkpt lat="48.79615" lon="2.20857">
        <ele>191</ele>
        <time>2014-01-26T09:42:15Z</time>
      </trkpt>
      <trkpt lat="48.79619" lon="2.20851">
        <ele>191</ele>
        <time>2014-01-26T09:42:19Z</time>
      </trkpt>
      <trkpt lat="48.79624" lon="2.20849">
        <ele>192</ele>
        <time>2014-01-26T09:42:26Z</time>
      </trkpt>
      <trkpt lat="48.79629" lon="2.20846">
        <ele>192</ele>
        <time>2014-01-26T09:42:30Z</time>
      </trkpt>
      <trkpt lat="48.79634" lon="2.20845">
        <ele>192</ele>
        <time>2014-01-26T09:42:32Z</time>
      </trkpt>
      <trkpt lat="48.7964" lon="2.20843">
        <ele>191</ele>
        <time>2014-01-26T09:42:35Z</time>
      </trkpt>
      <trkpt lat="48.79644" lon="2.20838">
        <ele>190</ele>
        <time>2014-01-26T09:42:37Z</time>
      </trkpt>
      <trkpt lat="48.79647" lon="2.20833">
        <ele>189</ele>
        <time>2014-01-26T09:42:41Z</time>
      </trkpt>
      <trkpt lat="48.7965" lon="2.20826">
        <ele>188</ele>
        <time>2014-01-26T09:42:46Z</time>
      </trkpt>
      <trkpt lat="48.7965" lon="2.20819">
        <ele>189</ele>
        <time>2014-01-26T09:42:48Z</time>
      </trkpt>
      <trkpt lat="48.79653" lon="2.20811">
        <ele>189</ele>
        <time>2014-01-26T09:42:51Z</time>
      </trkpt>
      <trkpt lat="48.79658" lon="2.20811">
        <ele>188</ele>
        <time>2014-01-26T09:42:53Z</time>
      </trkpt>
      <trkpt lat="48.79663" lon="2.2081">
        <ele>188</ele>
        <time>2014-01-26T09:42:56Z</time>
      </trkpt>
      <trkpt lat="48.79668" lon="2.20808">
        <ele>188</ele>
        <time>2014-01-26T09:42:57Z</time>
      </trkpt>
      <trkpt lat="48.79674" lon="2.20809">
        <ele>187</ele>
        <time>2014-01-26T09:43:01Z</time>
      </trkpt>
      <trkpt lat="48.79679" lon="2.20809">
        <ele>187</ele>
        <time>2014-01-26T09:43:06Z</time>
      </trkpt>
      <trkpt lat="48.79684" lon="2.20809">
        <ele>186</ele>
        <time>2014-01-26T09:43:12Z</time>
      </trkpt>
      <trkpt lat="48.79689" lon="2.20808">
        <ele>185</ele>
        <time>2014-01-26T09:43:15Z</time>
      </trkpt>
      <trkpt lat="48.79694" lon="2.20807">
        <ele>185</ele>
        <time>2014-01-26T09:43:17Z</time>
      </trkpt>
      <trkpt lat="48.79699" lon="2.20804">
        <ele>185</ele>
        <time>2014-01-26T09:43:21Z</time>
      </trkpt>
      <trkpt lat="48.79702" lon="2.208">
        <ele>184</ele>
        <time>2014-01-26T09:43:26Z</time>
      </trkpt>
      <trkpt lat="48.79707" lon="2.20799">
        <ele>183</ele>
        <time>2014-01-26T09:43:29Z</time>
      </trkpt>
      <trkpt lat="48.79711" lon="2.20795">
        <ele>182</ele>
        <time>2014-01-26T09:43:33Z</time>
      </trkpt>
      <trkpt lat="48.79714" lon="2.20799">
        <ele>182</ele>
        <time>2014-01-26T09:43:41Z</time>
      </trkpt>
      <trkpt lat="48.7972" lon="2.20802">
        <ele>183</ele>
        <time>2014-01-26T09:43:50Z</time>
      </trkpt>
      <trkpt lat="48.79725" lon="2.20806">
        <ele>184</ele>
        <time>2014-01-26T09:43:54Z</time>
      </trkpt>
      <trkpt lat="48.79728" lon="2.20812">
        <ele>185</ele>
        <time>2014-01-26T09:43:57Z</time>
      </trkpt>
      <trkpt lat="48.79731" lon="2.20817">
        <ele>186</ele>
        <time>2014-01-26T09:44:01Z</time>
      </trkpt>
      <trkpt lat="48.79737" lon="2.20819">
        <ele>185</ele>
        <time>2014-01-26T09:44:04Z</time>
      </trkpt>
      <trkpt lat="48.79742" lon="2.20819">
        <ele>185</ele>
        <time>2014-01-26T09:44:06Z</time>
      </trkpt>
      <trkpt lat="48.7974" lon="2.20826">
        <ele>184</ele>
        <time>2014-01-26T09:44:16Z</time>
      </trkpt>
      <trkpt lat="48.79743" lon="2.20831">
        <ele>181</ele>
        <time>2014-01-26T09:44:18Z</time>
      </trkpt>
      <trkpt lat="48.79748" lon="2.20837">
        <ele>179</ele>
        <time>2014-01-26T09:44:21Z</time>
      </trkpt>
      <trkpt lat="48.79752" lon="2.20844">
        <ele>178</ele>
        <time>2014-01-26T09:44:24Z</time>
      </trkpt>
      <trkpt lat="48.79756" lon="2.20854">
        <ele>178</ele>
        <time>2014-01-26T09:44:25Z</time>
      </trkpt>
      <trkpt lat="48.79757" lon="2.20863">
        <ele>178</ele>
        <time>2014-01-26T09:44:28Z</time>
      </trkpt>
      <trkpt lat="48.79759" lon="2.20872">
        <ele>177</ele>
        <time>2014-01-26T09:44:30Z</time>
      </trkpt>
      <trkpt lat="48.79762" lon="2.2088">
        <ele>177</ele>
        <time>2014-01-26T09:44:31Z</time>
      </trkpt>
      <trkpt lat="48.79764" lon="2.20887">
        <ele>177</ele>
        <time>2014-01-26T09:44:34Z</time>
      </trkpt>
      <trkpt lat="48.79764" lon="2.20895">
        <ele>177</ele>
        <time>2014-01-26T09:44:40Z</time>
      </trkpt>
      <trkpt lat="48.79764" lon="2.20902">
        <ele>178</ele>
        <time>2014-01-26T09:44:44Z</time>
      </trkpt>
      <trkpt lat="48.79766" lon="2.20909">
        <ele>177</ele>
        <time>2014-01-26T09:44:50Z</time>
      </trkpt>
      <trkpt lat="48.79768" lon="2.20917">
        <ele>177</ele>
        <time>2014-01-26T09:44:53Z</time>
      </trkpt>
      <trkpt lat="48.79769" lon="2.20925">
        <ele>177</ele>
        <time>2014-01-26T09:44:55Z</time>
      </trkpt>
      <trkpt lat="48.79771" lon="2.20931">
        <ele>177</ele>
        <time>2014-01-26T09:44:58Z</time>
      </trkpt>
      <trkpt lat="48.79775" lon="2.20936">
        <ele>179</ele>
        <time>2014-01-26T09:45:02Z</time>
      </trkpt>
      <trkpt lat="48.79777" lon="2.20942">
        <ele>180</ele>
        <time>2014-01-26T09:45:07Z</time>
      </trkpt>
      <trkpt lat="48.79778" lon="2.2095">
        <ele>181</ele>
        <time>2014-01-26T09:45:10Z</time>
      </trkpt>
      <trkpt lat="48.7978" lon="2.20957">
        <ele>182</ele>
        <time>2014-01-26T09:45:16Z</time>
      </trkpt>
      <trkpt lat="48.79784" lon="2.20963">
        <ele>184</ele>
        <time>2014-01-26T09:45:22Z</time>
      </trkpt>
      <trkpt lat="48.79785" lon="2.20971">
        <ele>188</ele>
        <time>2014-01-26T09:45:31Z</time>
      </trkpt>
      <trkpt lat="48.79786" lon="2.20978">
        <ele>188</ele>
        <time>2014-01-26T09:45:33Z</time>
      </trkpt>
      <trkpt lat="48.79789" lon="2.20987">
        <ele>189</ele>
        <time>2014-01-26T09:45:36Z</time>
      </trkpt>
      <trkpt lat="48.79791" lon="2.20995">
        <ele>190</ele>
        <time>2014-01-26T09:45:40Z</time>
      </trkpt>
      <trkpt lat="48.79793" lon="2.21002">
        <ele>190</ele>
        <time>2014-01-26T09:45:44Z</time>
      </trkpt>
      <trkpt lat="48.79796" lon="2.21008">
        <ele>189</ele>
        <time>2014-01-26T09:45:49Z</time>
      </trkpt>
      <trkpt lat="48.79799" lon="2.21015">
        <ele>189</ele>
        <time>2014-01-26T09:45:52Z</time>
      </trkpt>
      <trkpt lat="48.79801" lon="2.21024">
        <ele>189</ele>
        <time>2014-01-26T09:45:55Z</time>
      </trkpt>
      <trkpt lat="48.79802" lon="2.21031">
        <ele>189</ele>
        <time>2014-01-26T09:45:59Z</time>
      </trkpt>
      <trkpt lat="48.79804" lon="2.21039">
        <ele>189</ele>
        <time>2014-01-26T09:46:03Z</time>
      </trkpt>
      <trkpt lat="48.79806" lon="2.21047">
        <ele>189</ele>
        <time>2014-01-26T09:46:06Z</time>
      </trkpt>
      <trkpt lat="48.79807" lon="2.21054">
        <ele>189</ele>
        <time>2014-01-26T09:46:08Z</time>
      </trkpt>
      <trkpt lat="48.79808" lon="2.21061">
        <ele>190</ele>
        <time>2014-01-26T09:46:10Z</time>
      </trkpt>
      <trkpt lat="48.79811" lon="2.21067">
        <ele>191</ele>
        <time>2014-01-26T09:46:16Z</time>
      </trkpt>
      <trkpt lat="48.79815" lon="2.21071">
        <ele>191</ele>
        <time>2014-01-26T09:46:19Z</time>
      </trkpt>
      <trkpt lat="48.79816" lon="2.21079">
        <ele>191</ele>
        <time>2014-01-26T09:46:23Z</time>
      </trkpt>
      <trkpt lat="48.79814" lon="2.21088">
        <ele>190</ele>
        <time>2014-01-26T09:46:32Z</time>
      </trkpt>
      <trkpt lat="48.79812" lon="2.21095">
        <ele>188</ele>
        <time>2014-01-26T09:46:34Z</time>
      </trkpt>
      <trkpt lat="48.79815" lon="2.211">
        <ele>182</ele>
        <time>2014-01-26T09:46:50Z</time>
      </trkpt>
      <trkpt lat="48.79817" lon="2.21108">
        <ele>180</ele>
        <time>2014-01-26T09:46:56Z</time>
      </trkpt>
      <trkpt lat="48.7982" lon="2.21113">
        <ele>179</ele>
        <time>2014-01-26T09:46:59Z</time>
      </trkpt>
      <trkpt lat="48.79822" lon="2.21102">
        <ele>177</ele>
        <time>2014-01-26T09:47:08Z</time>
      </trkpt>
      <trkpt lat="48.79827" lon="2.21088">
        <ele>170</ele>
        <time>2014-01-26T09:47:16Z</time>
      </trkpt>
      <trkpt lat="48.79825" lon="2.21081">
        <ele>169</ele>
        <time>2014-01-26T09:47:20Z</time>
      </trkpt>
      <trkpt lat="48.79819" lon="2.21086">
        <ele>168</ele>
        <time>2014-01-26T09:47:23Z</time>
      </trkpt>
      <trkpt lat="48.79818" lon="2.21096">
        <ele>168</ele>
        <time>2014-01-26T09:47:26Z</time>
      </trkpt>
      <trkpt lat="48.79817" lon="2.21102">
        <ele>166</ele>
        <time>2014-01-26T09:47:45Z</time>
      </trkpt>
      <trkpt lat="48.79821" lon="2.21105">
        <ele>164</ele>
        <time>2014-01-26T09:47:50Z</time>
      </trkpt>
      <trkpt lat="48.79826" lon="2.21104">
        <ele>163</ele>
        <time>2014-01-26T09:47:55Z</time>
      </trkpt>
      <trkpt lat="48.79831" lon="2.211">
        <ele>161</ele>
        <time>2014-01-26T09:48:02Z</time>
      </trkpt>
      <trkpt lat="48.79834" lon="2.21092">
        <ele>160</ele>
        <time>2014-01-26T09:48:05Z</time>
      </trkpt>
      <trkpt lat="48.79837" lon="2.21086">
        <ele>158</ele>
        <time>2014-01-26T09:48:10Z</time>
      </trkpt>
      <trkpt lat="48.79842" lon="2.21084">
        <ele>158</ele>
        <time>2014-01-26T09:48:15Z</time>
      </trkpt>
      <trkpt lat="48.79846" lon="2.21085">
        <ele>158</ele>
        <time>2014-01-26T09:48:21Z</time>
      </trkpt>
      <trkpt lat="48.79851" lon="2.21081">
        <ele>158</ele>
        <time>2014-01-26T09:48:27Z</time>
      </trkpt>
      <trkpt lat="48.79857" lon="2.21079">
        <ele>159</ele>
        <time>2014-01-26T09:48:31Z</time>
      </trkpt>
      <trkpt lat="48.79861" lon="2.21077">
        <ele>159</ele>
        <time>2014-01-26T09:48:34Z</time>
      </trkpt>
      <trkpt lat="48.79865" lon="2.21074">
        <ele>159</ele>
        <time>2014-01-26T09:48:38Z</time>
      </trkpt>
      <trkpt lat="48.79869" lon="2.21071">
        <ele>159</ele>
        <time>2014-01-26T09:48:42Z</time>
      </trkpt>
      <trkpt lat="48.79874" lon="2.2107">
        <ele>160</ele>
        <time>2014-01-26T09:48:46Z</time>
      </trkpt>
      <trkpt lat="48.79879" lon="2.21066">
        <ele>160</ele>
        <time>2014-01-26T09:48:50Z</time>
      </trkpt>
      <trkpt lat="48.79883" lon="2.21061">
        <ele>161</ele>
        <time>2014-01-26T09:48:53Z</time>
      </trkpt>
      <trkpt lat="48.79887" lon="2.21058">
        <ele>161</ele>
        <time>2014-01-26T09:48:57Z</time>
      </trkpt>
      <trkpt lat="48.79892" lon="2.21054">
        <ele>162</ele>
        <time>2014-01-26T09:49:01Z</time>
      </trkpt>
      <trkpt lat="48.79896" lon="2.21048">
        <ele>162</ele>
        <time>2014-01-26T09:49:05Z</time>
      </trkpt>
      <trkpt lat="48.799" lon="2.21044">
        <ele>162</ele>
        <time>2014-01-26T09:49:10Z</time>
      </trkpt>
      <trkpt lat="48.79913" lon="2.21032">
        <ele>169</ele>
        <time>2014-01-26T09:49:22Z</time>
      </trkpt>
      <trkpt lat="48.79916" lon="2.21028">
        <ele>169</ele>
        <time>2014-01-26T09:49:27Z</time>
      </trkpt>
      <trkpt lat="48.79921" lon="2.2103">
        <ele>169</ele>
        <time>2014-01-26T09:49:32Z</time>
      </trkpt>
      <trkpt lat="48.79926" lon="2.21031">
        <ele>167</ele>
        <time>2014-01-26T09:49:35Z</time>
      </trkpt>
      <trkpt lat="48.7993" lon="2.21027">
        <ele>166</ele>
        <time>2014-01-26T09:49:38Z</time>
      </trkpt>
      <trkpt lat="48.79934" lon="2.21022">
        <ele>166</ele>
        <time>2014-01-26T09:49:40Z</time>
      </trkpt>
      <trkpt lat="48.79938" lon="2.21018">
        <ele>165</ele>
        <time>2014-01-26T09:49:44Z</time>
      </trkpt>
      <trkpt lat="48.79942" lon="2.21013">
        <ele>165</ele>
        <time>2014-01-26T09:49:45Z</time>
      </trkpt>
      <trkpt lat="48.79946" lon="2.21009">
        <ele>166</ele>
        <time>2014-01-26T09:49:51Z</time>
      </trkpt>
      <trkpt lat="48.7995" lon="2.21005">
        <ele>167</ele>
        <time>2014-01-26T09:49:54Z</time>
      </trkpt>
      <trkpt lat="48.79954" lon="2.20999">
        <ele>168</ele>
        <time>2014-01-26T09:49:59Z</time>
      </trkpt>
      <trkpt lat="48.79959" lon="2.20993">
        <ele>169</ele>
        <time>2014-01-26T09:50:02Z</time>
      </trkpt>
      <trkpt lat="48.79962" lon="2.20988">
        <ele>169</ele>
        <time>2014-01-26T09:50:04Z</time>
      </trkpt>
      <trkpt lat="48.79966" lon="2.20982">
        <ele>168</ele>
        <time>2014-01-26T09:50:08Z</time>
      </trkpt>
      <trkpt lat="48.79971" lon="2.20978">
        <ele>169</ele>
        <time>2014-01-26T09:50:11Z</time>
      </trkpt>
      <trkpt lat="48.79976" lon="2.20979">
        <ele>170</ele>
        <time>2014-01-26T09:50:16Z</time>
      </trkpt>
      <trkpt lat="48.79982" lon="2.20975">
        <ele>170</ele>
        <time>2014-01-26T09:50:20Z</time>
      </trkpt>
      <trkpt lat="48.79986" lon="2.20971">
        <ele>171</ele>
        <time>2014-01-26T09:50:24Z</time>
      </trkpt>
      <trkpt lat="48.7999" lon="2.20967">
        <ele>173</ele>
        <time>2014-01-26T09:50:30Z</time>
      </trkpt>
      <trkpt lat="48.79995" lon="2.20963">
        <ele>173</ele>
        <time>2014-01-26T09:50:36Z</time>
      </trkpt>
      <trkpt lat="48.8" lon="2.20959">
        <ele>174</ele>
        <time>2014-01-26T09:50:40Z</time>
      </trkpt>
      <trkpt lat="48.80005" lon="2.20956">
        <ele>174</ele>
        <time>2014-01-26T09:50:46Z</time>
      </trkpt>
      <trkpt lat="48.80008" lon="2.2095">
        <ele>175</ele>
        <time>2014-01-26T09:50:49Z</time>
      </trkpt>
      <trkpt lat="48.80012" lon="2.20944">
        <ele>175</ele>
        <time>2014-01-26T09:50:53Z</time>
      </trkpt>
      <trkpt lat="48.80017" lon="2.20941">
        <ele>175</ele>
        <time>2014-01-26T09:50:56Z</time>
      </trkpt>
      <trkpt lat="48.80022" lon="2.20943">
        <ele>175</ele>
        <time>2014-01-26T09:51:01Z</time>
      </trkpt>
      <trkpt lat="48.80026" lon="2.2094">
        <ele>175</ele>
        <time>2014-01-26T09:51:04Z</time>
      </trkpt>
      <trkpt lat="48.8003" lon="2.20936">
        <ele>174</ele>
        <time>2014-01-26T09:51:06Z</time>
      </trkpt>
      <trkpt lat="48.80035" lon="2.2093">
        <ele>174</ele>
        <time>2014-01-26T09:51:09Z</time>
      </trkpt>
      <trkpt lat="48.8004" lon="2.20927">
        <ele>173</ele>
        <time>2014-01-26T09:51:12Z</time>
      </trkpt>
      <trkpt lat="48.80044" lon="2.20923">
        <ele>173</ele>
        <time>2014-01-26T09:51:15Z</time>
      </trkpt>
      <trkpt lat="48.80048" lon="2.20918">
        <ele>171</ele>
        <time>2014-01-26T09:51:20Z</time>
      </trkpt>
      <trkpt lat="48.80051" lon="2.20914">
        <ele>170</ele>
        <time>2014-01-26T09:51:25Z</time>
      </trkpt>
      <trkpt lat="48.80054" lon="2.20909">
        <ele>167</ele>
        <time>2014-01-26T09:51:35Z</time>
      </trkpt>
      <trkpt lat="48.80061" lon="2.20906">
        <ele>164</ele>
        <time>2014-01-26T09:51:45Z</time>
      </trkpt>
      <trkpt lat="48.80065" lon="2.20906">
        <ele>162</ele>
        <time>2014-01-26T09:51:52Z</time>
      </trkpt>
      <trkpt lat="48.80067" lon="2.20907">
        <ele>161</ele>
        <time>2014-01-26T09:51:58Z</time>
      </trkpt>
      <trkpt lat="48.8007" lon="2.20916">
        <ele>161</ele>
        <time>2014-01-26T09:52:01Z</time>
      </trkpt>
      <trkpt lat="48.80073" lon="2.20921">
        <ele>161</ele>
        <time>2014-01-26T09:52:03Z</time>
      </trkpt>
      <trkpt lat="48.80078" lon="2.20924">
        <ele>160</ele>
        <time>2014-01-26T09:52:06Z</time>
      </trkpt>
      <trkpt lat="48.80083" lon="2.2092">
        <ele>161</ele>
        <time>2014-01-26T09:52:10Z</time>
      </trkpt>
      <trkpt lat="48.80086" lon="2.20915">
        <ele>163</ele>
        <time>2014-01-26T09:52:14Z</time>
      </trkpt>
      <trkpt lat="48.8009" lon="2.20912">
        <ele>164</ele>
        <time>2014-01-26T09:52:18Z</time>
      </trkpt>
      <trkpt lat="48.80095" lon="2.2091">
        <ele>163</ele>
        <time>2014-01-26T09:52:21Z</time>
      </trkpt>
      <trkpt lat="48.801" lon="2.2091">
        <ele>163</ele>
        <time>2014-01-26T09:52:23Z</time>
      </trkpt>
      <trkpt lat="48.80105" lon="2.20911">
        <ele>162</ele>
        <time>2014-01-26T09:52:29Z</time>
      </trkpt>
      <trkpt lat="48.80111" lon="2.20908">
        <ele>164</ele>
        <time>2014-01-26T09:52:35Z</time>
      </trkpt>
      <trkpt lat="48.80116" lon="2.20906">
        <ele>165</ele>
        <time>2014-01-26T09:52:38Z</time>
      </trkpt>
      <trkpt lat="48.80121" lon="2.20907">
        <ele>167</ele>
        <time>2014-01-26T09:52:43Z</time>
      </trkpt>
      <trkpt lat="48.80126" lon="2.20909">
        <ele>169</ele>
        <time>2014-01-26T09:52:48Z</time>
      </trkpt>
      <trkpt lat="48.80131" lon="2.20909">
        <ele>170</ele>
        <time>2014-01-26T09:52:52Z</time>
      </trkpt>
      <trkpt lat="48.80136" lon="2.20913">
        <ele>170</ele>
        <time>2014-01-26T09:52:57Z</time>
      </trkpt>
      <trkpt lat="48.8014" lon="2.20915">
        <ele>171</ele>
        <time>2014-01-26T09:53:01Z</time>
      </trkpt>
      <trkpt lat="48.80144" lon="2.20919">
        <ele>171</ele>
        <time>2014-01-26T09:53:06Z</time>
      </trkpt>
      <trkpt lat="48.8015" lon="2.20919">
        <ele>170</ele>
        <time>2014-01-26T09:53:09Z</time>
      </trkpt>
      <trkpt lat="48.80155" lon="2.2092">
        <ele>170</ele>
        <time>2014-01-26T09:53:13Z</time>
      </trkpt>
      <trkpt lat="48.8016" lon="2.20923">
        <ele>171</ele>
        <time>2014-01-26T09:53:17Z</time>
      </trkpt>
      <trkpt lat="48.80165" lon="2.20927">
        <ele>171</ele>
        <time>2014-01-26T09:53:20Z</time>
      </trkpt>
      <trkpt lat="48.8017" lon="2.20929">
        <ele>172</ele>
        <time>2014-01-26T09:53:23Z</time>
      </trkpt>
      <trkpt lat="48.80175" lon="2.20931">
        <ele>172</ele>
        <time>2014-01-26T09:53:26Z</time>
      </trkpt>
      <trkpt lat="48.8018" lon="2.20931">
        <ele>170</ele>
        <time>2014-01-26T09:53:28Z</time>
      </trkpt>
      <trkpt lat="48.80186" lon="2.20932">
        <ele>170</ele>
        <time>2014-01-26T09:53:32Z</time>
      </trkpt>
      <trkpt lat="48.8019" lon="2.20936">
        <ele>170</ele>
        <time>2014-01-26T09:53:37Z</time>
      </trkpt>
      <trkpt lat="48.80196" lon="2.20937">
        <ele>171</ele>
        <time>2014-01-26T09:53:42Z</time>
      </trkpt>
      <trkpt lat="48.802" lon="2.20939">
        <ele>173</ele>
        <time>2014-01-26T09:53:46Z</time>
      </trkpt>
      <trkpt lat="48.80205" lon="2.20941">
        <ele>174</ele>
        <time>2014-01-26T09:53:50Z</time>
      </trkpt>
      <trkpt lat="48.8021" lon="2.20941">
        <ele>175</ele>
        <time>2014-01-26T09:53:54Z</time>
      </trkpt>
      <trkpt lat="48.80214" lon="2.20947">
        <ele>177</ele>
        <time>2014-01-26T09:54:01Z</time>
      </trkpt>
      <trkpt lat="48.80217" lon="2.20952">
        <ele>178</ele>
        <time>2014-01-26T09:54:05Z</time>
      </trkpt>
      <trkpt lat="48.80221" lon="2.20957">
        <ele>179</ele>
        <time>2014-01-26T09:54:08Z</time>
      </trkpt>
      <trkpt lat="48.80225" lon="2.20961">
        <ele>180</ele>
        <time>2014-01-26T09:54:09Z</time>
      </trkpt>
      <trkpt lat="48.8023" lon="2.20963">
        <ele>181</ele>
        <time>2014-01-26T09:54:14Z</time>
      </trkpt>
      <trkpt lat="48.80235" lon="2.20963">
        <ele>181</ele>
        <time>2014-01-26T09:54:19Z</time>
      </trkpt>
      <trkpt lat="48.8024" lon="2.20962">
        <ele>182</ele>
        <time>2014-01-26T09:54:21Z</time>
      </trkpt>
      <trkpt lat="48.80245" lon="2.20961">
        <ele>182</ele>
        <time>2014-01-26T09:54:25Z</time>
      </trkpt>
      <trkpt lat="48.8025" lon="2.20958">
        <ele>183</ele>
        <time>2014-01-26T09:54:28Z</time>
      </trkpt>
      <trkpt lat="48.80255" lon="2.20958">
        <ele>184</ele>
        <time>2014-01-26T09:54:32Z</time>
      </trkpt>
      <trkpt lat="48.80261" lon="2.20959">
        <ele>185</ele>
        <time>2014-01-26T09:54:36Z</time>
      </trkpt>
      <trkpt lat="48.80266" lon="2.2096">
        <ele>185</ele>
        <time>2014-01-26T09:54:39Z</time>
      </trkpt>
      <trkpt lat="48.80271" lon="2.20964">
        <ele>184</ele>
        <time>2014-01-26T09:54:42Z</time>
      </trkpt>
      <trkpt lat="48.80276" lon="2.20967">
        <ele>184</ele>
        <time>2014-01-26T09:54:45Z</time>
      </trkpt>
      <trkpt lat="48.80282" lon="2.20967">
        <ele>183</ele>
        <time>2014-01-26T09:54:48Z</time>
      </trkpt>
      <trkpt lat="48.80287" lon="2.20966">
        <ele>184</ele>
        <time>2014-01-26T09:54:52Z</time>
      </trkpt>
      <trkpt lat="48.80293" lon="2.20966">
        <ele>186</ele>
        <time>2014-01-26T09:54:56Z</time>
      </trkpt>
      <trkpt lat="48.80298" lon="2.20968">
        <ele>186</ele>
        <time>2014-01-26T09:54:59Z</time>
      </trkpt>
      <trkpt lat="48.80302" lon="2.20972">
        <ele>186</ele>
        <time>2014-01-26T09:55:02Z</time>
      </trkpt>
      <trkpt lat="48.80306" lon="2.20978">
        <ele>187</ele>
        <time>2014-01-26T09:55:06Z</time>
      </trkpt>
      <trkpt lat="48.80307" lon="2.20986">
        <ele>187</ele>
        <time>2014-01-26T09:55:10Z</time>
      </trkpt>
      <trkpt lat="48.80312" lon="2.20985">
        <ele>187</ele>
        <time>2014-01-26T09:55:13Z</time>
      </trkpt>
      <trkpt lat="48.80317" lon="2.20983">
        <ele>188</ele>
        <time>2014-01-26T09:55:16Z</time>
      </trkpt>
      <trkpt lat="48.80322" lon="2.20982">
        <ele>188</ele>
        <time>2014-01-26T09:55:21Z</time>
      </trkpt>
      <trkpt lat="48.80327" lon="2.20983">
        <ele>189</ele>
        <time>2014-01-26T09:55:25Z</time>
      </trkpt>
      <trkpt lat="48.80332" lon="2.20986">
        <ele>189</ele>
        <time>2014-01-26T09:55:28Z</time>
      </trkpt>
      <trkpt lat="48.80337" lon="2.20988">
        <ele>189</ele>
        <time>2014-01-26T09:55:31Z</time>
      </trkpt>
      <trkpt lat="48.80341" lon="2.2099">
        <ele>189</ele>
        <time>2014-01-26T09:55:33Z</time>
      </trkpt>
      <trkpt lat="48.80346" lon="2.20991">
        <ele>188</ele>
        <time>2014-01-26T09:55:36Z</time>
      </trkpt>
      <trkpt lat="48.80371" lon="2.2098">
        <ele>168</ele>
        <time>2014-01-26T09:56:01Z</time>
      </trkpt>
      <trkpt lat="48.80375" lon="2.20975">
        <ele>164</ele>
        <time>2014-01-26T09:56:08Z</time>
      </trkpt>
      <trkpt lat="48.80371" lon="2.20968">
        <ele>163</ele>
        <time>2014-01-26T09:56:15Z</time>
      </trkpt>
      <trkpt lat="48.80368" lon="2.20972">
        <ele>161</ele>
        <time>2014-01-26T09:56:24Z</time>
      </trkpt>
      <trkpt lat="48.80369" lon="2.20979">
        <ele>160</ele>
        <time>2014-01-26T09:56:25Z</time>
      </trkpt>
      <trkpt lat="48.80373" lon="2.20975">
        <ele>158</ele>
        <time>2014-01-26T09:56:45Z</time>
      </trkpt>
      <trkpt lat="48.80377" lon="2.20973">
        <ele>158</ele>
        <time>2014-01-26T09:56:50Z</time>
      </trkpt>
      <trkpt lat="48.80382" lon="2.20971">
        <ele>159</ele>
        <time>2014-01-26T09:56:54Z</time>
      </trkpt>
      <trkpt lat="48.80397" lon="2.20968">
        <ele>167</ele>
        <time>2014-01-26T09:57:04Z</time>
      </trkpt>
      <trkpt lat="48.80402" lon="2.20965">
        <ele>167</ele>
        <time>2014-01-26T09:57:07Z</time>
      </trkpt>
      <trkpt lat="48.80406" lon="2.20961">
        <ele>169</ele>
        <time>2014-01-26T09:57:08Z</time>
      </trkpt>
      <trkpt lat="48.80412" lon="2.20958">
        <ele>170</ele>
        <time>2014-01-26T09:57:12Z</time>
      </trkpt>
      <trkpt lat="48.80416" lon="2.20957">
        <ele>171</ele>
        <time>2014-01-26T09:57:15Z</time>
      </trkpt>
      <trkpt lat="48.80423" lon="2.20956">
        <ele>170</ele>
        <time>2014-01-26T09:57:18Z</time>
      </trkpt>
      <trkpt lat="48.80427" lon="2.20953">
        <ele>171</ele>
        <time>2014-01-26T09:57:22Z</time>
      </trkpt>
      <trkpt lat="48.80432" lon="2.2095">
        <ele>174</ele>
        <time>2014-01-26T09:57:28Z</time>
      </trkpt>
      <trkpt lat="48.80437" lon="2.20947">
        <ele>174</ele>
        <time>2014-01-26T09:57:33Z</time>
      </trkpt>
      <trkpt lat="48.80442" lon="2.20943">
        <ele>176</ele>
        <time>2014-01-26T09:57:41Z</time>
      </trkpt>
      <trkpt lat="48.80446" lon="2.20941">
        <ele>175</ele>
        <time>2014-01-26T09:57:43Z</time>
      </trkpt>
      <trkpt lat="48.8045" lon="2.20937">
        <ele>174</ele>
        <time>2014-01-26T09:57:49Z</time>
      </trkpt>
      <trkpt lat="48.80454" lon="2.20932">
        <ele>174</ele>
        <time>2014-01-26T09:57:53Z</time>
      </trkpt>
      <trkpt lat="48.80459" lon="2.2093">
        <ele>174</ele>
        <time>2014-01-26T09:57:57Z</time>
      </trkpt>
      <trkpt lat="48.80468" lon="2.20928">
        <ele>180</ele>
        <time>2014-01-26T09:58:07Z</time>
      </trkpt>
      <trkpt lat="48.80473" lon="2.20927">
        <ele>180</ele>
        <time>2014-01-26T09:58:10Z</time>
      </trkpt>
      <trkpt lat="48.80478" lon="2.20926">
        <ele>178</ele>
        <time>2014-01-26T09:58:13Z</time>
      </trkpt>
      <trkpt lat="48.80483" lon="2.20922">
        <ele>178</ele>
        <time>2014-01-26T09:58:16Z</time>
      </trkpt>
      <trkpt lat="48.80488" lon="2.20918">
        <ele>177</ele>
        <time>2014-01-26T09:58:19Z</time>
      </trkpt>
      <trkpt lat="48.80492" lon="2.20915">
        <ele>177</ele>
        <time>2014-01-26T09:58:22Z</time>
      </trkpt>
      <trkpt lat="48.80496" lon="2.20913">
        <ele>175</ele>
        <time>2014-01-26T09:58:26Z</time>
      </trkpt>
      <trkpt lat="48.80501" lon="2.2091">
        <ele>176</ele>
        <time>2014-01-26T09:58:31Z</time>
      </trkpt>
      <trkpt lat="48.80505" lon="2.20907">
        <ele>178</ele>
        <time>2014-01-26T09:58:35Z</time>
      </trkpt>
      <trkpt lat="48.8051" lon="2.20905">
        <ele>179</ele>
        <time>2014-01-26T09:58:39Z</time>
      </trkpt>
      <trkpt lat="48.80514" lon="2.20901">
        <ele>179</ele>
        <time>2014-01-26T09:58:42Z</time>
      </trkpt>
      <trkpt lat="48.80518" lon="2.20898">
        <ele>178</ele>
        <time>2014-01-26T09:58:46Z</time>
      </trkpt>
      <trkpt lat="48.80523" lon="2.20896">
        <ele>179</ele>
        <time>2014-01-26T09:58:50Z</time>
      </trkpt>
      <trkpt lat="48.80527" lon="2.20892">
        <ele>179</ele>
        <time>2014-01-26T09:58:53Z</time>
      </trkpt>
      <trkpt lat="48.80532" lon="2.20888">
        <ele>180</ele>
        <time>2014-01-26T09:58:57Z</time>
      </trkpt>
      <trkpt lat="48.80536" lon="2.20886">
        <ele>183</ele>
        <time>2014-01-26T09:59:02Z</time>
      </trkpt>
      <trkpt lat="48.80542" lon="2.20884">
        <ele>185</ele>
        <time>2014-01-26T09:59:06Z</time>
      </trkpt>
      <trkpt lat="48.80546" lon="2.20882">
        <ele>186</ele>
        <time>2014-01-26T09:59:10Z</time>
      </trkpt>
      <trkpt lat="48.80551" lon="2.20881">
        <ele>187</ele>
        <time>2014-01-26T09:59:14Z</time>
      </trkpt>
      <trkpt lat="48.80556" lon="2.20882">
        <ele>188</ele>
        <time>2014-01-26T09:59:18Z</time>
      </trkpt>
      <trkpt lat="48.80561" lon="2.2088">
        <ele>189</ele>
        <time>2014-01-26T09:59:20Z</time>
      </trkpt>
      <trkpt lat="48.80566" lon="2.20876">
        <ele>189</ele>
        <time>2014-01-26T09:59:23Z</time>
      </trkpt>
      <trkpt lat="48.8057" lon="2.20873">
        <ele>189</ele>
        <time>2014-01-26T09:59:25Z</time>
      </trkpt>
      <trkpt lat="48.80576" lon="2.20872">
        <ele>190</ele>
        <time>2014-01-26T09:59:30Z</time>
      </trkpt>
      <trkpt lat="48.8058" lon="2.20868">
        <ele>189</ele>
        <time>2014-01-26T09:59:35Z</time>
      </trkpt>
      <trkpt lat="48.80584" lon="2.20864">
        <ele>186</ele>
        <time>2014-01-26T09:59:39Z</time>
      </trkpt>
      <trkpt lat="48.80589" lon="2.20863">
        <ele>184</ele>
        <time>2014-01-26T09:59:44Z</time>
      </trkpt>
      <trkpt lat="48.80594" lon="2.20865">
        <ele>184</ele>
        <time>2014-01-26T09:59:49Z</time>
      </trkpt>
      <trkpt lat="48.80599" lon="2.20864">
        <ele>184</ele>
        <time>2014-01-26T09:59:54Z</time>
      </trkpt>
      <trkpt lat="48.80603" lon="2.20861">
        <ele>183</ele>
        <time>2014-01-26T09:59:58Z</time>
      </trkpt>
      <trkpt lat="48.80609" lon="2.20861">
        <ele>184</ele>
        <time>2014-01-26T10:00:05Z</time>
      </trkpt>
      <trkpt lat="48.80614" lon="2.20856">
        <ele>183</ele>
        <time>2014-01-26T10:00:09Z</time>
      </trkpt>
      <trkpt lat="48.80618" lon="2.20851">
        <ele>183</ele>
        <time>2014-01-26T10:00:12Z</time>
      </trkpt>
      <trkpt lat="48.80622" lon="2.20846">
        <ele>182</ele>
        <time>2014-01-26T10:00:15Z</time>
      </trkpt>
      <trkpt lat="48.8062" lon="2.20839">
        <ele>181</ele>
        <time>2014-01-26T10:00:20Z</time>
      </trkpt>
      <trkpt lat="48.80614" lon="2.20835">
        <ele>181</ele>
        <time>2014-01-26T10:00:23Z</time>
      </trkpt>
      <trkpt lat="48.80609" lon="2.20833">
        <ele>180</ele>
        <time>2014-01-26T10:00:26Z</time>
      </trkpt>
      <trkpt lat="48.80607" lon="2.20838">
        <ele>172</ele>
        <time>2014-01-26T10:00:56Z</time>
      </trkpt>
      <trkpt lat="48.80601" lon="2.20835">
        <ele>173</ele>
        <time>2014-01-26T10:01:07Z</time>
      </trkpt>
      <trkpt lat="48.80597" lon="2.20835">
        <ele>174</ele>
        <time>2014-01-26T10:01:12Z</time>
      </trkpt>
      <trkpt lat="48.80592" lon="2.20837">
        <ele>175</ele>
        <time>2014-01-26T10:01:15Z</time>
      </trkpt>
      <trkpt lat="48.80592" lon="2.20844">
        <ele>178</ele>
        <time>2014-01-26T10:01:25Z</time>
      </trkpt>
      <trkpt lat="48.80597" lon="2.20842">
        <ele>178</ele>
        <time>2014-01-26T10:01:29Z</time>
      </trkpt>
      <trkpt lat="48.80601" lon="2.20838">
        <ele>178</ele>
        <time>2014-01-26T10:01:32Z</time>
      </trkpt>
      <trkpt lat="48.80604" lon="2.20832">
        <ele>178</ele>
        <time>2014-01-26T10:01:34Z</time>
      </trkpt>
      <trkpt lat="48.80606" lon="2.20826">
        <ele>179</ele>
        <time>2014-01-26T10:01:36Z</time>
      </trkpt>
      <trkpt lat="48.80603" lon="2.20812">
        <ele>179</ele>
        <time>2014-01-26T10:01:41Z</time>
      </trkpt>
      <trkpt lat="48.80598" lon="2.20817">
        <ele>176</ele>
        <time>2014-01-26T10:01:46Z</time>
      </trkpt>
      <trkpt lat="48.806" lon="2.20824">
        <ele>174</ele>
        <time>2014-01-26T10:01:53Z</time>
      </trkpt>
      <trkpt lat="48.80604" lon="2.20823">
        <ele>168</ele>
        <time>2014-01-26T10:02:17Z</time>
      </trkpt>
      <trkpt lat="48.80606" lon="2.20816">
        <ele>168</ele>
        <time>2014-01-26T10:02:24Z</time>
      </trkpt>
      <trkpt lat="48.80607" lon="2.2081">
        <ele>168</ele>
        <time>2014-01-26T10:02:33Z</time>
      </trkpt>
      <trkpt lat="48.80607" lon="2.20803">
        <ele>169</ele>
        <time>2014-01-26T10:02:39Z</time>
      </trkpt>
      <trkpt lat="48.80608" lon="2.20794">
        <ele>170</ele>
        <time>2014-01-26T10:02:45Z</time>
      </trkpt>
      <trkpt lat="48.80611" lon="2.20788">
        <ele>171</ele>
        <time>2014-01-26T10:02:47Z</time>
      </trkpt>
      <trkpt lat="48.80614" lon="2.2078">
        <ele>171</ele>
        <time>2014-01-26T10:02:50Z</time>
      </trkpt>
      <trkpt lat="48.80614" lon="2.20773">
        <ele>171</ele>
        <time>2014-01-26T10:02:54Z</time>
      </trkpt>
      <trkpt lat="48.80611" lon="2.20768">
        <ele>170</ele>
        <time>2014-01-26T10:02:59Z</time>
      </trkpt>
      <trkpt lat="48.80606" lon="2.20765">
        <ele>170</ele>
        <time>2014-01-26T10:03:03Z</time>
      </trkpt>
      <trkpt lat="48.80603" lon="2.20759">
        <ele>169</ele>
        <time>2014-01-26T10:03:06Z</time>
      </trkpt>
      <trkpt lat="48.80604" lon="2.20751">
        <ele>168</ele>
        <time>2014-01-26T10:03:12Z</time>
      </trkpt>
      <trkpt lat="48.80603" lon="2.20744">
        <ele>168</ele>
        <time>2014-01-26T10:03:16Z</time>
      </trkpt>
      <trkpt lat="48.80603" lon="2.20737">
        <ele>167</ele>
        <time>2014-01-26T10:03:19Z</time>
      </trkpt>
      <trkpt lat="48.80603" lon="2.20729">
        <ele>166</ele>
        <time>2014-01-26T10:03:28Z</time>
      </trkpt>
      <trkpt lat="48.80607" lon="2.20732">
        <ele>166</ele>
        <time>2014-01-26T10:03:35Z</time>
      </trkpt>
      <trkpt lat="48.80612" lon="2.20727">
        <ele>167</ele>
        <time>2014-01-26T10:03:38Z</time>
      </trkpt>
      <trkpt lat="48.80615" lon="2.20721">
        <ele>168</ele>
        <time>2014-01-26T10:03:41Z</time>
      </trkpt>
      <trkpt lat="48.80618" lon="2.20713">
        <ele>168</ele>
        <time>2014-01-26T10:03:44Z</time>
      </trkpt>
      <trkpt lat="48.8062" lon="2.20704">
        <ele>169</ele>
        <time>2014-01-26T10:03:47Z</time>
      </trkpt>
      <trkpt lat="48.80622" lon="2.20698">
        <ele>170</ele>
        <time>2014-01-26T10:03:49Z</time>
      </trkpt>
      <trkpt lat="48.80623" lon="2.20691">
        <ele>170</ele>
        <time>2014-01-26T10:03:51Z</time>
      </trkpt>
      <trkpt lat="48.80622" lon="2.20683">
        <ele>171</ele>
        <time>2014-01-26T10:03:55Z</time>
      </trkpt>
      <trkpt lat="48.80624" lon="2.20675">
        <ele>172</ele>
        <time>2014-01-26T10:03:58Z</time>
      </trkpt>
      <trkpt lat="48.80623" lon="2.20668">
        <ele>175</ele>
        <time>2014-01-26T10:04:06Z</time>
      </trkpt>
      <trkpt lat="48.80625" lon="2.2066">
        <ele>176</ele>
        <time>2014-01-26T10:04:10Z</time>
      </trkpt>
      <trkpt lat="48.80625" lon="2.20652">
        <ele>178</ele>
        <time>2014-01-26T10:04:15Z</time>
      </trkpt>
      <trkpt lat="48.80625" lon="2.20643">
        <ele>178</ele>
        <time>2014-01-26T10:04:18Z</time>
      </trkpt>
      <trkpt lat="48.80626" lon="2.20636">
        <ele>178</ele>
        <time>2014-01-26T10:04:22Z</time>
      </trkpt>
      <trkpt lat="48.80627" lon="2.20628">
        <ele>177</ele>
        <time>2014-01-26T10:04:28Z</time>
      </trkpt>
      <trkpt lat="48.80624" lon="2.20622">
        <ele>177</ele>
        <time>2014-01-26T10:04:32Z</time>
      </trkpt>
      <trkpt lat="48.80621" lon="2.20616">
        <ele>175</ele>
        <time>2014-01-26T10:04:38Z</time>
      </trkpt>
      <trkpt lat="48.80621" lon="2.20608">
        <ele>175</ele>
        <time>2014-01-26T10:04:43Z</time>
      </trkpt>
      <trkpt lat="48.80624" lon="2.206">
        <ele>173</ele>
        <time>2014-01-26T10:04:47Z</time>
      </trkpt>
      <trkpt lat="48.80625" lon="2.20593">
        <ele>173</ele>
        <time>2014-01-26T10:04:52Z</time>
      </trkpt>
      <trkpt lat="48.80631" lon="2.20558">
        <ele>161</ele>
        <time>2014-01-26T10:05:13Z</time>
      </trkpt>
      <trkpt lat="48.8063" lon="2.20555">
        <ele>160</ele>
        <time>2014-01-26T10:05:19Z</time>
      </trkpt>
      <trkpt lat="48.80629" lon="2.20548">
        <ele>158</ele>
        <time>2014-01-26T10:05:30Z</time>
      </trkpt>
      <trkpt lat="48.8063" lon="2.20542">
        <ele>157</ele>
        <time>2014-01-26T10:05:33Z</time>
      </trkpt>
      <trkpt lat="48.80633" lon="2.20534">
        <ele>156</ele>
        <time>2014-01-26T10:05:36Z</time>
      </trkpt>
      <trkpt lat="48.8063" lon="2.20537">
        <ele>162</ele>
        <time>2014-01-26T10:06:01Z</time>
      </trkpt>
      <trkpt lat="48.8063" lon="2.2054">
        <ele>165</ele>
        <time>2014-01-26T10:06:32Z</time>
      </trkpt>
      <trkpt lat="48.80635" lon="2.20537">
        <ele>165</ele>
        <time>2014-01-26T10:06:39Z</time>
      </trkpt>
      <trkpt lat="48.80638" lon="2.20532">
        <ele>164</ele>
        <time>2014-01-26T10:06:43Z</time>
      </trkpt>
      <trkpt lat="48.80652" lon="2.20522">
        <ele>156</ele>
        <time>2014-01-26T10:06:57Z</time>
      </trkpt>
      <trkpt lat="48.80658" lon="2.20519">
        <ele>155</ele>
        <time>2014-01-26T10:07:01Z</time>
      </trkpt>
      <trkpt lat="48.80661" lon="2.20513">
        <ele>154</ele>
        <time>2014-01-26T10:07:04Z</time>
      </trkpt>
      <trkpt lat="48.80666" lon="2.20508">
        <ele>153</ele>
        <time>2014-01-26T10:07:09Z</time>
      </trkpt>
      <trkpt lat="48.80671" lon="2.20507">
        <ele>153</ele>
        <time>2014-01-26T10:07:16Z</time>
      </trkpt>
      <trkpt lat="48.8068" lon="2.2051">
        <ele>153</ele>
        <time>2014-01-26T10:07:23Z</time>
      </trkpt>
      <trkpt lat="48.80684" lon="2.20506">
        <ele>153</ele>
        <time>2014-01-26T10:07:25Z</time>
      </trkpt>
      <trkpt lat="48.80688" lon="2.20498">
        <ele>153</ele>
        <time>2014-01-26T10:07:28Z</time>
      </trkpt>
      <trkpt lat="48.80692" lon="2.20493">
        <ele>153</ele>
        <time>2014-01-26T10:07:31Z</time>
      </trkpt>
      <trkpt lat="48.80697" lon="2.20486">
        <ele>153</ele>
        <time>2014-01-26T10:07:41Z</time>
      </trkpt>
      <trkpt lat="48.80701" lon="2.20484">
        <ele>153</ele>
        <time>2014-01-26T10:07:45Z</time>
      </trkpt>
      <trkpt lat="48.80706" lon="2.20481">
        <ele>153</ele>
        <time>2014-01-26T10:07:49Z</time>
      </trkpt>
      <trkpt lat="48.80711" lon="2.20478">
        <ele>154</ele>
        <time>2014-01-26T10:07:53Z</time>
      </trkpt>
      <trkpt lat="48.80715" lon="2.20475">
        <ele>154</ele>
        <time>2014-01-26T10:07:56Z</time>
      </trkpt>
      <trkpt lat="48.8072" lon="2.20471">
        <ele>155</ele>
        <time>2014-01-26T10:08:00Z</time>
      </trkpt>
      <trkpt lat="48.80724" lon="2.20468">
        <ele>156</ele>
        <time>2014-01-26T10:08:04Z</time>
      </trkpt>
      <trkpt lat="48.80729" lon="2.20465">
        <ele>155</ele>
        <time>2014-01-26T10:08:10Z</time>
      </trkpt>
      <trkpt lat="48.80734" lon="2.20463">
        <ele>154</ele>
        <time>2014-01-26T10:08:15Z</time>
      </trkpt>
      <trkpt lat="48.80738" lon="2.20462">
        <ele>155</ele>
        <time>2014-01-26T10:08:20Z</time>
      </trkpt>
      <trkpt lat="48.80743" lon="2.20456">
        <ele>155</ele>
        <time>2014-01-26T10:08:24Z</time>
      </trkpt>
      <trkpt lat="48.80744" lon="2.20447">
        <ele>159</ele>
        <time>2014-01-26T10:08:28Z</time>
      </trkpt>
      <trkpt lat="48.80743" lon="2.20438">
        <ele>162</ele>
        <time>2014-01-26T10:08:32Z</time>
      </trkpt>
      <trkpt lat="48.8074" lon="2.20431">
        <ele>164</ele>
        <time>2014-01-26T10:08:35Z</time>
      </trkpt>
      <trkpt lat="48.80737" lon="2.20423">
        <ele>167</ele>
        <time>2014-01-26T10:08:39Z</time>
      </trkpt>
      <trkpt lat="48.80733" lon="2.20418">
        <ele>168</ele>
        <time>2014-01-26T10:08:43Z</time>
      </trkpt>
      <trkpt lat="48.80731" lon="2.2041">
        <ele>171</ele>
        <time>2014-01-26T10:08:47Z</time>
      </trkpt>
      <trkpt lat="48.80729" lon="2.20403">
        <ele>173</ele>
        <time>2014-01-26T10:08:52Z</time>
      </trkpt>
      <trkpt lat="48.80725" lon="2.204">
        <ele>175</ele>
        <time>2014-01-26T10:08:56Z</time>
      </trkpt>
      <trkpt lat="48.80721" lon="2.20395">
        <ele>177</ele>
        <time>2014-01-26T10:09:01Z</time>
      </trkpt>
      <trkpt lat="48.80718" lon="2.2039">
        <ele>179</ele>
        <time>2014-01-26T10:09:06Z</time>
      </trkpt>
      <trkpt lat="48.80714" lon="2.20385">
        <ele>179</ele>
        <time>2014-01-26T10:09:12Z</time>
      </trkpt>
      <trkpt lat="48.80709" lon="2.20382">
        <ele>181</ele>
        <time>2014-01-26T10:09:17Z</time>
      </trkpt>
      <trkpt lat="48.80704" lon="2.20377">
        <ele>182</ele>
        <time>2014-01-26T10:09:21Z</time>
      </trkpt>
      <trkpt lat="48.80699" lon="2.20371">
        <ele>182</ele>
        <time>2014-01-26T10:09:25Z</time>
      </trkpt>
      <trkpt lat="48.80698" lon="2.20364">
        <ele>183</ele>
        <time>2014-01-26T10:09:28Z</time>
      </trkpt>
      <trkpt lat="48.80699" lon="2.20357">
        <ele>183</ele>
        <time>2014-01-26T10:09:33Z</time>
      </trkpt>
      <trkpt lat="48.80695" lon="2.20352">
        <ele>184</ele>
        <time>2014-01-26T10:09:37Z</time>
      </trkpt>
      <trkpt lat="48.80691" lon="2.20347">
        <ele>185</ele>
        <time>2014-01-26T10:09:41Z</time>
      </trkpt>
      <trkpt lat="48.80689" lon="2.2034">
        <ele>185</ele>
        <time>2014-01-26T10:09:45Z</time>
      </trkpt>
      <trkpt lat="48.80686" lon="2.20334">
        <ele>185</ele>
        <time>2014-01-26T10:09:51Z</time>
      </trkpt>
      <trkpt lat="48.80682" lon="2.2033">
        <ele>185</ele>
        <time>2014-01-26T10:09:54Z</time>
      </trkpt>
      <trkpt lat="48.80678" lon="2.20324">
        <ele>184</ele>
        <time>2014-01-26T10:09:57Z</time>
      </trkpt>
      <trkpt lat="48.80674" lon="2.20318">
        <ele>184</ele>
        <time>2014-01-26T10:10:01Z</time>
      </trkpt>
      <trkpt lat="48.80673" lon="2.2031">
        <ele>184</ele>
        <time>2014-01-26T10:10:06Z</time>
      </trkpt>
      <trkpt lat="48.80669" lon="2.20305">
        <ele>184</ele>
        <time>2014-01-26T10:10:09Z</time>
      </trkpt>
      <trkpt lat="48.80666" lon="2.203">
        <ele>183</ele>
        <time>2014-01-26T10:10:12Z</time>
      </trkpt>
      <trkpt lat="48.80663" lon="2.20292">
        <ele>183</ele>
        <time>2014-01-26T10:10:16Z</time>
      </trkpt>
      <trkpt lat="48.80657" lon="2.2028">
        <ele>178</ele>
        <time>2014-01-26T10:10:25Z</time>
      </trkpt>
      <trkpt lat="48.80654" lon="2.20275">
        <ele>177</ele>
        <time>2014-01-26T10:10:30Z</time>
      </trkpt>
      <trkpt lat="48.8065" lon="2.2027">
        <ele>177</ele>
        <time>2014-01-26T10:10:33Z</time>
      </trkpt>
      <trkpt lat="48.80648" lon="2.2026">
        <ele>175</ele>
        <time>2014-01-26T10:10:37Z</time>
      </trkpt>
      <trkpt lat="48.80644" lon="2.20247">
        <ele>167</ele>
        <time>2014-01-26T10:10:43Z</time>
      </trkpt>
      <trkpt lat="48.80644" lon="2.20239">
        <ele>164</ele>
        <time>2014-01-26T10:10:48Z</time>
      </trkpt>
      <trkpt lat="48.80642" lon="2.20232">
        <ele>162</ele>
        <time>2014-01-26T10:10:53Z</time>
      </trkpt>
      <trkpt lat="48.80642" lon="2.20224">
        <ele>161</ele>
        <time>2014-01-26T10:10:56Z</time>
      </trkpt>
      <trkpt lat="48.8064" lon="2.20216">
        <ele>160</ele>
        <time>2014-01-26T10:11:00Z</time>
      </trkpt>
      <trkpt lat="48.80637" lon="2.2021">
        <ele>159</ele>
        <time>2014-01-26T10:11:06Z</time>
      </trkpt>
      <trkpt lat="48.80634" lon="2.20203">
        <ele>158</ele>
        <time>2014-01-26T10:11:13Z</time>
      </trkpt>
      <trkpt lat="48.80632" lon="2.20197">
        <ele>157</ele>
        <time>2014-01-26T10:11:16Z</time>
      </trkpt>
      <trkpt lat="48.8063" lon="2.20189">
        <ele>156</ele>
        <time>2014-01-26T10:11:19Z</time>
      </trkpt>
      <trkpt lat="48.80626" lon="2.20182">
        <ele>155</ele>
        <time>2014-01-26T10:11:21Z</time>
      </trkpt>
      <trkpt lat="48.80622" lon="2.20176">
        <ele>155</ele>
        <time>2014-01-26T10:11:25Z</time>
      </trkpt>
      <trkpt lat="48.80619" lon="2.20171">
        <ele>154</ele>
        <time>2014-01-26T10:11:29Z</time>
      </trkpt>
      <trkpt lat="48.80616" lon="2.20164">
        <ele>155</ele>
        <time>2014-01-26T10:11:35Z</time>
      </trkpt>
      <trkpt lat="48.80614" lon="2.20155">
        <ele>154</ele>
        <time>2014-01-26T10:11:39Z</time>
      </trkpt>
      <trkpt lat="48.80611" lon="2.20148">
        <ele>153</ele>
        <time>2014-01-26T10:11:42Z</time>
      </trkpt>
      <trkpt lat="48.80609" lon="2.20143">
        <ele>152</ele>
        <time>2014-01-26T10:11:46Z</time>
      </trkpt>
      <trkpt lat="48.80607" lon="2.20135">
        <ele>150</ele>
        <time>2014-01-26T10:11:50Z</time>
      </trkpt>
      <trkpt lat="48.80605" lon="2.20128">
        <ele>150</ele>
        <time>2014-01-26T10:11:55Z</time>
      </trkpt>
      <trkpt lat="48.80606" lon="2.20118">
        <ele>147</ele>
        <time>2014-01-26T10:12:02Z</time>
      </trkpt>
      <trkpt lat="48.80604" lon="2.20111">
        <ele>145</ele>
        <time>2014-01-26T10:12:07Z</time>
      </trkpt>
      <trkpt lat="48.80601" lon="2.2011">
        <ele>145</ele>
        <time>2014-01-26T10:12:13Z</time>
      </trkpt>
      <trkpt lat="48.80602" lon="2.20103">
        <ele>144</ele>
        <time>2014-01-26T10:12:18Z</time>
      </trkpt>
      <trkpt lat="48.80604" lon="2.20093">
        <ele>144</ele>
        <time>2014-01-26T10:12:22Z</time>
      </trkpt>
      <trkpt lat="48.80606" lon="2.20083">
        <ele>143</ele>
        <time>2014-01-26T10:12:25Z</time>
      </trkpt>
      <trkpt lat="48.80608" lon="2.20076">
        <ele>142</ele>
        <time>2014-01-26T10:12:28Z</time>
      </trkpt>
      <trkpt lat="48.80609" lon="2.20068">
        <ele>141</ele>
        <time>2014-01-26T10:12:31Z</time>
      </trkpt>
      <trkpt lat="48.80611" lon="2.2006">
        <ele>140</ele>
        <time>2014-01-26T10:12:35Z</time>
      </trkpt>
      <trkpt lat="48.80613" lon="2.20052">
        <ele>140</ele>
        <time>2014-01-26T10:12:40Z</time>
      </trkpt>
      <trkpt lat="48.80607" lon="2.20052">
        <ele>140</ele>
        <time>2014-01-26T10:12:48Z</time>
      </trkpt>
      <trkpt lat="48.80603" lon="2.20052">
        <ele>139</ele>
        <time>2014-01-26T10:12:51Z</time>
      </trkpt>
      <trkpt lat="48.80598" lon="2.20056">
        <ele>138</ele>
        <time>2014-01-26T10:12:56Z</time>
      </trkpt>
      <trkpt lat="48.80593" lon="2.20053">
        <ele>138</ele>
        <time>2014-01-26T10:13:01Z</time>
      </trkpt>
      <trkpt lat="48.80589" lon="2.20054">
        <ele>139</ele>
        <time>2014-01-26T10:13:04Z</time>
      </trkpt>
      <trkpt lat="48.80584" lon="2.20056">
        <ele>139</ele>
        <time>2014-01-26T10:13:07Z</time>
      </trkpt>
      <trkpt lat="48.80578" lon="2.20061">
        <ele>140</ele>
        <time>2014-01-26T10:13:11Z</time>
      </trkpt>
      <trkpt lat="48.80574" lon="2.20065">
        <ele>139</ele>
        <time>2014-01-26T10:13:15Z</time>
      </trkpt>
      <trkpt lat="48.80571" lon="2.2007">
        <ele>140</ele>
        <time>2014-01-26T10:13:19Z</time>
      </trkpt>
      <trkpt lat="48.80568" lon="2.20075">
        <ele>142</ele>
        <time>2014-01-26T10:13:22Z</time>
      </trkpt>
      <trkpt lat="48.80564" lon="2.2008">
        <ele>143</ele>
        <time>2014-01-26T10:13:25Z</time>
      </trkpt>
      <trkpt lat="48.80561" lon="2.20085">
        <ele>145</ele>
        <time>2014-01-26T10:13:30Z</time>
      </trkpt>
      <trkpt lat="48.80556" lon="2.2009">
        <ele>145</ele>
        <time>2014-01-26T10:13:35Z</time>
      </trkpt>
      <trkpt lat="48.80552" lon="2.20093">
        <ele>146</ele>
        <time>2014-01-26T10:13:38Z</time>
      </trkpt>
      <trkpt lat="48.80546" lon="2.20096">
        <ele>147</ele>
        <time>2014-01-26T10:13:42Z</time>
      </trkpt>
      <trkpt lat="48.80541" lon="2.20098">
        <ele>148</ele>
        <time>2014-01-26T10:13:45Z</time>
      </trkpt>
      <trkpt lat="48.80537" lon="2.20102">
        <ele>149</ele>
        <time>2014-01-26T10:13:49Z</time>
      </trkpt>
      <trkpt lat="48.80534" lon="2.20106">
        <ele>149</ele>
        <time>2014-01-26T10:13:54Z</time>
      </trkpt>
      <trkpt lat="48.8053" lon="2.2011">
        <ele>149</ele>
        <time>2014-01-26T10:13:59Z</time>
      </trkpt>
      <trkpt lat="48.80525" lon="2.20118">
        <ele>148</ele>
        <time>2014-01-26T10:14:12Z</time>
      </trkpt>
      <trkpt lat="48.8052" lon="2.20122">
        <ele>148</ele>
        <time>2014-01-26T10:14:15Z</time>
      </trkpt>
      <trkpt lat="48.80516" lon="2.20127">
        <ele>148</ele>
        <time>2014-01-26T10:14:19Z</time>
      </trkpt>
      <trkpt lat="48.80512" lon="2.20132">
        <ele>147</ele>
        <time>2014-01-26T10:14:24Z</time>
      </trkpt>
      <trkpt lat="48.80507" lon="2.20136">
        <ele>147</ele>
        <time>2014-01-26T10:14:27Z</time>
      </trkpt>
      <trkpt lat="48.80503" lon="2.2014">
        <ele>146</ele>
        <time>2014-01-26T10:14:28Z</time>
      </trkpt>
      <trkpt lat="48.80499" lon="2.20145">
        <ele>146</ele>
        <time>2014-01-26T10:14:32Z</time>
      </trkpt>
      <trkpt lat="48.80499" lon="2.20152">
        <ele>146</ele>
        <time>2014-01-26T10:14:36Z</time>
      </trkpt>
      <trkpt lat="48.80497" lon="2.20158">
        <ele>146</ele>
        <time>2014-01-26T10:14:42Z</time>
      </trkpt>
      <trkpt lat="48.80493" lon="2.20163">
        <ele>147</ele>
        <time>2014-01-26T10:14:47Z</time>
      </trkpt>
      <trkpt lat="48.80488" lon="2.20165">
        <ele>147</ele>
        <time>2014-01-26T10:14:51Z</time>
      </trkpt>
      <trkpt lat="48.80484" lon="2.20168">
        <ele>148</ele>
        <time>2014-01-26T10:14:54Z</time>
      </trkpt>
      <trkpt lat="48.80479" lon="2.2017">
        <ele>151</ele>
        <time>2014-01-26T10:14:57Z</time>
      </trkpt>
      <trkpt lat="48.80474" lon="2.20172">
        <ele>153</ele>
        <time>2014-01-26T10:15:01Z</time>
      </trkpt>
      <trkpt lat="48.80471" lon="2.20178">
        <ele>153</ele>
        <time>2014-01-26T10:15:04Z</time>
      </trkpt>
      <trkpt lat="48.80473" lon="2.20187">
        <ele>150</ele>
        <time>2014-01-26T10:15:13Z</time>
      </trkpt>
      <trkpt lat="48.80471" lon="2.20194">
        <ele>148</ele>
        <time>2014-01-26T10:15:18Z</time>
      </trkpt>
      <trkpt lat="48.80468" lon="2.20195">
        <ele>147</ele>
        <time>2014-01-26T10:15:24Z</time>
      </trkpt>
      <trkpt lat="48.80465" lon="2.202">
        <ele>147</ele>
        <time>2014-01-26T10:15:29Z</time>
      </trkpt>
      <trkpt lat="48.80461" lon="2.20205">
        <ele>147</ele>
        <time>2014-01-26T10:15:33Z</time>
      </trkpt>
      <trkpt lat="48.80461" lon="2.20211">
        <ele>145</ele>
        <time>2014-01-26T10:15:43Z</time>
      </trkpt>
      <trkpt lat="48.80456" lon="2.20215">
        <ele>145</ele>
        <time>2014-01-26T10:15:51Z</time>
      </trkpt>
      <trkpt lat="48.80452" lon="2.2022">
        <ele>144</ele>
        <time>2014-01-26T10:15:56Z</time>
      </trkpt>
      <trkpt lat="48.80453" lon="2.20227">
        <ele>144</ele>
        <time>2014-01-26T10:16:00Z</time>
      </trkpt>
      <trkpt lat="48.80452" lon="2.20234">
        <ele>144</ele>
        <time>2014-01-26T10:16:05Z</time>
      </trkpt>
      <trkpt lat="48.80453" lon="2.20241">
        <ele>143</ele>
        <time>2014-01-26T10:16:09Z</time>
      </trkpt>
      <trkpt lat="48.80456" lon="2.20248">
        <ele>143</ele>
        <time>2014-01-26T10:16:11Z</time>
      </trkpt>
      <trkpt lat="48.8046" lon="2.20255">
        <ele>143</ele>
        <time>2014-01-26T10:16:14Z</time>
      </trkpt>
      <trkpt lat="48.80462" lon="2.20261">
        <ele>143</ele>
        <time>2014-01-26T10:16:19Z</time>
      </trkpt>
      <trkpt lat="48.80466" lon="2.20267">
        <ele>142</ele>
        <time>2014-01-26T10:16:23Z</time>
      </trkpt>
      <trkpt lat="48.8047" lon="2.20272">
        <ele>142</ele>
        <time>2014-01-26T10:16:27Z</time>
      </trkpt>
      <trkpt lat="48.80473" lon="2.20276">
        <ele>143</ele>
        <time>2014-01-26T10:16:34Z</time>
      </trkpt>
      <trkpt lat="48.80478" lon="2.20284">
        <ele>148</ele>
        <time>2014-01-26T10:16:44Z</time>
      </trkpt>
      <trkpt lat="48.80482" lon="2.20289">
        <ele>148</ele>
        <time>2014-01-26T10:16:47Z</time>
      </trkpt>
      <trkpt lat="48.80487" lon="2.20295">
        <ele>149</ele>
        <time>2014-01-26T10:16:50Z</time>
      </trkpt>
      <trkpt lat="48.80491" lon="2.203">
        <ele>150</ele>
        <time>2014-01-26T10:16:57Z</time>
      </trkpt>
      <trkpt lat="48.80493" lon="2.20306">
        <ele>150</ele>
        <time>2014-01-26T10:17:02Z</time>
      </trkpt>
      <trkpt lat="48.80496" lon="2.20313">
        <ele>150</ele>
        <time>2014-01-26T10:17:05Z</time>
      </trkpt>
      <trkpt lat="48.80498" lon="2.20319">
        <ele>150</ele>
        <time>2014-01-26T10:17:08Z</time>
      </trkpt>
      <trkpt lat="48.80502" lon="2.20323">
        <ele>151</ele>
        <time>2014-01-26T10:17:13Z</time>
      </trkpt>
      <trkpt lat="48.80505" lon="2.20328">
        <ele>151</ele>
        <time>2014-01-26T10:17:16Z</time>
      </trkpt>
      <trkpt lat="48.80509" lon="2.20333">
        <ele>151</ele>
        <time>2014-01-26T10:17:19Z</time>
      </trkpt>
      <trkpt lat="48.80512" lon="2.20339">
        <ele>153</ele>
        <time>2014-01-26T10:17:22Z</time>
      </trkpt>
      <trkpt lat="48.80514" lon="2.20346">
        <ele>155</ele>
        <time>2014-01-26T10:17:26Z</time>
      </trkpt>
      <trkpt lat="48.80519" lon="2.20351">
        <ele>156</ele>
        <time>2014-01-26T10:17:33Z</time>
      </trkpt>
      <trkpt lat="48.80521" lon="2.20358">
        <ele>157</ele>
        <time>2014-01-26T10:17:37Z</time>
      </trkpt>
      <trkpt lat="48.80525" lon="2.20363">
        <ele>157</ele>
        <time>2014-01-26T10:17:40Z</time>
      </trkpt>
      <trkpt lat="48.80527" lon="2.2037">
        <ele>158</ele>
        <time>2014-01-26T10:17:49Z</time>
      </trkpt>
      <trkpt lat="48.80529" lon="2.20378">
        <ele>158</ele>
        <time>2014-01-26T10:17:54Z</time>
      </trkpt>
      <trkpt lat="48.80534" lon="2.20382">
        <ele>159</ele>
        <time>2014-01-26T10:18:00Z</time>
      </trkpt>
      <trkpt lat="48.80537" lon="2.20387">
        <ele>160</ele>
        <time>2014-01-26T10:18:05Z</time>
      </trkpt>
      <trkpt lat="48.8054" lon="2.20392">
        <ele>162</ele>
        <time>2014-01-26T10:18:11Z</time>
      </trkpt>
      <trkpt lat="48.80545" lon="2.20392">
        <ele>163</ele>
        <time>2014-01-26T10:18:17Z</time>
      </trkpt>
      <trkpt lat="48.80548" lon="2.204">
        <ele>165</ele>
        <time>2014-01-26T10:18:23Z</time>
      </trkpt>
      <trkpt lat="48.80552" lon="2.20405">
        <ele>165</ele>
        <time>2014-01-26T10:18:26Z</time>
      </trkpt>
      <trkpt lat="48.80554" lon="2.20411">
        <ele>166</ele>
        <time>2014-01-26T10:18:29Z</time>
      </trkpt>
      <trkpt lat="48.80556" lon="2.20417">
        <ele>167</ele>
        <time>2014-01-26T10:18:33Z</time>
      </trkpt>
      <trkpt lat="48.8056" lon="2.20422">
        <ele>169</ele>
        <time>2014-01-26T10:18:41Z</time>
      </trkpt>
      <trkpt lat="48.80563" lon="2.20427">
        <ele>168</ele>
        <time>2014-01-26T10:18:45Z</time>
      </trkpt>
      <trkpt lat="48.80567" lon="2.20429">
        <ele>167</ele>
        <time>2014-01-26T10:18:50Z</time>
      </trkpt>
      <trkpt lat="48.80571" lon="2.20428">
        <ele>166</ele>
        <time>2014-01-26T10:19:03Z</time>
      </trkpt>
      <trkpt lat="48.80568" lon="2.20422">
        <ele>167</ele>
        <time>2014-01-26T10:19:09Z</time>
      </trkpt>
      <trkpt lat="48.80563" lon="2.2042">
        <ele>165</ele>
        <time>2014-01-26T10:19:15Z</time>
      </trkpt>
      <trkpt lat="48.80562" lon="2.20413">
        <ele>168</ele>
        <time>2014-01-26T10:19:23Z</time>
      </trkpt>
      <trkpt lat="48.80557" lon="2.20401">
        <ele>174</ele>
        <time>2014-01-26T10:19:36Z</time>
      </trkpt>
      <trkpt lat="48.80553" lon="2.204">
        <ele>176</ele>
        <time>2014-01-26T10:19:39Z</time>
      </trkpt>
      <trkpt lat="48.80547" lon="2.20401">
        <ele>177</ele>
        <time>2014-01-26T10:19:43Z</time>
      </trkpt>
      <trkpt lat="48.80542" lon="2.20401">
        <ele>177</ele>
        <time>2014-01-26T10:19:46Z</time>
      </trkpt>
      <trkpt lat="48.80537" lon="2.20403">
        <ele>177</ele>
        <time>2014-01-26T10:19:50Z</time>
      </trkpt>
      <trkpt lat="48.80532" lon="2.20408">
        <ele>178</ele>
        <time>2014-01-26T10:19:54Z</time>
      </trkpt>
      <trkpt lat="48.80529" lon="2.20412">
        <ele>178</ele>
        <time>2014-01-26T10:19:58Z</time>
      </trkpt>
      <trkpt lat="48.80524" lon="2.20415">
        <ele>178</ele>
        <time>2014-01-26T10:20:03Z</time>
      </trkpt>
      <trkpt lat="48.80518" lon="2.20417">
        <ele>177</ele>
        <time>2014-01-26T10:20:07Z</time>
      </trkpt>
      <trkpt lat="48.80514" lon="2.2042">
        <ele>176</ele>
        <time>2014-01-26T10:20:11Z</time>
      </trkpt>
      <trkpt lat="48.80509" lon="2.20421">
        <ele>176</ele>
        <time>2014-01-26T10:20:15Z</time>
      </trkpt>
      <trkpt lat="48.80504" lon="2.20419">
        <ele>177</ele>
        <time>2014-01-26T10:20:19Z</time>
      </trkpt>
      <trkpt lat="48.80499" lon="2.2042">
        <ele>179</ele>
        <time>2014-01-26T10:20:23Z</time>
      </trkpt>
      <trkpt lat="48.80494" lon="2.20423">
        <ele>179</ele>
        <time>2014-01-26T10:20:27Z</time>
      </trkpt>
      <trkpt lat="48.80488" lon="2.20425">
        <ele>179</ele>
        <time>2014-01-26T10:20:31Z</time>
      </trkpt>
      <trkpt lat="48.80484" lon="2.20426">
        <ele>179</ele>
        <time>2014-01-26T10:20:34Z</time>
      </trkpt>
      <trkpt lat="48.80479" lon="2.2043">
        <ele>179</ele>
        <time>2014-01-26T10:20:37Z</time>
      </trkpt>
      <trkpt lat="48.80475" lon="2.20435">
        <ele>179</ele>
        <time>2014-01-26T10:20:40Z</time>
      </trkpt>
      <trkpt lat="48.80472" lon="2.20439">
        <ele>179</ele>
        <time>2014-01-26T10:20:43Z</time>
      </trkpt>
      <trkpt lat="48.80468" lon="2.20443">
        <ele>179</ele>
        <time>2014-01-26T10:20:48Z</time>
      </trkpt>
      <trkpt lat="48.80463" lon="2.20446">
        <ele>180</ele>
        <time>2014-01-26T10:20:52Z</time>
      </trkpt>
      <trkpt lat="48.80459" lon="2.20451">
        <ele>180</ele>
        <time>2014-01-26T10:20:55Z</time>
      </trkpt>
      <trkpt lat="48.80455" lon="2.20453">
        <ele>180</ele>
        <time>2014-01-26T10:21:00Z</time>
      </trkpt>
      <trkpt lat="48.8045" lon="2.20456">
        <ele>179</ele>
        <time>2014-01-26T10:21:04Z</time>
      </trkpt>
      <trkpt lat="48.80445" lon="2.20457">
        <ele>178</ele>
        <time>2014-01-26T10:21:10Z</time>
      </trkpt>
      <trkpt lat="48.80441" lon="2.20458">
        <ele>176</ele>
        <time>2014-01-26T10:21:16Z</time>
      </trkpt>
      <trkpt lat="48.80436" lon="2.20457">
        <ele>175</ele>
        <time>2014-01-26T10:21:20Z</time>
      </trkpt>
      <trkpt lat="48.80432" lon="2.20454">
        <ele>175</ele>
        <time>2014-01-26T10:21:24Z</time>
      </trkpt>
      <trkpt lat="48.80427" lon="2.2045">
        <ele>176</ele>
        <time>2014-01-26T10:21:27Z</time>
      </trkpt>
      <trkpt lat="48.80422" lon="2.20448">
        <ele>177</ele>
        <time>2014-01-26T10:21:32Z</time>
      </trkpt>
      <trkpt lat="48.80418" lon="2.20447">
        <ele>178</ele>
        <time>2014-01-26T10:21:36Z</time>
      </trkpt>
      <trkpt lat="48.80413" lon="2.20445">
        <ele>179</ele>
        <time>2014-01-26T10:21:40Z</time>
      </trkpt>
      <trkpt lat="48.80408" lon="2.20443">
        <ele>180</ele>
        <time>2014-01-26T10:21:44Z</time>
      </trkpt>
      <trkpt lat="48.80405" lon="2.20438">
        <ele>180</ele>
        <time>2014-01-26T10:21:48Z</time>
      </trkpt>
      <trkpt lat="48.80401" lon="2.20433">
        <ele>181</ele>
        <time>2014-01-26T10:21:54Z</time>
      </trkpt>
      <trkpt lat="48.8039" lon="2.20433">
        <ele>187</ele>
        <time>2014-01-26T10:22:07Z</time>
      </trkpt>
      <trkpt lat="48.80385" lon="2.20432">
        <ele>188</ele>
        <time>2014-01-26T10:22:11Z</time>
      </trkpt>
      <trkpt lat="48.8038" lon="2.20429">
        <ele>189</ele>
        <time>2014-01-26T10:22:14Z</time>
      </trkpt>
      <trkpt lat="48.80375" lon="2.20425">
        <ele>189</ele>
        <time>2014-01-26T10:22:18Z</time>
      </trkpt>
      <trkpt lat="48.80371" lon="2.20426">
        <ele>189</ele>
        <time>2014-01-26T10:22:22Z</time>
      </trkpt>
      <trkpt lat="48.80365" lon="2.20427">
        <ele>187</ele>
        <time>2014-01-26T10:22:26Z</time>
      </trkpt>
      <trkpt lat="48.80361" lon="2.20425">
        <ele>186</ele>
        <time>2014-01-26T10:22:29Z</time>
      </trkpt>
      <trkpt lat="48.80356" lon="2.20424">
        <ele>185</ele>
        <time>2014-01-26T10:22:32Z</time>
      </trkpt>
      <trkpt lat="48.80351" lon="2.20423">
        <ele>184</ele>
        <time>2014-01-26T10:22:36Z</time>
      </trkpt>
      <trkpt lat="48.80345" lon="2.20422">
        <ele>184</ele>
        <time>2014-01-26T10:22:41Z</time>
      </trkpt>
      <trkpt lat="48.80338" lon="2.2042">
        <ele>183</ele>
        <time>2014-01-26T10:22:44Z</time>
      </trkpt>
      <trkpt lat="48.80332" lon="2.20421">
        <ele>182</ele>
        <time>2014-01-26T10:22:47Z</time>
      </trkpt>
      <trkpt lat="48.80327" lon="2.20422">
        <ele>182</ele>
        <time>2014-01-26T10:22:50Z</time>
      </trkpt>
      <trkpt lat="48.80323" lon="2.20421">
        <ele>182</ele>
        <time>2014-01-26T10:22:53Z</time>
      </trkpt>
      <trkpt lat="48.80318" lon="2.20421">
        <ele>182</ele>
        <time>2014-01-26T10:22:58Z</time>
      </trkpt>
      <trkpt lat="48.80313" lon="2.20423">
        <ele>182</ele>
        <time>2014-01-26T10:23:03Z</time>
      </trkpt>
      <trkpt lat="48.80308" lon="2.20421">
        <ele>181</ele>
        <time>2014-01-26T10:23:06Z</time>
      </trkpt>
      <trkpt lat="48.80302" lon="2.20422">
        <ele>181</ele>
        <time>2014-01-26T10:23:09Z</time>
      </trkpt>
      <trkpt lat="48.80298" lon="2.20426">
        <ele>180</ele>
        <time>2014-01-26T10:23:13Z</time>
      </trkpt>
      <trkpt lat="48.80295" lon="2.20431">
        <ele>180</ele>
        <time>2014-01-26T10:23:16Z</time>
      </trkpt>
      <trkpt lat="48.80294" lon="2.20438">
        <ele>179</ele>
        <time>2014-01-26T10:23:20Z</time>
      </trkpt>
      <trkpt lat="48.80289" lon="2.20442">
        <ele>179</ele>
        <time>2014-01-26T10:23:25Z</time>
      </trkpt>
      <trkpt lat="48.80284" lon="2.20443">
        <ele>178</ele>
        <time>2014-01-26T10:23:28Z</time>
      </trkpt>
      <trkpt lat="48.80282" lon="2.20449">
        <ele>174</ele>
        <time>2014-01-26T10:23:32Z</time>
      </trkpt>
      <trkpt lat="48.80278" lon="2.20448">
        <ele>169</ele>
        <time>2014-01-26T10:23:46Z</time>
      </trkpt>
      <trkpt lat="48.80275" lon="2.20455">
        <ele>170</ele>
        <time>2014-01-26T10:24:02Z</time>
      </trkpt>
      <trkpt lat="48.80271" lon="2.20463">
        <ele>171</ele>
        <time>2014-01-26T10:24:08Z</time>
      </trkpt>
      <trkpt lat="48.8027" lon="2.20471">
        <ele>172</ele>
        <time>2014-01-26T10:24:12Z</time>
      </trkpt>
      <trkpt lat="48.80272" lon="2.2048">
        <ele>173</ele>
        <time>2014-01-26T10:24:15Z</time>
      </trkpt>
      <trkpt lat="48.80272" lon="2.20495">
        <ele>173</ele>
        <time>2014-01-26T10:24:20Z</time>
      </trkpt>
      <trkpt lat="48.80271" lon="2.20507">
        <ele>171</ele>
        <time>2014-01-26T10:24:27Z</time>
      </trkpt>
      <trkpt lat="48.80267" lon="2.2051">
        <ele>168</ele>
        <time>2014-01-26T10:24:30Z</time>
      </trkpt>
      <trkpt lat="48.80261" lon="2.20507">
        <ele>167</ele>
        <time>2014-01-26T10:24:33Z</time>
      </trkpt>
      <trkpt lat="48.80256" lon="2.20504">
        <ele>167</ele>
        <time>2014-01-26T10:24:37Z</time>
      </trkpt>
      <trkpt lat="48.80252" lon="2.20509">
        <ele>167</ele>
        <time>2014-01-26T10:24:42Z</time>
      </trkpt>
      <trkpt lat="48.8025" lon="2.20504">
        <ele>168</ele>
        <time>2014-01-26T10:24:53Z</time>
      </trkpt>
      <trkpt lat="48.80252" lon="2.20498">
        <ele>170</ele>
        <time>2014-01-26T10:24:58Z</time>
      </trkpt>
      <trkpt lat="48.80247" lon="2.20496">
        <ele>175</ele>
        <time>2014-01-26T10:25:06Z</time>
      </trkpt>
      <trkpt lat="48.80242" lon="2.20497">
        <ele>176</ele>
        <time>2014-01-26T10:25:10Z</time>
      </trkpt>
      <trkpt lat="48.80237" lon="2.20498">
        <ele>176</ele>
        <time>2014-01-26T10:25:15Z</time>
      </trkpt>
      <trkpt lat="48.80233" lon="2.20493">
        <ele>177</ele>
        <time>2014-01-26T10:25:22Z</time>
      </trkpt>
      <trkpt lat="48.80229" lon="2.20488">
        <ele>178</ele>
        <time>2014-01-26T10:25:26Z</time>
      </trkpt>
      <trkpt lat="48.80226" lon="2.20482">
        <ele>180</ele>
        <time>2014-01-26T10:25:30Z</time>
      </trkpt>
      <trkpt lat="48.80221" lon="2.2048">
        <ele>180</ele>
        <time>2014-01-26T10:25:34Z</time>
      </trkpt>
      <trkpt lat="48.80216" lon="2.20479">
        <ele>179</ele>
        <time>2014-01-26T10:25:39Z</time>
      </trkpt>
      <trkpt lat="48.80211" lon="2.20475">
        <ele>178</ele>
        <time>2014-01-26T10:25:42Z</time>
      </trkpt>
      <trkpt lat="48.80207" lon="2.2047">
        <ele>177</ele>
        <time>2014-01-26T10:25:45Z</time>
      </trkpt>
      <trkpt lat="48.80203" lon="2.20466">
        <ele>176</ele>
        <time>2014-01-26T10:25:49Z</time>
      </trkpt>
      <trkpt lat="48.80201" lon="2.20458">
        <ele>175</ele>
        <time>2014-01-26T10:25:55Z</time>
      </trkpt>
      <trkpt lat="48.802" lon="2.20451">
        <ele>175</ele>
        <time>2014-01-26T10:26:00Z</time>
      </trkpt>
      <trkpt lat="48.80198" lon="2.20445">
        <ele>173</ele>
        <time>2014-01-26T10:26:07Z</time>
      </trkpt>
      <trkpt lat="48.802" lon="2.20438">
        <ele>171</ele>
        <time>2014-01-26T10:26:12Z</time>
      </trkpt>
      <trkpt lat="48.80203" lon="2.20433">
        <ele>169</ele>
        <time>2014-01-26T10:26:15Z</time>
      </trkpt>
      <trkpt lat="48.80204" lon="2.20425">
        <ele>167</ele>
        <time>2014-01-26T10:26:20Z</time>
      </trkpt>
      <trkpt lat="48.80202" lon="2.20423">
        <ele>167</ele>
        <time>2014-01-26T10:26:26Z</time>
      </trkpt>
      <trkpt lat="48.80198" lon="2.20417">
        <ele>166</ele>
        <time>2014-01-26T10:26:28Z</time>
      </trkpt>
      <trkpt lat="48.80199" lon="2.20409">
        <ele>166</ele>
        <time>2014-01-26T10:26:32Z</time>
      </trkpt>
      <trkpt lat="48.80201" lon="2.20401">
        <ele>166</ele>
        <time>2014-01-26T10:26:35Z</time>
      </trkpt>
      <trkpt lat="48.802" lon="2.20392">
        <ele>165</ele>
        <time>2014-01-26T10:26:39Z</time>
      </trkpt>
      <trkpt lat="48.80199" lon="2.20383">
        <ele>165</ele>
        <time>2014-01-26T10:26:42Z</time>
      </trkpt>
      <trkpt lat="48.80197" lon="2.20374">
        <ele>165</ele>
        <time>2014-01-26T10:26:46Z</time>
      </trkpt>
      <trkpt lat="48.80193" lon="2.2037">
        <ele>165</ele>
        <time>2014-01-26T10:26:49Z</time>
      </trkpt>
      <trkpt lat="48.80189" lon="2.20365">
        <ele>166</ele>
        <time>2014-01-26T10:26:53Z</time>
      </trkpt>
      <trkpt lat="48.80185" lon="2.2036">
        <ele>167</ele>
        <time>2014-01-26T10:26:57Z</time>
      </trkpt>
      <trkpt lat="48.80184" lon="2.20353">
        <ele>170</ele>
        <time>2014-01-26T10:27:01Z</time>
      </trkpt>
      <trkpt lat="48.80182" lon="2.20343">
        <ele>171</ele>
        <time>2014-01-26T10:27:05Z</time>
      </trkpt>
      <trkpt lat="48.80179" lon="2.20336">
        <ele>172</ele>
        <time>2014-01-26T10:27:09Z</time>
      </trkpt>
      <trkpt lat="48.80176" lon="2.2033">
        <ele>173</ele>
        <time>2014-01-26T10:27:14Z</time>
      </trkpt>
      <trkpt lat="48.80173" lon="2.20323">
        <ele>172</ele>
        <time>2014-01-26T10:27:21Z</time>
      </trkpt>
      <trkpt lat="48.8017" lon="2.20318">
        <ele>171</ele>
        <time>2014-01-26T10:27:27Z</time>
      </trkpt>
      <trkpt lat="48.80164" lon="2.20312">
        <ele>169</ele>
        <time>2014-01-26T10:27:33Z</time>
      </trkpt>
      <trkpt lat="48.80161" lon="2.20306">
        <ele>167</ele>
        <time>2014-01-26T10:28:02Z</time>
      </trkpt>
      <trkpt lat="48.80158" lon="2.20301">
        <ele>168</ele>
        <time>2014-01-26T10:28:18Z</time>
      </trkpt>
      <trkpt lat="48.80156" lon="2.20306">
        <ele>167</ele>
        <time>2014-01-26T10:28:58Z</time>
      </trkpt>
      <trkpt lat="48.80155" lon="2.20313">
        <ele>167</ele>
        <time>2014-01-26T10:29:03Z</time>
      </trkpt>
      <trkpt lat="48.80155" lon="2.2031">
        <ele>168</ele>
        <time>2014-01-26T10:29:37Z</time>
      </trkpt>
      <trkpt lat="48.80153" lon="2.20309">
        <ele>177</ele>
        <time>2014-01-26T10:30:52Z</time>
      </trkpt>
      <trkpt lat="48.8015" lon="2.20305">
        <ele>177</ele>
        <time>2014-01-26T10:31:16Z</time>
      </trkpt>
      <trkpt lat="48.80151" lon="2.203">
        <ele>176</ele>
        <time>2014-01-26T10:31:46Z</time>
      </trkpt>
      <trkpt lat="48.80153" lon="2.20296">
        <ele>176</ele>
        <time>2014-01-26T10:31:56Z</time>
      </trkpt>
      <trkpt lat="48.80158" lon="2.20296">
        <ele>176</ele>
        <time>2014-01-26T10:32:00Z</time>
      </trkpt>
      <trkpt lat="48.80159" lon="2.20299">
        <ele>176</ele>
        <time>2014-01-26T10:32:11Z</time>
      </trkpt>
      <trkpt lat="48.80158" lon="2.20298">
        <ele>173</ele>
        <time>2014-01-26T10:32:23Z</time>
      </trkpt>
      <trkpt lat="48.80154" lon="2.20293">
        <ele>173</ele>
        <time>2014-01-26T10:32:27Z</time>
      </trkpt>
      <trkpt lat="48.80151" lon="2.20287">
        <ele>173</ele>
        <time>2014-01-26T10:32:31Z</time>
      </trkpt>
      <trkpt lat="48.80147" lon="2.2028">
        <ele>173</ele>
        <time>2014-01-26T10:32:36Z</time>
      </trkpt>
      <trkpt lat="48.80146" lon="2.20273">
        <ele>174</ele>
        <time>2014-01-26T10:32:42Z</time>
      </trkpt>
      <trkpt lat="48.80142" lon="2.20267">
        <ele>172</ele>
        <time>2014-01-26T10:32:47Z</time>
      </trkpt>
      <trkpt lat="48.80138" lon="2.20263">
        <ele>171</ele>
        <time>2014-01-26T10:32:50Z</time>
      </trkpt>
      <trkpt lat="48.80135" lon="2.20258">
        <ele>172</ele>
        <time>2014-01-26T10:32:53Z</time>
      </trkpt>
      <trkpt lat="48.80134" lon="2.20251">
        <ele>173</ele>
        <time>2014-01-26T10:32:57Z</time>
      </trkpt>
      <trkpt lat="48.8013" lon="2.20246">
        <ele>173</ele>
        <time>2014-01-26T10:33:01Z</time>
      </trkpt>
      <trkpt lat="48.80128" lon="2.2024">
        <ele>174</ele>
        <time>2014-01-26T10:33:05Z</time>
      </trkpt>
      <trkpt lat="48.80122" lon="2.20237">
        <ele>173</ele>
        <time>2014-01-26T10:33:09Z</time>
      </trkpt>
      <trkpt lat="48.80118" lon="2.20232">
        <ele>172</ele>
        <time>2014-01-26T10:33:12Z</time>
      </trkpt>
      <trkpt lat="48.80114" lon="2.20227">
        <ele>171</ele>
        <time>2014-01-26T10:33:15Z</time>
      </trkpt>
      <trkpt lat="48.80112" lon="2.20219">
        <ele>170</ele>
        <time>2014-01-26T10:33:19Z</time>
      </trkpt>
      <trkpt lat="48.8011" lon="2.20212">
        <ele>169</ele>
        <time>2014-01-26T10:33:22Z</time>
      </trkpt>
      <trkpt lat="48.80108" lon="2.20205">
        <ele>168</ele>
        <time>2014-01-26T10:33:26Z</time>
      </trkpt>
      <trkpt lat="48.80105" lon="2.20198">
        <ele>169</ele>
        <time>2014-01-26T10:33:30Z</time>
      </trkpt>
      <trkpt lat="48.80101" lon="2.20193">
        <ele>169</ele>
        <time>2014-01-26T10:33:34Z</time>
      </trkpt>
      <trkpt lat="48.80097" lon="2.20189">
        <ele>169</ele>
        <time>2014-01-26T10:33:37Z</time>
      </trkpt>
      <trkpt lat="48.80094" lon="2.20184">
        <ele>168</ele>
        <time>2014-01-26T10:33:41Z</time>
      </trkpt>
      <trkpt lat="48.80089" lon="2.20179">
        <ele>166</ele>
        <time>2014-01-26T10:33:46Z</time>
      </trkpt>
      <trkpt lat="48.80085" lon="2.20174">
        <ele>165</ele>
        <time>2014-01-26T10:33:51Z</time>
      </trkpt>
      <trkpt lat="48.80081" lon="2.2017">
        <ele>162</ele>
        <time>2014-01-26T10:33:55Z</time>
      </trkpt>
      <trkpt lat="48.80079" lon="2.20164">
        <ele>161</ele>
        <time>2014-01-26T10:33:59Z</time>
      </trkpt>
      <trkpt lat="48.80076" lon="2.20158">
        <ele>159</ele>
        <time>2014-01-26T10:34:02Z</time>
      </trkpt>
      <trkpt lat="48.80073" lon="2.20151">
        <ele>159</ele>
        <time>2014-01-26T10:34:05Z</time>
      </trkpt>
      <trkpt lat="48.80069" lon="2.20147">
        <ele>158</ele>
        <time>2014-01-26T10:34:08Z</time>
      </trkpt>
      <trkpt lat="48.80065" lon="2.20141">
        <ele>157</ele>
        <time>2014-01-26T10:34:12Z</time>
      </trkpt>
      <trkpt lat="48.80064" lon="2.20133">
        <ele>156</ele>
        <time>2014-01-26T10:34:17Z</time>
      </trkpt>
      <trkpt lat="48.80061" lon="2.20127">
        <ele>156</ele>
        <time>2014-01-26T10:34:21Z</time>
      </trkpt>
      <trkpt lat="48.80058" lon="2.20121">
        <ele>155</ele>
        <time>2014-01-26T10:34:26Z</time>
      </trkpt>
      <trkpt lat="48.80056" lon="2.20113">
        <ele>157</ele>
        <time>2014-01-26T10:34:31Z</time>
      </trkpt>
      <trkpt lat="48.80052" lon="2.20107">
        <ele>159</ele>
        <time>2014-01-26T10:34:34Z</time>
      </trkpt>
      <trkpt lat="48.80049" lon="2.20101">
        <ele>160</ele>
        <time>2014-01-26T10:34:39Z</time>
      </trkpt>
      <trkpt lat="48.80045" lon="2.20095">
        <ele>160</ele>
        <time>2014-01-26T10:34:44Z</time>
      </trkpt>
      <trkpt lat="48.80041" lon="2.20091">
        <ele>160</ele>
        <time>2014-01-26T10:34:48Z</time>
      </trkpt>
      <trkpt lat="48.80037" lon="2.20086">
        <ele>160</ele>
        <time>2014-01-26T10:34:52Z</time>
      </trkpt>
      <trkpt lat="48.80034" lon="2.20081">
        <ele>160</ele>
        <time>2014-01-26T10:34:56Z</time>
      </trkpt>
      <trkpt lat="48.80024" lon="2.20079">
        <ele>153</ele>
        <time>2014-01-26T10:35:03Z</time>
      </trkpt>
      <trkpt lat="48.80006" lon="2.2009">
        <ele>138</ele>
        <time>2014-01-26T10:35:17Z</time>
      </trkpt>
      <trkpt lat="48.80003" lon="2.20083">
        <ele>134</ele>
        <time>2014-01-26T10:35:27Z</time>
      </trkpt>
      <trkpt lat="48.79999" lon="2.20081">
        <ele>134</ele>
        <time>2014-01-26T10:35:34Z</time>
      </trkpt>
      <trkpt lat="48.79996" lon="2.20085">
        <ele>134</ele>
        <time>2014-01-26T10:35:43Z</time>
      </trkpt>
      <trkpt lat="48.79991" lon="2.20086">
        <ele>135</ele>
        <time>2014-01-26T10:35:48Z</time>
      </trkpt>
      <trkpt lat="48.79987" lon="2.2009">
        <ele>140</ele>
        <time>2014-01-26T10:35:56Z</time>
      </trkpt>
      <trkpt lat="48.79982" lon="2.2009">
        <ele>142</ele>
        <time>2014-01-26T10:36:02Z</time>
      </trkpt>
      <trkpt lat="48.79978" lon="2.20095">
        <ele>146</ele>
        <time>2014-01-26T10:36:08Z</time>
      </trkpt>
      <trkpt lat="48.79975" lon="2.201">
        <ele>147</ele>
        <time>2014-01-26T10:36:14Z</time>
      </trkpt>
      <trkpt lat="48.79971" lon="2.20103">
        <ele>148</ele>
        <time>2014-01-26T10:36:21Z</time>
      </trkpt>
      <trkpt lat="48.79965" lon="2.20106">
        <ele>148</ele>
        <time>2014-01-26T10:36:27Z</time>
      </trkpt>
      <trkpt lat="48.79961" lon="2.20109">
        <ele>147</ele>
        <time>2014-01-26T10:36:30Z</time>
      </trkpt>
      <trkpt lat="48.79957" lon="2.20114">
        <ele>146</ele>
        <time>2014-01-26T10:36:33Z</time>
      </trkpt>
      <trkpt lat="48.79953" lon="2.20119">
        <ele>145</ele>
        <time>2014-01-26T10:36:38Z</time>
      </trkpt>
      <trkpt lat="48.79951" lon="2.20122">
        <ele>145</ele>
        <time>2014-01-26T10:36:45Z</time>
      </trkpt>
      <trkpt lat="48.79948" lon="2.20128">
        <ele>148</ele>
        <time>2014-01-26T10:36:52Z</time>
      </trkpt>
      <trkpt lat="48.79943" lon="2.2013">
        <ele>149</ele>
        <time>2014-01-26T10:36:57Z</time>
      </trkpt>
      <trkpt lat="48.79939" lon="2.20134">
        <ele>149</ele>
        <time>2014-01-26T10:37:00Z</time>
      </trkpt>
      <trkpt lat="48.79935" lon="2.20137">
        <ele>148</ele>
        <time>2014-01-26T10:37:05Z</time>
      </trkpt>
      <trkpt lat="48.7993" lon="2.20139">
        <ele>149</ele>
        <time>2014-01-26T10:37:11Z</time>
      </trkpt>
      <trkpt lat="48.79925" lon="2.20139">
        <ele>149</ele>
        <time>2014-01-26T10:37:14Z</time>
      </trkpt>
      <trkpt lat="48.7992" lon="2.2014">
        <ele>148</ele>
        <time>2014-01-26T10:37:21Z</time>
      </trkpt>
      <trkpt lat="48.79916" lon="2.20144">
        <ele>148</ele>
        <time>2014-01-26T10:37:25Z</time>
      </trkpt>
      <trkpt lat="48.79913" lon="2.20149">
        <ele>148</ele>
        <time>2014-01-26T10:37:30Z</time>
      </trkpt>
      <trkpt lat="48.79909" lon="2.20155">
        <ele>149</ele>
        <time>2014-01-26T10:37:35Z</time>
      </trkpt>
      <trkpt lat="48.79905" lon="2.20159">
        <ele>150</ele>
        <time>2014-01-26T10:37:40Z</time>
      </trkpt>
      <trkpt lat="48.799" lon="2.20167">
        <ele>152</ele>
        <time>2014-01-26T10:37:53Z</time>
      </trkpt>
      <trkpt lat="48.79897" lon="2.20172">
        <ele>152</ele>
        <time>2014-01-26T10:37:56Z</time>
      </trkpt>
      <trkpt lat="48.79894" lon="2.20177">
        <ele>152</ele>
        <time>2014-01-26T10:38:00Z</time>
      </trkpt>
      <trkpt lat="48.79891" lon="2.20181">
        <ele>153</ele>
        <time>2014-01-26T10:38:09Z</time>
      </trkpt>
      <trkpt lat="48.79881" lon="2.20192">
        <ele>160</ele>
        <time>2014-01-26T10:38:37Z</time>
      </trkpt>
      <trkpt lat="48.79876" lon="2.20191">
        <ele>161</ele>
        <time>2014-01-26T10:38:41Z</time>
      </trkpt>
      <trkpt lat="48.79872" lon="2.20194">
        <ele>161</ele>
        <time>2014-01-26T10:38:45Z</time>
      </trkpt>
      <trkpt lat="48.79865" lon="2.20198">
        <ele>166</ele>
        <time>2014-01-26T10:38:58Z</time>
      </trkpt>
      <trkpt lat="48.79861" lon="2.20204">
        <ele>167</ele>
        <time>2014-01-26T10:39:03Z</time>
      </trkpt>
      <trkpt lat="48.79858" lon="2.20209">
        <ele>168</ele>
        <time>2014-01-26T10:39:08Z</time>
      </trkpt>
      <trkpt lat="48.79855" lon="2.20214">
        <ele>168</ele>
        <time>2014-01-26T10:39:12Z</time>
      </trkpt>
      <trkpt lat="48.79852" lon="2.2022">
        <ele>168</ele>
        <time>2014-01-26T10:39:18Z</time>
      </trkpt>
      <trkpt lat="48.7985" lon="2.20228">
        <ele>168</ele>
        <time>2014-01-26T10:39:25Z</time>
      </trkpt>
      <trkpt lat="48.79846" lon="2.20228">
        <ele>169</ele>
        <time>2014-01-26T10:39:31Z</time>
      </trkpt>
      <trkpt lat="48.79842" lon="2.20234">
        <ele>169</ele>
        <time>2014-01-26T10:39:35Z</time>
      </trkpt>
      <trkpt lat="48.79841" lon="2.20241">
        <ele>169</ele>
        <time>2014-01-26T10:39:38Z</time>
      </trkpt>
      <trkpt lat="48.7984" lon="2.20248">
        <ele>168</ele>
        <time>2014-01-26T10:39:45Z</time>
      </trkpt>
      <trkpt lat="48.79835" lon="2.2025">
        <ele>167</ele>
        <time>2014-01-26T10:39:50Z</time>
      </trkpt>
      <trkpt lat="48.79835" lon="2.20257">
        <ele>166</ele>
        <time>2014-01-26T10:39:55Z</time>
      </trkpt>
      <trkpt lat="48.79835" lon="2.20258">
        <ele>166</ele>
        <time>2014-01-26T10:40:13Z</time>
      </trkpt>
      <trkpt lat="48.79837" lon="2.20265">
        <ele>166</ele>
        <time>2014-01-26T10:40:24Z</time>
      </trkpt>
      <trkpt lat="48.79833" lon="2.20268">
        <ele>166</ele>
        <time>2014-01-26T10:40:30Z</time>
      </trkpt>
      <trkpt lat="48.79838" lon="2.20276">
        <ele>165</ele>
        <time>2014-01-26T10:40:41Z</time>
      </trkpt>
      <trkpt lat="48.7984" lon="2.2028">
        <ele>165</ele>
        <time>2014-01-26T10:41:02Z</time>
      </trkpt>
      <trkpt lat="48.79846" lon="2.2028">
        <ele>166</ele>
        <time>2014-01-26T10:41:12Z</time>
      </trkpt>
      <trkpt lat="48.79851" lon="2.20281">
        <ele>166</ele>
        <time>2014-01-26T10:41:17Z</time>
      </trkpt>
      <trkpt lat="48.79854" lon="2.20275">
        <ele>165</ele>
        <time>2014-01-26T10:41:22Z</time>
      </trkpt>
      <trkpt lat="48.79853" lon="2.20268">
        <ele>165</ele>
        <time>2014-01-26T10:41:26Z</time>
      </trkpt>
      <trkpt lat="48.79851" lon="2.20262">
        <ele>166</ele>
        <time>2014-01-26T10:41:29Z</time>
      </trkpt>
      <trkpt lat="48.79846" lon="2.20259">
        <ele>166</ele>
        <time>2014-01-26T10:41:33Z</time>
      </trkpt>
      <trkpt lat="48.79839" lon="2.20257">
        <ele>165</ele>
        <time>2014-01-26T10:41:36Z</time>
      </trkpt>
      <trkpt lat="48.79834" lon="2.20258">
        <ele>165</ele>
        <time>2014-01-26T10:41:39Z</time>
      </trkpt>
      <trkpt lat="48.79829" lon="2.20258">
        <ele>166</ele>
        <time>2014-01-26T10:41:44Z</time>
      </trkpt>
      <trkpt lat="48.79825" lon="2.20261">
        <ele>167</ele>
        <time>2014-01-26T10:41:50Z</time>
      </trkpt>
      <trkpt lat="48.79822" lon="2.20267">
        <ele>168</ele>
        <time>2014-01-26T10:41:54Z</time>
      </trkpt>
      <trkpt lat="48.79817" lon="2.20273">
        <ele>168</ele>
        <time>2014-01-26T10:41:58Z</time>
      </trkpt>
      <trkpt lat="48.79812" lon="2.20277">
        <ele>169</ele>
        <time>2014-01-26T10:42:01Z</time>
      </trkpt>
      <trkpt lat="48.79807" lon="2.2028">
        <ele>170</ele>
        <time>2014-01-26T10:42:04Z</time>
      </trkpt>
      <trkpt lat="48.79802" lon="2.20285">
        <ele>171</ele>
        <time>2014-01-26T10:42:09Z</time>
      </trkpt>
      <trkpt lat="48.79797" lon="2.2029">
        <ele>172</ele>
        <time>2014-01-26T10:42:13Z</time>
      </trkpt>
      <trkpt lat="48.79792" lon="2.20288">
        <ele>172</ele>
        <time>2014-01-26T10:42:17Z</time>
      </trkpt>
      <trkpt lat="48.79787" lon="2.20288">
        <ele>173</ele>
        <time>2014-01-26T10:42:21Z</time>
      </trkpt>
      <trkpt lat="48.79782" lon="2.20293">
        <ele>173</ele>
        <time>2014-01-26T10:42:25Z</time>
      </trkpt>
      <trkpt lat="48.79779" lon="2.20299">
        <ele>173</ele>
        <time>2014-01-26T10:42:28Z</time>
      </trkpt>
      <trkpt lat="48.79775" lon="2.20306">
        <ele>172</ele>
        <time>2014-01-26T10:42:32Z</time>
      </trkpt>
      <trkpt lat="48.79773" lon="2.20313">
        <ele>172</ele>
        <time>2014-01-26T10:42:36Z</time>
      </trkpt>
      <trkpt lat="48.7977" lon="2.20318">
        <ele>173</ele>
        <time>2014-01-26T10:42:40Z</time>
      </trkpt>
      <trkpt lat="48.79767" lon="2.20325">
        <ele>173</ele>
        <time>2014-01-26T10:42:44Z</time>
      </trkpt>
      <trkpt lat="48.79763" lon="2.2033">
        <ele>173</ele>
        <time>2014-01-26T10:42:48Z</time>
      </trkpt>
      <trkpt lat="48.79759" lon="2.20334">
        <ele>173</ele>
        <time>2014-01-26T10:42:52Z</time>
      </trkpt>
      <trkpt lat="48.79756" lon="2.20341">
        <ele>174</ele>
        <time>2014-01-26T10:42:57Z</time>
      </trkpt>
      <trkpt lat="48.79753" lon="2.20355">
        <ele>181</ele>
        <time>2014-01-26T10:43:05Z</time>
      </trkpt>
      <trkpt lat="48.79749" lon="2.20359">
        <ele>181</ele>
        <time>2014-01-26T10:43:08Z</time>
      </trkpt>
      <trkpt lat="48.79746" lon="2.20366">
        <ele>181</ele>
        <time>2014-01-26T10:43:12Z</time>
      </trkpt>
      <trkpt lat="48.79743" lon="2.2037">
        <ele>180</ele>
        <time>2014-01-26T10:43:15Z</time>
      </trkpt>
      <trkpt lat="48.79739" lon="2.20375">
        <ele>182</ele>
        <time>2014-01-26T10:43:21Z</time>
      </trkpt>
      <trkpt lat="48.79737" lon="2.20382">
        <ele>182</ele>
        <time>2014-01-26T10:43:25Z</time>
      </trkpt>
      <trkpt lat="48.79734" lon="2.20388">
        <ele>181</ele>
        <time>2014-01-26T10:43:29Z</time>
      </trkpt>
      <trkpt lat="48.79731" lon="2.20394">
        <ele>181</ele>
        <time>2014-01-26T10:43:32Z</time>
      </trkpt>
      <trkpt lat="48.79727" lon="2.204">
        <ele>180</ele>
        <time>2014-01-26T10:43:35Z</time>
      </trkpt>
      <trkpt lat="48.79724" lon="2.20407">
        <ele>179</ele>
        <time>2014-01-26T10:43:38Z</time>
      </trkpt>
      <trkpt lat="48.79721" lon="2.20413">
        <ele>178</ele>
        <time>2014-01-26T10:43:42Z</time>
      </trkpt>
      <trkpt lat="48.79716" lon="2.20415">
        <ele>179</ele>
        <time>2014-01-26T10:43:47Z</time>
      </trkpt>
      <trkpt lat="48.79711" lon="2.20416">
        <ele>179</ele>
        <time>2014-01-26T10:43:51Z</time>
      </trkpt>
      <trkpt lat="48.79708" lon="2.20422">
        <ele>179</ele>
        <time>2014-01-26T10:43:54Z</time>
      </trkpt>
      <trkpt lat="48.79706" lon="2.20429">
        <ele>180</ele>
        <time>2014-01-26T10:43:58Z</time>
      </trkpt>
      <trkpt lat="48.79702" lon="2.20435">
        <ele>179</ele>
        <time>2014-01-26T10:44:02Z</time>
      </trkpt>
      <trkpt lat="48.79698" lon="2.20438">
        <ele>179</ele>
        <time>2014-01-26T10:44:05Z</time>
      </trkpt>
      <trkpt lat="48.79694" lon="2.20442">
        <ele>178</ele>
        <time>2014-01-26T10:44:10Z</time>
      </trkpt>
      <trkpt lat="48.79689" lon="2.20444">
        <ele>178</ele>
        <time>2014-01-26T10:44:14Z</time>
      </trkpt>
      <trkpt lat="48.79684" lon="2.20445">
        <ele>177</ele>
        <time>2014-01-26T10:44:17Z</time>
      </trkpt>
      <trkpt lat="48.79678" lon="2.20447">
        <ele>177</ele>
        <time>2014-01-26T10:44:20Z</time>
      </trkpt>
      <trkpt lat="48.79673" lon="2.20449">
        <ele>177</ele>
        <time>2014-01-26T10:44:24Z</time>
      </trkpt>
      <trkpt lat="48.79669" lon="2.20451">
        <ele>176</ele>
        <time>2014-01-26T10:44:28Z</time>
      </trkpt>
      <trkpt lat="48.79664" lon="2.20453">
        <ele>176</ele>
        <time>2014-01-26T10:44:34Z</time>
      </trkpt>
      <trkpt lat="48.79658" lon="2.20452">
        <ele>177</ele>
        <time>2014-01-26T10:44:38Z</time>
      </trkpt>
      <trkpt lat="48.79653" lon="2.20452">
        <ele>178</ele>
        <time>2014-01-26T10:44:44Z</time>
      </trkpt>
      <trkpt lat="48.79648" lon="2.20452">
        <ele>179</ele>
        <time>2014-01-26T10:44:49Z</time>
      </trkpt>
      <trkpt lat="48.79643" lon="2.20453">
        <ele>180</ele>
        <time>2014-01-26T10:44:57Z</time>
      </trkpt>
      <trkpt lat="48.79638" lon="2.20451">
        <ele>178</ele>
        <time>2014-01-26T10:45:04Z</time>
      </trkpt>
      <trkpt lat="48.79632" lon="2.20455">
        <ele>173</ele>
        <time>2014-01-26T10:45:08Z</time>
      </trkpt>
      <trkpt lat="48.79628" lon="2.20451">
        <ele>167</ele>
        <time>2014-01-26T10:45:27Z</time>
      </trkpt>
      <trkpt lat="48.79625" lon="2.20444">
        <ele>168</ele>
        <time>2014-01-26T10:45:32Z</time>
      </trkpt>
      <trkpt lat="48.79623" lon="2.20439">
        <ele>169</ele>
        <time>2014-01-26T10:45:38Z</time>
      </trkpt>
      <trkpt lat="48.79616" lon="2.20428">
        <ele>174</ele>
        <time>2014-01-26T10:45:50Z</time>
      </trkpt>
      <trkpt lat="48.79614" lon="2.20419">
        <ele>174</ele>
        <time>2014-01-26T10:45:57Z</time>
      </trkpt>
      <trkpt lat="48.79614" lon="2.20412">
        <ele>175</ele>
        <time>2014-01-26T10:46:01Z</time>
      </trkpt>
      <trkpt lat="48.79613" lon="2.20404">
        <ele>175</ele>
        <time>2014-01-26T10:46:05Z</time>
      </trkpt>
      <trkpt lat="48.79611" lon="2.20397">
        <ele>175</ele>
        <time>2014-01-26T10:46:10Z</time>
      </trkpt>
      <trkpt lat="48.79608" lon="2.20391">
        <ele>175</ele>
        <time>2014-01-26T10:46:13Z</time>
      </trkpt>
      <trkpt lat="48.79606" lon="2.20384">
        <ele>174</ele>
        <time>2014-01-26T10:46:16Z</time>
      </trkpt>
      <trkpt lat="48.79603" lon="2.20377">
        <ele>174</ele>
        <time>2014-01-26T10:46:19Z</time>
      </trkpt>
      <trkpt lat="48.79603" lon="2.2037">
        <ele>174</ele>
        <time>2014-01-26T10:46:23Z</time>
      </trkpt>
      <trkpt lat="48.79601" lon="2.20364">
        <ele>174</ele>
        <time>2014-01-26T10:46:28Z</time>
      </trkpt>
      <trkpt lat="48.796" lon="2.20357">
        <ele>177</ele>
        <time>2014-01-26T10:46:34Z</time>
      </trkpt>
      <trkpt lat="48.79599" lon="2.20349">
        <ele>177</ele>
        <time>2014-01-26T10:46:37Z</time>
      </trkpt>
      <trkpt lat="48.79597" lon="2.20342">
        <ele>176</ele>
        <time>2014-01-26T10:46:40Z</time>
      </trkpt>
      <trkpt lat="48.79594" lon="2.20335">
        <ele>176</ele>
        <time>2014-01-26T10:46:43Z</time>
      </trkpt>
      <trkpt lat="48.7959" lon="2.20329">
        <ele>174</ele>
        <time>2014-01-26T10:46:46Z</time>
      </trkpt>
      <trkpt lat="48.79585" lon="2.20324">
        <ele>173</ele>
        <time>2014-01-26T10:46:49Z</time>
      </trkpt>
      <trkpt lat="48.79581" lon="2.20317">
        <ele>172</ele>
        <time>2014-01-26T10:46:53Z</time>
      </trkpt>
      <trkpt lat="48.79579" lon="2.2031">
        <ele>170</ele>
        <time>2014-01-26T10:46:57Z</time>
      </trkpt>
      <trkpt lat="48.79576" lon="2.20304">
        <ele>169</ele>
        <time>2014-01-26T10:47:01Z</time>
      </trkpt>
      <trkpt lat="48.79574" lon="2.20298">
        <ele>168</ele>
        <time>2014-01-26T10:47:05Z</time>
      </trkpt>
      <trkpt lat="48.79571" lon="2.20292">
        <ele>167</ele>
        <time>2014-01-26T10:47:10Z</time>
      </trkpt>
      <trkpt lat="48.79567" lon="2.20285">
        <ele>164</ele>
        <time>2014-01-26T10:47:15Z</time>
      </trkpt>
      <trkpt lat="48.79566" lon="2.20278">
        <ele>163</ele>
        <time>2014-01-26T10:47:19Z</time>
      </trkpt>
      <trkpt lat="48.79564" lon="2.2027">
        <ele>163</ele>
        <time>2014-01-26T10:47:22Z</time>
      </trkpt>
      <trkpt lat="48.79562" lon="2.20261">
        <ele>162</ele>
        <time>2014-01-26T10:47:25Z</time>
      </trkpt>
      <trkpt lat="48.7956" lon="2.20254">
        <ele>162</ele>
        <time>2014-01-26T10:47:28Z</time>
      </trkpt>
      <trkpt lat="48.79556" lon="2.2025">
        <ele>162</ele>
        <time>2014-01-26T10:47:32Z</time>
      </trkpt>
      <trkpt lat="48.79557" lon="2.20242">
        <ele>161</ele>
        <time>2014-01-26T10:47:38Z</time>
      </trkpt>
      <trkpt lat="48.79557" lon="2.20233">
        <ele>159</ele>
        <time>2014-01-26T10:47:45Z</time>
      </trkpt>
      <trkpt lat="48.79556" lon="2.20226">
        <ele>157</ele>
        <time>2014-01-26T10:47:48Z</time>
      </trkpt>
      <trkpt lat="48.79554" lon="2.20219">
        <ele>155</ele>
        <time>2014-01-26T10:47:51Z</time>
      </trkpt>
      <trkpt lat="48.79551" lon="2.20213">
        <ele>154</ele>
        <time>2014-01-26T10:47:54Z</time>
      </trkpt>
      <trkpt lat="48.79547" lon="2.20206">
        <ele>153</ele>
        <time>2014-01-26T10:47:57Z</time>
      </trkpt>
      <trkpt lat="48.79543" lon="2.202">
        <ele>152</ele>
        <time>2014-01-26T10:48:01Z</time>
      </trkpt>
      <trkpt lat="48.79539" lon="2.20194">
        <ele>151</ele>
        <time>2014-01-26T10:48:05Z</time>
      </trkpt>
      <trkpt lat="48.79534" lon="2.20191">
        <ele>150</ele>
        <time>2014-01-26T10:48:08Z</time>
      </trkpt>
      <trkpt lat="48.7953" lon="2.20188">
        <ele>148</ele>
        <time>2014-01-26T10:48:11Z</time>
      </trkpt>
      <trkpt lat="48.79525" lon="2.20185">
        <ele>147</ele>
        <time>2014-01-26T10:48:16Z</time>
      </trkpt>
      <trkpt lat="48.79522" lon="2.20179">
        <ele>145</ele>
        <time>2014-01-26T10:48:20Z</time>
      </trkpt>
      <trkpt lat="48.79521" lon="2.20173">
        <ele>145</ele>
        <time>2014-01-26T10:48:23Z</time>
      </trkpt>
      <trkpt lat="48.79518" lon="2.20167">
        <ele>143</ele>
        <time>2014-01-26T10:48:26Z</time>
      </trkpt>
      <trkpt lat="48.79514" lon="2.20164">
        <ele>143</ele>
        <time>2014-01-26T10:48:34Z</time>
      </trkpt>
      <trkpt lat="48.79509" lon="2.20161">
        <ele>144</ele>
        <time>2014-01-26T10:48:38Z</time>
      </trkpt>
      <trkpt lat="48.79504" lon="2.20161">
        <ele>143</ele>
        <time>2014-01-26T10:48:43Z</time>
      </trkpt>
      <trkpt lat="48.79498" lon="2.20163">
        <ele>142</ele>
        <time>2014-01-26T10:48:48Z</time>
      </trkpt>
      <trkpt lat="48.79495" lon="2.20167">
        <ele>140</ele>
        <time>2014-01-26T10:48:53Z</time>
      </trkpt>
      <trkpt lat="48.79497" lon="2.20174">
        <ele>135</ele>
        <time>2014-01-26T10:49:00Z</time>
      </trkpt>
      <trkpt lat="48.79502" lon="2.20171">
        <ele>133</ele>
        <time>2014-01-26T10:49:07Z</time>
      </trkpt>
      <trkpt lat="48.79506" lon="2.20169">
        <ele>127</ele>
        <time>2014-01-26T10:49:17Z</time>
      </trkpt>
      <trkpt lat="48.79505" lon="2.20162">
        <ele>126</ele>
        <time>2014-01-26T10:49:22Z</time>
      </trkpt>
      <trkpt lat="48.79502" lon="2.20158">
        <ele>126</ele>
        <time>2014-01-26T10:49:32Z</time>
      </trkpt>
      <trkpt lat="48.79503" lon="2.2015">
        <ele>130</ele>
        <time>2014-01-26T10:49:47Z</time>
      </trkpt>
      <trkpt lat="48.79498" lon="2.20147">
        <ele>130</ele>
        <time>2014-01-26T10:49:52Z</time>
      </trkpt>
      <trkpt lat="48.79494" lon="2.20146">
        <ele>130</ele>
        <time>2014-01-26T10:49:54Z</time>
      </trkpt>
      <trkpt lat="48.79488" lon="2.20145">
        <ele>131</ele>
        <time>2014-01-26T10:49:57Z</time>
      </trkpt>
      <trkpt lat="48.79483" lon="2.20145">
        <ele>132</ele>
        <time>2014-01-26T10:50:02Z</time>
      </trkpt>
      <trkpt lat="48.79477" lon="2.20146">
        <ele>132</ele>
        <time>2014-01-26T10:50:06Z</time>
      </trkpt>
      <trkpt lat="48.79472" lon="2.20143">
        <ele>133</ele>
        <time>2014-01-26T10:50:10Z</time>
      </trkpt>
      <trkpt lat="48.79467" lon="2.20142">
        <ele>133</ele>
        <time>2014-01-26T10:50:14Z</time>
      </trkpt>
      <trkpt lat="48.79463" lon="2.20138">
        <ele>135</ele>
        <time>2014-01-26T10:50:20Z</time>
      </trkpt>
      <trkpt lat="48.79459" lon="2.20132">
        <ele>136</ele>
        <time>2014-01-26T10:50:26Z</time>
      </trkpt>
      <trkpt lat="48.79455" lon="2.20128">
        <ele>137</ele>
        <time>2014-01-26T10:50:31Z</time>
      </trkpt>
      <trkpt lat="48.7945" lon="2.20125">
        <ele>139</ele>
        <time>2014-01-26T10:50:37Z</time>
      </trkpt>
      <trkpt lat="48.79445" lon="2.20122">
        <ele>140</ele>
        <time>2014-01-26T10:50:44Z</time>
      </trkpt>
      <trkpt lat="48.79442" lon="2.20117">
        <ele>139</ele>
        <time>2014-01-26T10:50:49Z</time>
      </trkpt>
      <trkpt lat="48.79438" lon="2.20112">
        <ele>140</ele>
        <time>2014-01-26T10:50:53Z</time>
      </trkpt>
      <trkpt lat="48.79433" lon="2.20106">
        <ele>140</ele>
        <time>2014-01-26T10:50:57Z</time>
      </trkpt>
      <trkpt lat="48.79429" lon="2.201">
        <ele>140</ele>
        <time>2014-01-26T10:51:01Z</time>
      </trkpt>
      <trkpt lat="48.79426" lon="2.20094">
        <ele>140</ele>
        <time>2014-01-26T10:51:04Z</time>
      </trkpt>
      <trkpt lat="48.79423" lon="2.20087">
        <ele>139</ele>
        <time>2014-01-26T10:51:09Z</time>
      </trkpt>
      <trkpt lat="48.7942" lon="2.20081">
        <ele>138</ele>
        <time>2014-01-26T10:51:13Z</time>
      </trkpt>
      <trkpt lat="48.79417" lon="2.20074">
        <ele>138</ele>
        <time>2014-01-26T10:51:19Z</time>
      </trkpt>
      <trkpt lat="48.79411" lon="2.20072">
        <ele>138</ele>
        <time>2014-01-26T10:51:22Z</time>
      </trkpt>
      <trkpt lat="48.79406" lon="2.20069">
        <ele>137</ele>
        <time>2014-01-26T10:51:25Z</time>
      </trkpt>
      <trkpt lat="48.79401" lon="2.20066">
        <ele>137</ele>
        <time>2014-01-26T10:51:28Z</time>
      </trkpt>
      <trkpt lat="48.79398" lon="2.20061">
        <ele>137</ele>
        <time>2014-01-26T10:51:31Z</time>
      </trkpt>
      <trkpt lat="48.79392" lon="2.20057">
        <ele>136</ele>
        <time>2014-01-26T10:51:35Z</time>
      </trkpt>
      <trkpt lat="48.79387" lon="2.20054">
        <ele>136</ele>
        <time>2014-01-26T10:51:37Z</time>
      </trkpt>
      <trkpt lat="48.79381" lon="2.20052">
        <ele>135</ele>
        <time>2014-01-26T10:51:40Z</time>
      </trkpt>
      <trkpt lat="48.79376" lon="2.20048">
        <ele>134</ele>
        <time>2014-01-26T10:51:44Z</time>
      </trkpt>
      <trkpt lat="48.79371" lon="2.20046">
        <ele>133</ele>
        <time>2014-01-26T10:51:47Z</time>
      </trkpt>
      <trkpt lat="48.79366" lon="2.20045">
        <ele>132</ele>
        <time>2014-01-26T10:51:50Z</time>
      </trkpt>
      <trkpt lat="48.79361" lon="2.20041">
        <ele>131</ele>
        <time>2014-01-26T10:51:54Z</time>
      </trkpt>
      <trkpt lat="48.79357" lon="2.2004">
        <ele>132</ele>
        <time>2014-01-26T10:51:57Z</time>
      </trkpt>
      <trkpt lat="48.79351" lon="2.20037">
        <ele>132</ele>
        <time>2014-01-26T10:52:00Z</time>
      </trkpt>
      <trkpt lat="48.79347" lon="2.20034">
        <ele>133</ele>
        <time>2014-01-26T10:52:04Z</time>
      </trkpt>
      <trkpt lat="48.79341" lon="2.20032">
        <ele>133</ele>
        <time>2014-01-26T10:52:08Z</time>
      </trkpt>
      <trkpt lat="48.79336" lon="2.20033">
        <ele>134</ele>
        <time>2014-01-26T10:52:11Z</time>
      </trkpt>
      <trkpt lat="48.79331" lon="2.20033">
        <ele>134</ele>
        <time>2014-01-26T10:52:14Z</time>
      </trkpt>
      <trkpt lat="48.79326" lon="2.20034">
        <ele>133</ele>
        <time>2014-01-26T10:52:17Z</time>
      </trkpt>
      <trkpt lat="48.7932" lon="2.20034">
        <ele>131</ele>
        <time>2014-01-26T10:52:21Z</time>
      </trkpt>
      <trkpt lat="48.79316" lon="2.20035">
        <ele>130</ele>
        <time>2014-01-26T10:52:25Z</time>
      </trkpt>
      <trkpt lat="48.79311" lon="2.20036">
        <ele>130</ele>
        <time>2014-01-26T10:52:28Z</time>
      </trkpt>
      <trkpt lat="48.79305" lon="2.20037">
        <ele>129</ele>
        <time>2014-01-26T10:52:32Z</time>
      </trkpt>
      <trkpt lat="48.793" lon="2.2004">
        <ele>129</ele>
        <time>2014-01-26T10:52:36Z</time>
      </trkpt>
      <trkpt lat="48.79295" lon="2.20043">
        <ele>129</ele>
        <time>2014-01-26T10:52:40Z</time>
      </trkpt>
      <trkpt lat="48.79291" lon="2.20042">
        <ele>130</ele>
        <time>2014-01-26T10:52:44Z</time>
      </trkpt>
      <trkpt lat="48.79288" lon="2.20037">
        <ele>130</ele>
        <time>2014-01-26T10:52:50Z</time>
      </trkpt>
      <trkpt lat="48.79283" lon="2.20034">
        <ele>131</ele>
        <time>2014-01-26T10:52:53Z</time>
      </trkpt>
      <trkpt lat="48.79277" lon="2.20032">
        <ele>131</ele>
        <time>2014-01-26T10:52:57Z</time>
      </trkpt>
      <trkpt lat="48.79272" lon="2.20031">
        <ele>131</ele>
        <time>2014-01-26T10:53:00Z</time>
      </trkpt>
      <trkpt lat="48.79267" lon="2.2003">
        <ele>132</ele>
        <time>2014-01-26T10:53:03Z</time>
      </trkpt>
      <trkpt lat="48.79262" lon="2.20031">
        <ele>131</ele>
        <time>2014-01-26T10:53:07Z</time>
      </trkpt>
      <trkpt lat="48.79257" lon="2.20034">
        <ele>132</ele>
        <time>2014-01-26T10:53:16Z</time>
      </trkpt>
      <trkpt lat="48.79252" lon="2.20033">
        <ele>133</ele>
        <time>2014-01-26T10:53:21Z</time>
      </trkpt>
      <trkpt lat="48.79247" lon="2.20031">
        <ele>133</ele>
        <time>2014-01-26T10:53:26Z</time>
      </trkpt>
      <trkpt lat="48.79243" lon="2.20028">
        <ele>133</ele>
        <time>2014-01-26T10:53:30Z</time>
      </trkpt>
      <trkpt lat="48.79237" lon="2.20027">
        <ele>133</ele>
        <time>2014-01-26T10:53:34Z</time>
      </trkpt>
      <trkpt lat="48.79232" lon="2.20024">
        <ele>134</ele>
        <time>2014-01-26T10:53:39Z</time>
      </trkpt>
      <trkpt lat="48.79226" lon="2.20022">
        <ele>136</ele>
        <time>2014-01-26T10:53:44Z</time>
      </trkpt>
      <trkpt lat="48.79221" lon="2.20022">
        <ele>137</ele>
        <time>2014-01-26T10:53:48Z</time>
      </trkpt>
      <trkpt lat="48.79207" lon="2.20026">
        <ele>144</ele>
        <time>2014-01-26T10:54:02Z</time>
      </trkpt>
      <trkpt lat="48.79202" lon="2.20026">
        <ele>145</ele>
        <time>2014-01-26T10:54:05Z</time>
      </trkpt>
      <trkpt lat="48.79196" lon="2.20025">
        <ele>146</ele>
        <time>2014-01-26T10:54:08Z</time>
      </trkpt>
      <trkpt lat="48.79191" lon="2.20025">
        <ele>145</ele>
        <time>2014-01-26T10:54:10Z</time>
      </trkpt>
      <trkpt lat="48.79186" lon="2.20025">
        <ele>144</ele>
        <time>2014-01-26T10:54:13Z</time>
      </trkpt>
      <trkpt lat="48.79181" lon="2.20023">
        <ele>143</ele>
        <time>2014-01-26T10:54:17Z</time>
      </trkpt>
      <trkpt lat="48.79177" lon="2.2002">
        <ele>141</ele>
        <time>2014-01-26T10:54:26Z</time>
      </trkpt>
      <trkpt lat="48.79171" lon="2.2002">
        <ele>142</ele>
        <time>2014-01-26T10:54:31Z</time>
      </trkpt>
      <trkpt lat="48.79166" lon="2.20019">
        <ele>143</ele>
        <time>2014-01-26T10:54:35Z</time>
      </trkpt>
      <trkpt lat="48.79161" lon="2.20019">
        <ele>144</ele>
        <time>2014-01-26T10:54:38Z</time>
      </trkpt>
      <trkpt lat="48.79157" lon="2.20017">
        <ele>146</ele>
        <time>2014-01-26T10:54:43Z</time>
      </trkpt>
      <trkpt lat="48.79147" lon="2.20018">
        <ele>151</ele>
        <time>2014-01-26T10:54:55Z</time>
      </trkpt>
      <trkpt lat="48.79142" lon="2.20015">
        <ele>151</ele>
        <time>2014-01-26T10:55:00Z</time>
      </trkpt>
      <trkpt lat="48.79137" lon="2.20014">
        <ele>151</ele>
        <time>2014-01-26T10:55:05Z</time>
      </trkpt>
      <trkpt lat="48.79132" lon="2.20014">
        <ele>152</ele>
        <time>2014-01-26T10:55:08Z</time>
      </trkpt>
      <trkpt lat="48.79124" lon="2.20016">
        <ele>152</ele>
        <time>2014-01-26T10:55:11Z</time>
      </trkpt>
      <trkpt lat="48.79118" lon="2.20016">
        <ele>152</ele>
        <time>2014-01-26T10:55:14Z</time>
      </trkpt>
      <trkpt lat="48.79113" lon="2.20014">
        <ele>152</ele>
        <time>2014-01-26T10:55:17Z</time>
      </trkpt>
      <trkpt lat="48.79109" lon="2.20013">
        <ele>152</ele>
        <time>2014-01-26T10:55:20Z</time>
      </trkpt>
      <trkpt lat="48.79104" lon="2.20014">
        <ele>152</ele>
        <time>2014-01-26T10:55:23Z</time>
      </trkpt>
      <trkpt lat="48.791" lon="2.20013">
        <ele>152</ele>
        <time>2014-01-26T10:55:28Z</time>
      </trkpt>
      <trkpt lat="48.79094" lon="2.20013">
        <ele>151</ele>
        <time>2014-01-26T10:55:32Z</time>
      </trkpt>
      <trkpt lat="48.7909" lon="2.2001">
        <ele>151</ele>
        <time>2014-01-26T10:55:38Z</time>
      </trkpt>
      <trkpt lat="48.79085" lon="2.20009">
        <ele>151</ele>
        <time>2014-01-26T10:55:42Z</time>
      </trkpt>
      <trkpt lat="48.79079" lon="2.20008">
        <ele>151</ele>
        <time>2014-01-26T10:55:46Z</time>
      </trkpt>
      <trkpt lat="48.79075" lon="2.20009">
        <ele>151</ele>
        <time>2014-01-26T10:55:50Z</time>
      </trkpt>
      <trkpt lat="48.7907" lon="2.20009">
        <ele>152</ele>
        <time>2014-01-26T10:55:53Z</time>
      </trkpt>
      <trkpt lat="48.79064" lon="2.20008">
        <ele>152</ele>
        <time>2014-01-26T10:55:56Z</time>
      </trkpt>
      <trkpt lat="48.79059" lon="2.20009">
        <ele>153</ele>
        <time>2014-01-26T10:56:00Z</time>
      </trkpt>
      <trkpt lat="48.79056" lon="2.20008">
        <ele>155</ele>
        <time>2014-01-26T10:56:07Z</time>
      </trkpt>
      <trkpt lat="48.79051" lon="2.20006">
        <ele>157</ele>
        <time>2014-01-26T10:56:12Z</time>
      </trkpt>
      <trkpt lat="48.79046" lon="2.20007">
        <ele>158</ele>
        <time>2014-01-26T10:56:15Z</time>
      </trkpt>
      <trkpt lat="48.79041" lon="2.20007">
        <ele>158</ele>
        <time>2014-01-26T10:56:18Z</time>
      </trkpt>
      <trkpt lat="48.79036" lon="2.20007">
        <ele>159</ele>
        <time>2014-01-26T10:56:21Z</time>
      </trkpt>
      <trkpt lat="48.79031" lon="2.20007">
        <ele>160</ele>
        <time>2014-01-26T10:56:25Z</time>
      </trkpt>
      <trkpt lat="48.79026" lon="2.20006">
        <ele>160</ele>
        <time>2014-01-26T10:56:29Z</time>
      </trkpt>
      <trkpt lat="48.79019" lon="2.20005">
        <ele>159</ele>
        <time>2014-01-26T10:56:32Z</time>
      </trkpt>
      <trkpt lat="48.79014" lon="2.20003">
        <ele>160</ele>
        <time>2014-01-26T10:56:35Z</time>
      </trkpt>
      <trkpt lat="48.79008" lon="2.20002">
        <ele>160</ele>
        <time>2014-01-26T10:56:38Z</time>
      </trkpt>
      <trkpt lat="48.79003" lon="2.20002">
        <ele>158</ele>
        <time>2014-01-26T10:56:42Z</time>
      </trkpt>
      <trkpt lat="48.78998" lon="2.20001">
        <ele>156</ele>
        <time>2014-01-26T10:56:47Z</time>
      </trkpt>
      <trkpt lat="48.78993" lon="2.20001">
        <ele>155</ele>
        <time>2014-01-26T10:56:53Z</time>
      </trkpt>
      <trkpt lat="48.78988" lon="2.20001">
        <ele>155</ele>
        <time>2014-01-26T10:56:57Z</time>
      </trkpt>
      <trkpt lat="48.78983" lon="2.20004">
        <ele>154</ele>
        <time>2014-01-26T10:57:00Z</time>
      </trkpt>
      <trkpt lat="48.78974" lon="2.20008">
        <ele>147</ele>
        <time>2014-01-26T10:57:05Z</time>
      </trkpt>
      <trkpt lat="48.78975" lon="2.20011">
        <ele>142</ele>
        <time>2014-01-26T10:57:44Z</time>
      </trkpt>
      <trkpt lat="48.7897" lon="2.20012">
        <ele>142</ele>
        <time>2014-01-26T10:57:49Z</time>
      </trkpt>
      <trkpt lat="48.78971" lon="2.20005">
        <ele>142</ele>
        <time>2014-01-26T10:57:56Z</time>
      </trkpt>
      <trkpt lat="48.7897" lon="2.2">
        <ele>144</ele>
        <time>2014-01-26T10:58:18Z</time>
      </trkpt>
      <trkpt lat="48.78964" lon="2.19998">
        <ele>145</ele>
        <time>2014-01-26T10:58:28Z</time>
      </trkpt>
      <trkpt lat="48.78962" lon="2.19992">
        <ele>146</ele>
        <time>2014-01-26T10:58:33Z</time>
      </trkpt>
      <trkpt lat="48.78957" lon="2.19988">
        <ele>147</ele>
        <time>2014-01-26T10:58:38Z</time>
      </trkpt>
      <trkpt lat="48.78952" lon="2.19986">
        <ele>147</ele>
        <time>2014-01-26T10:58:43Z</time>
      </trkpt>
      <trkpt lat="48.78947" lon="2.19981">
        <ele>148</ele>
        <time>2014-01-26T10:58:49Z</time>
      </trkpt>
      <trkpt lat="48.78943" lon="2.19978">
        <ele>148</ele>
        <time>2014-01-26T10:58:53Z</time>
      </trkpt>
      <trkpt lat="48.78938" lon="2.19976">
        <ele>148</ele>
        <time>2014-01-26T10:58:57Z</time>
      </trkpt>
      <trkpt lat="48.78934" lon="2.19972">
        <ele>148</ele>
        <time>2014-01-26T10:59:01Z</time>
      </trkpt>
      <trkpt lat="48.78931" lon="2.19967">
        <ele>148</ele>
        <time>2014-01-26T10:59:05Z</time>
      </trkpt>
      <trkpt lat="48.78929" lon="2.1996">
        <ele>150</ele>
        <time>2014-01-26T10:59:09Z</time>
      </trkpt>
      <trkpt lat="48.78924" lon="2.19957">
        <ele>152</ele>
        <time>2014-01-26T10:59:13Z</time>
      </trkpt>
      <trkpt lat="48.78918" lon="2.19954">
        <ele>152</ele>
        <time>2014-01-26T10:59:17Z</time>
      </trkpt>
      <trkpt lat="48.78913" lon="2.19951">
        <ele>153</ele>
        <time>2014-01-26T10:59:20Z</time>
      </trkpt>
      <trkpt lat="48.78909" lon="2.19948">
        <ele>152</ele>
        <time>2014-01-26T10:59:23Z</time>
      </trkpt>
      <trkpt lat="48.78903" lon="2.19944">
        <ele>152</ele>
        <time>2014-01-26T10:59:27Z</time>
      </trkpt>
      <trkpt lat="48.78899" lon="2.19941">
        <ele>150</ele>
        <time>2014-01-26T10:59:30Z</time>
      </trkpt>
      <trkpt lat="48.78894" lon="2.19938">
        <ele>148</ele>
        <time>2014-01-26T10:59:33Z</time>
      </trkpt>
      <trkpt lat="48.78891" lon="2.19934">
        <ele>147</ele>
        <time>2014-01-26T10:59:37Z</time>
      </trkpt>
      <trkpt lat="48.78886" lon="2.19929">
        <ele>148</ele>
        <time>2014-01-26T10:59:42Z</time>
      </trkpt>
      <trkpt lat="48.78882" lon="2.19923">
        <ele>149</ele>
        <time>2014-01-26T10:59:45Z</time>
      </trkpt>
      <trkpt lat="48.78878" lon="2.19919">
        <ele>149</ele>
        <time>2014-01-26T10:59:49Z</time>
      </trkpt>
      <trkpt lat="48.78875" lon="2.19914">
        <ele>149</ele>
        <time>2014-01-26T10:59:56Z</time>
      </trkpt>
      <trkpt lat="48.78871" lon="2.19911">
        <ele>149</ele>
        <time>2014-01-26T11:00:00Z</time>
      </trkpt>
      <trkpt lat="48.78867" lon="2.19905">
        <ele>151</ele>
        <time>2014-01-26T11:00:06Z</time>
      </trkpt>
      <trkpt lat="48.78863" lon="2.19901">
        <ele>153</ele>
        <time>2014-01-26T11:00:09Z</time>
      </trkpt>
      <trkpt lat="48.78857" lon="2.19899">
        <ele>153</ele>
        <time>2014-01-26T11:00:13Z</time>
      </trkpt>
      <trkpt lat="48.78853" lon="2.19895">
        <ele>154</ele>
        <time>2014-01-26T11:00:16Z</time>
      </trkpt>
      <trkpt lat="48.7885" lon="2.19889">
        <ele>155</ele>
        <time>2014-01-26T11:00:20Z</time>
      </trkpt>
      <trkpt lat="48.78846" lon="2.19886">
        <ele>155</ele>
        <time>2014-01-26T11:00:23Z</time>
      </trkpt>
      <trkpt lat="48.7884" lon="2.19883">
        <ele>156</ele>
        <time>2014-01-26T11:00:26Z</time>
      </trkpt>
      <trkpt lat="48.78836" lon="2.1988">
        <ele>157</ele>
        <time>2014-01-26T11:00:31Z</time>
      </trkpt>
      <trkpt lat="48.78831" lon="2.19875">
        <ele>158</ele>
        <time>2014-01-26T11:00:35Z</time>
      </trkpt>
      <trkpt lat="48.78827" lon="2.19871">
        <ele>159</ele>
        <time>2014-01-26T11:00:39Z</time>
      </trkpt>
      <trkpt lat="48.78823" lon="2.19866">
        <ele>161</ele>
        <time>2014-01-26T11:00:46Z</time>
      </trkpt>
      <trkpt lat="48.78817" lon="2.19864">
        <ele>164</ele>
        <time>2014-01-26T11:00:50Z</time>
      </trkpt>
      <trkpt lat="48.78812" lon="2.19863">
        <ele>165</ele>
        <time>2014-01-26T11:00:53Z</time>
      </trkpt>
      <trkpt lat="48.78806" lon="2.19852">
        <ele>165</ele>
        <time>2014-01-26T11:01:00Z</time>
      </trkpt>
      <trkpt lat="48.78801" lon="2.19849">
        <ele>165</ele>
        <time>2014-01-26T11:01:04Z</time>
      </trkpt>
      <trkpt lat="48.78784" lon="2.1985">
        <ele>156</ele>
        <time>2014-01-26T11:01:14Z</time>
      </trkpt>
      <trkpt lat="48.7878" lon="2.19845">
        <ele>154</ele>
        <time>2014-01-26T11:01:21Z</time>
      </trkpt>
      <trkpt lat="48.78776" lon="2.19839">
        <ele>153</ele>
        <time>2014-01-26T11:01:26Z</time>
      </trkpt>
      <trkpt lat="48.78772" lon="2.19835">
        <ele>153</ele>
        <time>2014-01-26T11:01:29Z</time>
      </trkpt>
      <trkpt lat="48.78768" lon="2.19832">
        <ele>153</ele>
        <time>2014-01-26T11:01:32Z</time>
      </trkpt>
      <trkpt lat="48.78762" lon="2.1983">
        <ele>152</ele>
        <time>2014-01-26T11:01:35Z</time>
      </trkpt>
      <trkpt lat="48.78757" lon="2.19829">
        <ele>150</ele>
        <time>2014-01-26T11:01:39Z</time>
      </trkpt>
      <trkpt lat="48.78753" lon="2.19823">
        <ele>151</ele>
        <time>2014-01-26T11:01:47Z</time>
      </trkpt>
      <trkpt lat="48.78753" lon="2.19815">
        <ele>152</ele>
        <time>2014-01-26T11:01:51Z</time>
      </trkpt>
      <trkpt lat="48.78754" lon="2.19807">
        <ele>154</ele>
        <time>2014-01-26T11:01:59Z</time>
      </trkpt>
      <trkpt lat="48.7875" lon="2.19803">
        <ele>157</ele>
        <time>2014-01-26T11:02:03Z</time>
      </trkpt>
      <trkpt lat="48.78746" lon="2.198">
        <ele>158</ele>
        <time>2014-01-26T11:02:07Z</time>
      </trkpt>
      <trkpt lat="48.7874" lon="2.198">
        <ele>157</ele>
        <time>2014-01-26T11:02:10Z</time>
      </trkpt>
      <trkpt lat="48.78735" lon="2.19802">
        <ele>156</ele>
        <time>2014-01-26T11:02:15Z</time>
      </trkpt>
      <trkpt lat="48.7873" lon="2.19802">
        <ele>155</ele>
        <time>2014-01-26T11:02:18Z</time>
      </trkpt>
      <trkpt lat="48.78728" lon="2.19796">
        <ele>153</ele>
        <time>2014-01-26T11:02:28Z</time>
      </trkpt>
      <trkpt lat="48.78729" lon="2.19789">
        <ele>150</ele>
        <time>2014-01-26T11:03:13Z</time>
      </trkpt>
      <trkpt lat="48.78733" lon="2.19785">
        <ele>153</ele>
        <time>2014-01-26T11:03:17Z</time>
      </trkpt>
      <trkpt lat="48.78736" lon="2.1978">
        <ele>155</ele>
        <time>2014-01-26T11:03:21Z</time>
      </trkpt>
      <trkpt lat="48.78738" lon="2.19773">
        <ele>155</ele>
        <time>2014-01-26T11:03:25Z</time>
      </trkpt>
      <trkpt lat="48.78738" lon="2.19766">
        <ele>156</ele>
        <time>2014-01-26T11:03:30Z</time>
      </trkpt>
      <trkpt lat="48.78741" lon="2.19759">
        <ele>157</ele>
        <time>2014-01-26T11:03:35Z</time>
      </trkpt>
      <trkpt lat="48.78744" lon="2.19755">
        <ele>157</ele>
        <time>2014-01-26T11:03:39Z</time>
      </trkpt>
      <trkpt lat="48.78747" lon="2.19749">
        <ele>158</ele>
        <time>2014-01-26T11:03:43Z</time>
      </trkpt>
      <trkpt lat="48.78751" lon="2.19744">
        <ele>158</ele>
        <time>2014-01-26T11:03:47Z</time>
      </trkpt>
      <trkpt lat="48.78753" lon="2.19741">
        <ele>159</ele>
        <time>2014-01-26T11:03:55Z</time>
      </trkpt>
      <trkpt lat="48.78754" lon="2.19731">
        <ele>161</ele>
        <time>2014-01-26T11:04:06Z</time>
      </trkpt>
      <trkpt lat="48.78755" lon="2.19724">
        <ele>161</ele>
        <time>2014-01-26T11:04:10Z</time>
      </trkpt>
      <trkpt lat="48.78754" lon="2.19717">
        <ele>162</ele>
        <time>2014-01-26T11:04:15Z</time>
      </trkpt>
      <trkpt lat="48.78755" lon="2.19708">
        <ele>163</ele>
        <time>2014-01-26T11:04:20Z</time>
      </trkpt>
      <trkpt lat="48.78758" lon="2.19701">
        <ele>164</ele>
        <time>2014-01-26T11:04:23Z</time>
      </trkpt>
      <trkpt lat="48.7876" lon="2.19694">
        <ele>165</ele>
        <time>2014-01-26T11:04:27Z</time>
      </trkpt>
      <trkpt lat="48.78762" lon="2.19687">
        <ele>165</ele>
        <time>2014-01-26T11:04:30Z</time>
      </trkpt>
      <trkpt lat="48.78763" lon="2.1968">
        <ele>166</ele>
        <time>2014-01-26T11:04:34Z</time>
      </trkpt>
      <trkpt lat="48.78765" lon="2.19673">
        <ele>167</ele>
        <time>2014-01-26T11:04:38Z</time>
      </trkpt>
      <trkpt lat="48.78766" lon="2.19665">
        <ele>168</ele>
        <time>2014-01-26T11:04:41Z</time>
      </trkpt>
      <trkpt lat="48.78769" lon="2.19659">
        <ele>169</ele>
        <time>2014-01-26T11:04:46Z</time>
      </trkpt>
      <trkpt lat="48.78768" lon="2.19655">
        <ele>170</ele>
        <time>2014-01-26T11:04:57Z</time>
      </trkpt>
      <trkpt lat="48.78771" lon="2.19648">
        <ele>171</ele>
        <time>2014-01-26T11:05:00Z</time>
      </trkpt>
      <trkpt lat="48.78774" lon="2.19641">
        <ele>172</ele>
        <time>2014-01-26T11:05:04Z</time>
      </trkpt>
      <trkpt lat="48.78777" lon="2.19637">
        <ele>173</ele>
        <time>2014-01-26T11:05:08Z</time>
      </trkpt>
      <trkpt lat="48.78782" lon="2.19632">
        <ele>173</ele>
        <time>2014-01-26T11:05:13Z</time>
      </trkpt>
      <trkpt lat="48.78784" lon="2.19625">
        <ele>174</ele>
        <time>2014-01-26T11:05:16Z</time>
      </trkpt>
      <trkpt lat="48.78787" lon="2.19619">
        <ele>175</ele>
        <time>2014-01-26T11:05:19Z</time>
      </trkpt>
      <trkpt lat="48.78789" lon="2.19613">
        <ele>177</ele>
        <time>2014-01-26T11:05:23Z</time>
      </trkpt>
      <trkpt lat="48.78793" lon="2.19598">
        <ele>182</ele>
        <time>2014-01-26T11:05:33Z</time>
      </trkpt>
      <trkpt lat="48.78795" lon="2.1959">
        <ele>181</ele>
        <time>2014-01-26T11:05:36Z</time>
      </trkpt>
      <trkpt lat="48.78796" lon="2.19583">
        <ele>181</ele>
        <time>2014-01-26T11:05:39Z</time>
      </trkpt>
      <trkpt lat="48.78798" lon="2.19574">
        <ele>180</ele>
        <time>2014-01-26T11:05:43Z</time>
      </trkpt>
      <trkpt lat="48.78799" lon="2.19567">
        <ele>180</ele>
        <time>2014-01-26T11:05:46Z</time>
      </trkpt>
      <trkpt lat="48.78804" lon="2.19562">
        <ele>180</ele>
        <time>2014-01-26T11:05:54Z</time>
      </trkpt>
      <trkpt lat="48.78806" lon="2.19555">
        <ele>180</ele>
        <time>2014-01-26T11:05:59Z</time>
      </trkpt>
      <trkpt lat="48.78807" lon="2.19548">
        <ele>180</ele>
        <time>2014-01-26T11:06:04Z</time>
      </trkpt>
      <trkpt lat="48.78809" lon="2.19541">
        <ele>180</ele>
        <time>2014-01-26T11:06:12Z</time>
      </trkpt>
      <trkpt lat="48.78809" lon="2.19531">
        <ele>181</ele>
        <time>2014-01-26T11:06:21Z</time>
      </trkpt>
      <trkpt lat="48.78807" lon="2.19522">
        <ele>181</ele>
        <time>2014-01-26T11:06:23Z</time>
      </trkpt>
      <trkpt lat="48.78811" lon="2.19518">
        <ele>179</ele>
        <time>2014-01-26T11:06:30Z</time>
      </trkpt>
      <trkpt lat="48.78814" lon="2.19512">
        <ele>176</ele>
        <time>2014-01-26T11:06:35Z</time>
      </trkpt>
      <trkpt lat="48.78816" lon="2.19505">
        <ele>174</ele>
        <time>2014-01-26T11:06:42Z</time>
      </trkpt>
      <trkpt lat="48.78819" lon="2.19499">
        <ele>176</ele>
        <time>2014-01-26T11:06:46Z</time>
      </trkpt>
      <trkpt lat="48.78823" lon="2.19492">
        <ele>177</ele>
        <time>2014-01-26T11:06:50Z</time>
      </trkpt>
      <trkpt lat="48.78824" lon="2.19485">
        <ele>179</ele>
        <time>2014-01-26T11:06:54Z</time>
      </trkpt>
      <trkpt lat="48.78826" lon="2.19478">
        <ele>179</ele>
        <time>2014-01-26T11:06:58Z</time>
      </trkpt>
      <trkpt lat="48.78829" lon="2.19472">
        <ele>180</ele>
        <time>2014-01-26T11:07:03Z</time>
      </trkpt>
      <trkpt lat="48.78832" lon="2.19466">
        <ele>182</ele>
        <time>2014-01-26T11:07:09Z</time>
      </trkpt>
      <trkpt lat="48.78831" lon="2.19459">
        <ele>181</ele>
        <time>2014-01-26T11:07:14Z</time>
      </trkpt>
      <trkpt lat="48.78832" lon="2.19452">
        <ele>179</ele>
        <time>2014-01-26T11:07:21Z</time>
      </trkpt>
      <trkpt lat="48.78837" lon="2.19453">
        <ele>174</ele>
        <time>2014-01-26T11:07:33Z</time>
      </trkpt>
      <trkpt lat="48.78842" lon="2.19453">
        <ele>166</ele>
        <time>2014-01-26T11:07:53Z</time>
      </trkpt>
      <trkpt lat="48.78843" lon="2.19456">
        <ele>165</ele>
        <time>2014-01-26T11:08:15Z</time>
      </trkpt>
      <trkpt lat="48.78837" lon="2.19452">
        <ele>164</ele>
        <time>2014-01-26T11:08:18Z</time>
      </trkpt>
      <trkpt lat="48.78832" lon="2.19449">
        <ele>164</ele>
        <time>2014-01-26T11:08:21Z</time>
      </trkpt>
      <trkpt lat="48.78827" lon="2.19451">
        <ele>163</ele>
        <time>2014-01-26T11:08:24Z</time>
      </trkpt>
      <trkpt lat="48.78825" lon="2.19452">
        <ele>163</ele>
        <time>2014-01-26T11:08:46Z</time>
      </trkpt>
      <trkpt lat="48.78831" lon="2.19453">
        <ele>163</ele>
        <time>2014-01-26T11:08:57Z</time>
      </trkpt>
      <trkpt lat="48.78834" lon="2.19447">
        <ele>163</ele>
        <time>2014-01-26T11:09:03Z</time>
      </trkpt>
      <trkpt lat="48.78838" lon="2.19443">
        <ele>163</ele>
        <time>2014-01-26T11:09:08Z</time>
      </trkpt>
      <trkpt lat="48.78838" lon="2.19436">
        <ele>163</ele>
        <time>2014-01-26T11:09:16Z</time>
      </trkpt>
      <trkpt lat="48.78832" lon="2.1943">
        <ele>161</ele>
        <time>2014-01-26T11:09:25Z</time>
      </trkpt>
      <trkpt lat="48.78829" lon="2.19424">
        <ele>160</ele>
        <time>2014-01-26T11:09:28Z</time>
      </trkpt>
      <trkpt lat="48.78828" lon="2.19424">
        <ele>161</ele>
        <time>2014-01-26T11:09:51Z</time>
      </trkpt>
      <trkpt lat="48.78826" lon="2.19438">
        <ele>162</ele>
        <time>2014-01-26T11:09:57Z</time>
      </trkpt>
      <trkpt lat="48.78826" lon="2.19443">
        <ele>162</ele>
        <time>2014-01-26T11:10:04Z</time>
      </trkpt>
      <trkpt lat="48.78832" lon="2.1943">
        <ele>161</ele>
        <time>2014-01-26T11:10:16Z</time>
      </trkpt>
      <trkpt lat="48.78838" lon="2.19436">
        <ele>160</ele>
        <time>2014-01-26T11:10:21Z</time>
      </trkpt>
      <trkpt lat="48.78841" lon="2.19434">
        <ele>158</ele>
        <time>2014-01-26T11:10:37Z</time>
      </trkpt>
      <trkpt lat="48.78842" lon="2.19427">
        <ele>158</ele>
        <time>2014-01-26T11:10:43Z</time>
      </trkpt>
      <trkpt lat="48.78838" lon="2.19425">
        <ele>158</ele>
        <time>2014-01-26T11:11:09Z</time>
      </trkpt>
      <trkpt lat="48.78834" lon="2.19429">
        <ele>158</ele>
        <time>2014-01-26T11:11:11Z</time>
      </trkpt>
      <trkpt lat="48.78835" lon="2.19432">
        <ele>164</ele>
        <time>2014-01-26T11:11:22Z</time>
      </trkpt>
      <trkpt lat="48.78832" lon="2.19438">
        <ele>165</ele>
        <time>2014-01-26T11:11:26Z</time>
      </trkpt>
      <trkpt lat="48.78833" lon="2.19437">
        <ele>165</ele>
        <time>2014-01-26T11:11:50Z</time>
      </trkpt>
      <trkpt lat="48.78838" lon="2.19437">
        <ele>166</ele>
        <time>2014-01-26T11:11:54Z</time>
      </trkpt>
      <trkpt lat="48.78838" lon="2.1944">
        <ele>167</ele>
        <time>2014-01-26T11:12:18Z</time>
      </trkpt>
      <trkpt lat="48.78842" lon="2.19443">
        <ele>167</ele>
        <time>2014-01-26T11:12:22Z</time>
      </trkpt>
      <trkpt lat="48.78841" lon="2.19445">
        <ele>164</ele>
        <time>2014-01-26T11:12:38Z</time>
      </trkpt>
      <trkpt lat="48.78837" lon="2.19438">
        <ele>164</ele>
        <time>2014-01-26T11:12:43Z</time>
      </trkpt>
      <trkpt lat="48.78834" lon="2.19433">
        <ele>162</ele>
        <time>2014-01-26T11:12:46Z</time>
      </trkpt>
      <trkpt lat="48.7883" lon="2.19427">
        <ele>162</ele>
        <time>2014-01-26T11:12:50Z</time>
      </trkpt>
      <trkpt lat="48.78829" lon="2.19435">
        <ele>159</ele>
        <time>2014-01-26T11:13:06Z</time>
      </trkpt>
      <trkpt lat="48.78827" lon="2.1944">
        <ele>156</ele>
        <time>2014-01-26T11:13:19Z</time>
      </trkpt>
      <trkpt lat="48.78827" lon="2.19443">
        <ele>154</ele>
        <time>2014-01-26T11:13:29Z</time>
      </trkpt>
      <trkpt lat="48.78832" lon="2.19448">
        <ele>155</ele>
        <time>2014-01-26T11:13:44Z</time>
      </trkpt>
      <trkpt lat="48.78836" lon="2.19448">
        <ele>153</ele>
        <time>2014-01-26T11:13:51Z</time>
      </trkpt>
      <trkpt lat="48.78836" lon="2.19433">
        <ele>153</ele>
        <time>2014-01-26T11:13:59Z</time>
      </trkpt>
      <trkpt lat="48.78834" lon="2.19435">
        <ele>158</ele>
        <time>2014-01-26T11:14:22Z</time>
      </trkpt>
      <trkpt lat="48.78831" lon="2.19438">
        <ele>160</ele>
        <time>2014-01-26T11:14:34Z</time>
      </trkpt>
      <trkpt lat="48.78831" lon="2.19442">
        <ele>160</ele>
        <time>2014-01-26T11:14:41Z</time>
      </trkpt>
      <trkpt lat="48.78826" lon="2.1944">
        <ele>159</ele>
        <time>2014-01-26T11:14:47Z</time>
      </trkpt>
      <trkpt lat="48.78828" lon="2.19442">
        <ele>158</ele>
        <time>2014-01-26T11:14:59Z</time>
      </trkpt>
      <trkpt lat="48.78829" lon="2.19447">
        <ele>157</ele>
        <time>2014-01-26T11:15:24Z</time>
      </trkpt>
      <trkpt lat="48.78834" lon="2.1945">
        <ele>157</ele>
        <time>2014-01-26T11:15:27Z</time>
      </trkpt>
      <trkpt lat="48.78833" lon="2.19447">
        <ele>158</ele>
        <time>2014-01-26T11:15:48Z</time>
      </trkpt>
      <trkpt lat="48.78828" lon="2.19448">
        <ele>158</ele>
        <time>2014-01-26T11:15:56Z</time>
      </trkpt>
      <trkpt lat="48.78836" lon="2.19442">
        <ele>159</ele>
        <time>2014-01-26T11:16:07Z</time>
      </trkpt>
      <trkpt lat="48.78842" lon="2.19446">
        <ele>159</ele>
        <time>2014-01-26T11:16:22Z</time>
      </trkpt>
      <trkpt lat="48.78848" lon="2.19448">
        <ele>159</ele>
        <time>2014-01-26T11:16:47Z</time>
      </trkpt>
      <trkpt lat="48.78846" lon="2.19451">
        <ele>160</ele>
        <time>2014-01-26T11:16:54Z</time>
      </trkpt>
      <trkpt lat="48.78842" lon="2.19447">
        <ele>161</ele>
        <time>2014-01-26T11:16:59Z</time>
      </trkpt>
      <trkpt lat="48.78837" lon="2.19445">
        <ele>166</ele>
        <time>2014-01-26T11:17:42Z</time>
      </trkpt>
      <trkpt lat="48.78837" lon="2.19442">
        <ele>163</ele>
        <time>2014-01-26T11:17:53Z</time>
      </trkpt>
      <trkpt lat="48.78836" lon="2.19432">
        <ele>161</ele>
        <time>2014-01-26T11:18:18Z</time>
      </trkpt>
      <trkpt lat="48.78838" lon="2.19437">
        <ele>157</ele>
        <time>2014-01-26T11:19:07Z</time>
      </trkpt>
      <trkpt lat="48.78836" lon="2.1944">
        <ele>156</ele>
        <time>2014-01-26T11:19:14Z</time>
      </trkpt>
      <trkpt lat="48.78831" lon="2.19441">
        <ele>156</ele>
        <time>2014-01-26T11:19:16Z</time>
      </trkpt>
      <trkpt lat="48.78826" lon="2.1944">
        <ele>156</ele>
        <time>2014-01-26T11:19:20Z</time>
      </trkpt>
      <trkpt lat="48.78829" lon="2.19433">
        <ele>157</ele>
        <time>2014-01-26T11:19:30Z</time>
      </trkpt>
      <trkpt lat="48.78835" lon="2.19431">
        <ele>157</ele>
        <time>2014-01-26T11:19:34Z</time>
      </trkpt>
      <trkpt lat="48.78841" lon="2.19429">
        <ele>157</ele>
        <time>2014-01-26T11:19:37Z</time>
      </trkpt>
      <trkpt lat="48.7884" lon="2.19422">
        <ele>156</ele>
        <time>2014-01-26T11:19:44Z</time>
      </trkpt>
      <trkpt lat="48.78839" lon="2.19414">
        <ele>155</ele>
        <time>2014-01-26T11:19:49Z</time>
      </trkpt>
      <trkpt lat="48.78843" lon="2.19409">
        <ele>154</ele>
        <time>2014-01-26T11:19:53Z</time>
      </trkpt>
      <trkpt lat="48.78846" lon="2.19402">
        <ele>154</ele>
        <time>2014-01-26T11:19:58Z</time>
      </trkpt>
      <trkpt lat="48.7885" lon="2.19397">
        <ele>154</ele>
        <time>2014-01-26T11:20:03Z</time>
      </trkpt>
      <trkpt lat="48.78852" lon="2.19391">
        <ele>156</ele>
        <time>2014-01-26T11:20:10Z</time>
      </trkpt>
      <trkpt lat="48.78857" lon="2.19389">
        <ele>157</ele>
        <time>2014-01-26T11:20:13Z</time>
      </trkpt>
      <trkpt lat="48.78863" lon="2.19385">
        <ele>158</ele>
        <time>2014-01-26T11:20:16Z</time>
      </trkpt>
      <trkpt lat="48.78864" lon="2.19377">
        <ele>161</ele>
        <time>2014-01-26T11:20:24Z</time>
      </trkpt>
      <trkpt lat="48.78864" lon="2.19369">
        <ele>164</ele>
        <time>2014-01-26T11:20:28Z</time>
      </trkpt>
      <trkpt lat="48.78866" lon="2.19362">
        <ele>165</ele>
        <time>2014-01-26T11:20:33Z</time>
      </trkpt>
      <trkpt lat="48.7887" lon="2.19357">
        <ele>166</ele>
        <time>2014-01-26T11:20:37Z</time>
      </trkpt>
      <trkpt lat="48.78872" lon="2.1935">
        <ele>166</ele>
        <time>2014-01-26T11:20:42Z</time>
      </trkpt>
      <trkpt lat="48.78868" lon="2.19345">
        <ele>166</ele>
        <time>2014-01-26T11:20:49Z</time>
      </trkpt>
      <trkpt lat="48.78863" lon="2.19343">
        <ele>166</ele>
        <time>2014-01-26T11:20:52Z</time>
      </trkpt>
      <trkpt lat="48.78861" lon="2.19336">
        <ele>166</ele>
        <time>2014-01-26T11:20:56Z</time>
      </trkpt>
      <trkpt lat="48.78858" lon="2.19331">
        <ele>165</ele>
        <time>2014-01-26T11:20:58Z</time>
      </trkpt>
      <trkpt lat="48.78854" lon="2.19328">
        <ele>165</ele>
        <time>2014-01-26T11:21:00Z</time>
      </trkpt>
      <trkpt lat="48.7885" lon="2.19324">
        <ele>165</ele>
        <time>2014-01-26T11:21:03Z</time>
      </trkpt>
      <trkpt lat="48.78844" lon="2.19322">
        <ele>163</ele>
        <time>2014-01-26T11:21:10Z</time>
      </trkpt>
      <trkpt lat="48.78841" lon="2.19319">
        <ele>162</ele>
        <time>2014-01-26T11:21:18Z</time>
      </trkpt>
      <trkpt lat="48.78839" lon="2.19326">
        <ele>162</ele>
        <time>2014-01-26T11:21:22Z</time>
      </trkpt>
      <trkpt lat="48.78836" lon="2.19331">
        <ele>161</ele>
        <time>2014-01-26T11:21:24Z</time>
      </trkpt>
      <trkpt lat="48.78831" lon="2.19331">
        <ele>161</ele>
        <time>2014-01-26T11:21:27Z</time>
      </trkpt>
      <trkpt lat="48.78827" lon="2.19327">
        <ele>160</ele>
        <time>2014-01-26T11:21:30Z</time>
      </trkpt>
      <trkpt lat="48.78824" lon="2.19321">
        <ele>159</ele>
        <time>2014-01-26T11:21:34Z</time>
      </trkpt>
      <trkpt lat="48.78821" lon="2.19315">
        <ele>160</ele>
        <time>2014-01-26T11:21:39Z</time>
      </trkpt>
      <trkpt lat="48.78819" lon="2.19307">
        <ele>160</ele>
        <time>2014-01-26T11:21:43Z</time>
      </trkpt>
      <trkpt lat="48.78815" lon="2.19304">
        <ele>160</ele>
        <time>2014-01-26T11:21:46Z</time>
      </trkpt>
      <trkpt lat="48.7881" lon="2.19299">
        <ele>160</ele>
        <time>2014-01-26T11:21:49Z</time>
      </trkpt>
      <trkpt lat="48.78809" lon="2.19293">
        <ele>160</ele>
        <time>2014-01-26T11:21:52Z</time>
      </trkpt>
      <trkpt lat="48.78805" lon="2.1929">
        <ele>159</ele>
        <time>2014-01-26T11:22:00Z</time>
      </trkpt>
      <trkpt lat="48.788" lon="2.19289">
        <ele>159</ele>
        <time>2014-01-26T11:22:06Z</time>
      </trkpt>
      <trkpt lat="48.78796" lon="2.19285">
        <ele>158</ele>
        <time>2014-01-26T11:22:11Z</time>
      </trkpt>
      <trkpt lat="48.78791" lon="2.19278">
        <ele>159</ele>
        <time>2014-01-26T11:22:15Z</time>
      </trkpt>
      <trkpt lat="48.78788" lon="2.19272">
        <ele>160</ele>
        <time>2014-01-26T11:22:21Z</time>
      </trkpt>
      <trkpt lat="48.78784" lon="2.19273">
        <ele>161</ele>
        <time>2014-01-26T11:22:29Z</time>
      </trkpt>
      <trkpt lat="48.7878" lon="2.19268">
        <ele>161</ele>
        <time>2014-01-26T11:22:32Z</time>
      </trkpt>
      <trkpt lat="48.78775" lon="2.19263">
        <ele>161</ele>
        <time>2014-01-26T11:22:35Z</time>
      </trkpt>
      <trkpt lat="48.78771" lon="2.1926">
        <ele>161</ele>
        <time>2014-01-26T11:22:38Z</time>
      </trkpt>
      <trkpt lat="48.78767" lon="2.19257">
        <ele>160</ele>
        <time>2014-01-26T11:22:42Z</time>
      </trkpt>
      <trkpt lat="48.78761" lon="2.19259">
        <ele>160</ele>
        <time>2014-01-26T11:22:46Z</time>
      </trkpt>
      <trkpt lat="48.78756" lon="2.19257">
        <ele>160</ele>
        <time>2014-01-26T11:22:50Z</time>
      </trkpt>
      <trkpt lat="48.78752" lon="2.19255">
        <ele>161</ele>
        <time>2014-01-26T11:22:54Z</time>
      </trkpt>
      <trkpt lat="48.78748" lon="2.19249">
        <ele>161</ele>
        <time>2014-01-26T11:22:59Z</time>
      </trkpt>
      <trkpt lat="48.78743" lon="2.19249">
        <ele>161</ele>
        <time>2014-01-26T11:23:03Z</time>
      </trkpt>
      <trkpt lat="48.78743" lon="2.19251">
        <ele>158</ele>
        <time>2014-01-26T11:23:22Z</time>
      </trkpt>
      <trkpt lat="48.78741" lon="2.19257">
        <ele>159</ele>
        <time>2014-01-26T11:23:41Z</time>
      </trkpt>
      <trkpt lat="48.78739" lon="2.1926">
        <ele>160</ele>
        <time>2014-01-26T11:23:53Z</time>
      </trkpt>
      <trkpt lat="48.78734" lon="2.19263">
        <ele>160</ele>
        <time>2014-01-26T11:23:59Z</time>
      </trkpt>
      <trkpt lat="48.7873" lon="2.19267">
        <ele>160</ele>
        <time>2014-01-26T11:24:03Z</time>
      </trkpt>
      <trkpt lat="48.78725" lon="2.19263">
        <ele>159</ele>
        <time>2014-01-26T11:24:13Z</time>
      </trkpt>
      <trkpt lat="48.78726" lon="2.19255">
        <ele>159</ele>
        <time>2014-01-26T11:24:20Z</time>
      </trkpt>
      <trkpt lat="48.78728" lon="2.19249">
        <ele>158</ele>
        <time>2014-01-26T11:24:30Z</time>
      </trkpt>
      <trkpt lat="48.78724" lon="2.19247">
        <ele>158</ele>
        <time>2014-01-26T11:24:36Z</time>
      </trkpt>
      <trkpt lat="48.78719" lon="2.19249">
        <ele>158</ele>
        <time>2014-01-26T11:25:06Z</time>
      </trkpt>
      <trkpt lat="48.78712" lon="2.19252">
        <ele>158</ele>
        <time>2014-01-26T11:25:10Z</time>
      </trkpt>
      <trkpt lat="48.78715" lon="2.19257">
        <ele>161</ele>
        <time>2014-01-26T11:25:23Z</time>
      </trkpt>
      <trkpt lat="48.7872" lon="2.19256">
        <ele>162</ele>
        <time>2014-01-26T11:25:25Z</time>
      </trkpt>
      <trkpt lat="48.78726" lon="2.19254">
        <ele>163</ele>
        <time>2014-01-26T11:25:27Z</time>
      </trkpt>
      <trkpt lat="48.78732" lon="2.19255">
        <ele>164</ele>
        <time>2014-01-26T11:25:30Z</time>
      </trkpt>
      <trkpt lat="48.78737" lon="2.19255">
        <ele>165</ele>
        <time>2014-01-26T11:25:34Z</time>
      </trkpt>
      <trkpt lat="48.78736" lon="2.19255">
        <ele>173</ele>
        <time>2014-01-26T11:26:03Z</time>
      </trkpt>
      <trkpt lat="48.78732" lon="2.19255">
        <ele>173</ele>
        <time>2014-01-26T11:26:09Z</time>
      </trkpt>
      <trkpt lat="48.78731" lon="2.19259">
        <ele>166</ele>
        <time>2014-01-26T11:26:44Z</time>
      </trkpt>
      <trkpt lat="48.78733" lon="2.1926">
        <ele>165</ele>
        <time>2014-01-26T11:27:03Z</time>
      </trkpt>
      <trkpt lat="48.78736" lon="2.19256">
        <ele>165</ele>
        <time>2014-01-26T11:27:05Z</time>
      </trkpt>
      <trkpt lat="48.78734" lon="2.19251">
        <ele>168</ele>
        <time>2014-01-26T11:28:05Z</time>
      </trkpt>
      <trkpt lat="48.78759" lon="2.19253">
        <ele>168</ele>
        <time>2014-01-26T11:28:31Z</time>
      </trkpt>
      <trkpt lat="48.78764" lon="2.19256">
        <ele>169</ele>
        <time>2014-01-26T11:28:32Z</time>
      </trkpt>
      <trkpt lat="48.78768" lon="2.19259">
        <ele>169</ele>
        <time>2014-01-26T11:28:33Z</time>
      </trkpt>
      <trkpt lat="48.78775" lon="2.19263">
        <ele>170</ele>
        <time>2014-01-26T11:28:35Z</time>
      </trkpt>
      <trkpt lat="48.78782" lon="2.1926">
        <ele>170</ele>
        <time>2014-01-26T11:28:37Z</time>
      </trkpt>
      <trkpt lat="48.78787" lon="2.19256">
        <ele>170</ele>
        <time>2014-01-26T11:28:39Z</time>
      </trkpt>
      <trkpt lat="48.78792" lon="2.19251">
        <ele>170</ele>
        <time>2014-01-26T11:28:41Z</time>
      </trkpt>
      <trkpt lat="48.78796" lon="2.19246">
        <ele>170</ele>
        <time>2014-01-26T11:28:43Z</time>
      </trkpt>
      <trkpt lat="48.78757" lon="2.19237">
        <ele>171</ele>
        <time>2014-01-26T11:28:55Z</time>
      </trkpt>
      <trkpt lat="48.78725" lon="2.19229">
        <ele>171</ele>
        <time>2014-01-26T11:28:59Z</time>
      </trkpt>
      <trkpt lat="48.78701" lon="2.19218">
        <ele>170</ele>
        <time>2014-01-26T11:29:04Z</time>
      </trkpt>
      <trkpt lat="48.78696" lon="2.19217">
        <ele>170</ele>
        <time>2014-01-26T11:29:05Z</time>
      </trkpt>
      <trkpt lat="48.7869" lon="2.19215">
        <ele>170</ele>
        <time>2014-01-26T11:29:06Z</time>
      </trkpt>
      <trkpt lat="48.78684" lon="2.19213">
        <ele>170</ele>
        <time>2014-01-26T11:29:07Z</time>
      </trkpt>
      <trkpt lat="48.78678" lon="2.19209">
        <ele>170</ele>
        <time>2014-01-26T11:29:08Z</time>
      </trkpt>
      <trkpt lat="48.78671" lon="2.19205">
        <ele>170</ele>
        <time>2014-01-26T11:29:09Z</time>
      </trkpt>
      <trkpt lat="48.78665" lon="2.19199">
        <ele>170</ele>
        <time>2014-01-26T11:29:10Z</time>
      </trkpt>
      <trkpt lat="48.78647" lon="2.19182">
        <ele>170</ele>
        <time>2014-01-26T11:29:11Z</time>
      </trkpt>
      <trkpt lat="48.78642" lon="2.19176">
        <ele>170</ele>
        <time>2014-01-26T11:29:12Z</time>
      </trkpt>
      <trkpt lat="48.78635" lon="2.19175">
        <ele>170</ele>
        <time>2014-01-26T11:29:13Z</time>
      </trkpt>
      <trkpt lat="48.78627" lon="2.19176">
        <ele>170</ele>
        <time>2014-01-26T11:29:15Z</time>
      </trkpt>
      <trkpt lat="48.78621" lon="2.19173">
        <ele>170</ele>
        <time>2014-01-26T11:29:16Z</time>
      </trkpt>
      <trkpt lat="48.78617" lon="2.19166">
        <ele>169</ele>
        <time>2014-01-26T11:29:18Z</time>
      </trkpt>
      <trkpt lat="48.78611" lon="2.19163">
        <ele>169</ele>
        <time>2014-01-26T11:29:20Z</time>
      </trkpt>
      <trkpt lat="48.78603" lon="2.1916">
        <ele>169</ele>
        <time>2014-01-26T11:29:22Z</time>
      </trkpt>
      <trkpt lat="48.78597" lon="2.19155">
        <ele>169</ele>
        <time>2014-01-26T11:29:24Z</time>
      </trkpt>
      <trkpt lat="48.78589" lon="2.19149">
        <ele>169</ele>
        <time>2014-01-26T11:29:26Z</time>
      </trkpt>
      <trkpt lat="48.78581" lon="2.1914">
        <ele>169</ele>
        <time>2014-01-26T11:29:27Z</time>
      </trkpt>
      <trkpt lat="48.78569" lon="2.19132">
        <ele>169</ele>
        <time>2014-01-26T11:29:28Z</time>
      </trkpt>
      <trkpt lat="48.78561" lon="2.19125">
        <ele>169</ele>
        <time>2014-01-26T11:29:29Z</time>
      </trkpt>
      <trkpt lat="48.78559" lon="2.19118">
        <ele>169</ele>
        <time>2014-01-26T11:29:30Z</time>
      </trkpt>
      <trkpt lat="48.78555" lon="2.19111">
        <ele>169</ele>
        <time>2014-01-26T11:29:31Z</time>
      </trkpt>
      <trkpt lat="48.78551" lon="2.19103">
        <ele>168</ele>
        <time>2014-01-26T11:29:32Z</time>
      </trkpt>
      <trkpt lat="48.78551" lon="2.19091">
        <ele>168</ele>
        <time>2014-01-26T11:29:33Z</time>
      </trkpt>
      <trkpt lat="48.78549" lon="2.19083">
        <ele>168</ele>
        <time>2014-01-26T11:29:34Z</time>
      </trkpt>
      <trkpt lat="48.78547" lon="2.19075">
        <ele>168</ele>
        <time>2014-01-26T11:29:35Z</time>
      </trkpt>
      <trkpt lat="48.78544" lon="2.19067">
        <ele>168</ele>
        <time>2014-01-26T11:29:36Z</time>
      </trkpt>
      <trkpt lat="48.78542" lon="2.1906">
        <ele>168</ele>
        <time>2014-01-26T11:29:37Z</time>
      </trkpt>
      <trkpt lat="48.7854" lon="2.19052">
        <ele>168</ele>
        <time>2014-01-26T11:29:38Z</time>
      </trkpt>
      <trkpt lat="48.78538" lon="2.19046">
        <ele>168</ele>
        <time>2014-01-26T11:29:39Z</time>
      </trkpt>
      <trkpt lat="48.78535" lon="2.19039">
        <ele>168</ele>
        <time>2014-01-26T11:29:40Z</time>
      </trkpt>
      <trkpt lat="48.78527" lon="2.19019">
        <ele>168</ele>
        <time>2014-01-26T11:29:43Z</time>
      </trkpt>
      <trkpt lat="48.78523" lon="2.18997">
        <ele>168</ele>
        <time>2014-01-26T11:29:47Z</time>
      </trkpt>
      <trkpt lat="48.7852" lon="2.18978">
        <ele>168</ele>
        <time>2014-01-26T11:29:49Z</time>
      </trkpt>
      <trkpt lat="48.78516" lon="2.18957">
        <ele>168</ele>
        <time>2014-01-26T11:29:51Z</time>
      </trkpt>
      <trkpt lat="48.78528" lon="2.18937">
        <ele>169</ele>
        <time>2014-01-26T11:29:55Z</time>
      </trkpt>
      <trkpt lat="48.78534" lon="2.18929">
        <ele>169</ele>
        <time>2014-01-26T11:29:56Z</time>
      </trkpt>
      <trkpt lat="48.78542" lon="2.18921">
        <ele>169</ele>
        <time>2014-01-26T11:29:57Z</time>
      </trkpt>
      <trkpt lat="48.78547" lon="2.18913">
        <ele>170</ele>
        <time>2014-01-26T11:29:58Z</time>
      </trkpt>
      <trkpt lat="48.78554" lon="2.189">
        <ele>170</ele>
        <time>2014-01-26T11:29:59Z</time>
      </trkpt>
      <trkpt lat="48.78559" lon="2.18891">
        <ele>170</ele>
        <time>2014-01-26T11:30:00Z</time>
      </trkpt>
      <trkpt lat="48.78564" lon="2.18881">
        <ele>170</ele>
        <time>2014-01-26T11:30:01Z</time>
      </trkpt>
      <trkpt lat="48.7857" lon="2.18869">
        <ele>170</ele>
        <time>2014-01-26T11:30:02Z</time>
      </trkpt>
      <trkpt lat="48.78577" lon="2.1886">
        <ele>170</ele>
        <time>2014-01-26T11:30:03Z</time>
      </trkpt>
      <trkpt lat="48.78584" lon="2.1885">
        <ele>170</ele>
        <time>2014-01-26T11:30:04Z</time>
      </trkpt>
      <trkpt lat="48.78591" lon="2.18843">
        <ele>170</ele>
        <time>2014-01-26T11:30:05Z</time>
      </trkpt>
      <trkpt lat="48.78596" lon="2.18834">
        <ele>171</ele>
        <time>2014-01-26T11:30:06Z</time>
      </trkpt>
      <trkpt lat="48.78603" lon="2.18825">
        <ele>171</ele>
        <time>2014-01-26T11:30:07Z</time>
      </trkpt>
      <trkpt lat="48.78608" lon="2.18817">
        <ele>171</ele>
        <time>2014-01-26T11:30:08Z</time>
      </trkpt>
      <trkpt lat="48.78612" lon="2.18807">
        <ele>171</ele>
        <time>2014-01-26T11:30:09Z</time>
      </trkpt>
      <trkpt lat="48.78619" lon="2.18799">
        <ele>171</ele>
        <time>2014-01-26T11:30:10Z</time>
      </trkpt>
      <trkpt lat="48.78625" lon="2.1879">
        <ele>171</ele>
        <time>2014-01-26T11:30:11Z</time>
      </trkpt>
      <trkpt lat="48.7863" lon="2.18781">
        <ele>171</ele>
        <time>2014-01-26T11:30:12Z</time>
      </trkpt>
      <trkpt lat="48.78635" lon="2.18772">
        <ele>171</ele>
        <time>2014-01-26T11:30:13Z</time>
      </trkpt>
      <trkpt lat="48.7864" lon="2.1876">
        <ele>171</ele>
        <time>2014-01-26T11:30:14Z</time>
      </trkpt>
      <trkpt lat="48.78646" lon="2.18751">
        <ele>171</ele>
        <time>2014-01-26T11:30:15Z</time>
      </trkpt>
      <trkpt lat="48.78651" lon="2.1874">
        <ele>171</ele>
        <time>2014-01-26T11:30:16Z</time>
      </trkpt>
      <trkpt lat="48.78654" lon="2.1873">
        <ele>171</ele>
        <time>2014-01-26T11:30:17Z</time>
      </trkpt>
      <trkpt lat="48.7866" lon="2.18723">
        <ele>171</ele>
        <time>2014-01-26T11:30:18Z</time>
      </trkpt>
      <trkpt lat="48.78665" lon="2.18714">
        <ele>172</ele>
        <time>2014-01-26T11:30:19Z</time>
      </trkpt>
      <trkpt lat="48.7867" lon="2.18705">
        <ele>172</ele>
        <time>2014-01-26T11:30:20Z</time>
      </trkpt>
      <trkpt lat="48.78674" lon="2.18695">
        <ele>172</ele>
        <time>2014-01-26T11:30:21Z</time>
      </trkpt>
      <trkpt lat="48.78682" lon="2.18687">
        <ele>172</ele>
        <time>2014-01-26T11:30:22Z</time>
      </trkpt>
      <trkpt lat="48.78685" lon="2.18683">
        <ele>172</ele>
        <time>2014-01-26T11:30:23Z</time>
      </trkpt>
      <trkpt lat="48.78691" lon="2.18674">
        <ele>172</ele>
        <time>2014-01-26T11:30:24Z</time>
      </trkpt>
      <trkpt lat="48.78699" lon="2.18663">
        <ele>173</ele>
        <time>2014-01-26T11:30:25Z</time>
      </trkpt>
      <trkpt lat="48.78705" lon="2.18654">
        <ele>173</ele>
        <time>2014-01-26T11:30:26Z</time>
      </trkpt>
      <trkpt lat="48.78706" lon="2.18648">
        <ele>173</ele>
        <time>2014-01-26T11:30:27Z</time>
      </trkpt>
      <trkpt lat="48.78714" lon="2.18633">
        <ele>174</ele>
        <time>2014-01-26T11:30:28Z</time>
      </trkpt>
      <trkpt lat="48.7872" lon="2.18607">
        <ele>174</ele>
        <time>2014-01-26T11:30:30Z</time>
      </trkpt>
      <trkpt lat="48.78721" lon="2.18593">
        <ele>174</ele>
        <time>2014-01-26T11:30:31Z</time>
      </trkpt>
      <trkpt lat="48.78721" lon="2.18578">
        <ele>173</ele>
        <time>2014-01-26T11:30:32Z</time>
      </trkpt>
      <trkpt lat="48.78724" lon="2.18562">
        <ele>173</ele>
        <time>2014-01-26T11:30:33Z</time>
      </trkpt>
      <trkpt lat="48.78726" lon="2.18548">
        <ele>173</ele>
        <time>2014-01-26T11:30:34Z</time>
      </trkpt>
      <trkpt lat="48.78729" lon="2.18534">
        <ele>173</ele>
        <time>2014-01-26T11:30:35Z</time>
      </trkpt>
      <trkpt lat="48.78732" lon="2.18519">
        <ele>173</ele>
        <time>2014-01-26T11:30:36Z</time>
      </trkpt>
      <trkpt lat="48.78733" lon="2.18502">
        <ele>173</ele>
        <time>2014-01-26T11:30:37Z</time>
      </trkpt>
      <trkpt lat="48.78734" lon="2.18487">
        <ele>173</ele>
        <time>2014-01-26T11:30:38Z</time>
      </trkpt>
      <trkpt lat="48.78736" lon="2.18473">
        <ele>173</ele>
        <time>2014-01-26T11:30:39Z</time>
      </trkpt>
      <trkpt lat="48.78744" lon="2.18419">
        <ele>173</ele>
        <time>2014-01-26T11:30:43Z</time>
      </trkpt>
      <trkpt lat="48.78746" lon="2.18404">
        <ele>173</ele>
        <time>2014-01-26T11:30:44Z</time>
      </trkpt>
      <trkpt lat="48.78752" lon="2.18389">
        <ele>172</ele>
        <time>2014-01-26T11:30:46Z</time>
      </trkpt>
      <trkpt lat="48.78756" lon="2.18368">
        <ele>172</ele>
        <time>2014-01-26T11:30:47Z</time>
      </trkpt>
      <trkpt lat="48.78758" lon="2.18359">
        <ele>172</ele>
        <time>2014-01-26T11:30:48Z</time>
      </trkpt>
      <trkpt lat="48.78761" lon="2.18348">
        <ele>172</ele>
        <time>2014-01-26T11:30:49Z</time>
      </trkpt>
      <trkpt lat="48.78761" lon="2.18332">
        <ele>172</ele>
        <time>2014-01-26T11:30:50Z</time>
      </trkpt>
      <trkpt lat="48.78762" lon="2.18317">
        <ele>173</ele>
        <time>2014-01-26T11:30:51Z</time>
      </trkpt>
      <trkpt lat="48.78762" lon="2.18303">
        <ele>173</ele>
        <time>2014-01-26T11:30:52Z</time>
      </trkpt>
      <trkpt lat="48.78761" lon="2.18294">
        <ele>173</ele>
        <time>2014-01-26T11:30:53Z</time>
      </trkpt>
      <trkpt lat="48.78762" lon="2.18282">
        <ele>173</ele>
        <time>2014-01-26T11:30:54Z</time>
      </trkpt>
      <trkpt lat="48.78762" lon="2.1827">
        <ele>173</ele>
        <time>2014-01-26T11:30:55Z</time>
      </trkpt>
      <trkpt lat="48.78762" lon="2.18258">
        <ele>173</ele>
        <time>2014-01-26T11:30:56Z</time>
      </trkpt>
      <trkpt lat="48.78774" lon="2.18133">
        <ele>173</ele>
        <time>2014-01-26T11:31:05Z</time>
      </trkpt>
      <trkpt lat="48.78776" lon="2.1812">
        <ele>173</ele>
        <time>2014-01-26T11:31:06Z</time>
      </trkpt>
      <trkpt lat="48.78791" lon="2.1811">
        <ele>173</ele>
        <time>2014-01-26T11:31:07Z</time>
      </trkpt>
      <trkpt lat="48.78794" lon="2.18089">
        <ele>173</ele>
        <time>2014-01-26T11:31:09Z</time>
      </trkpt>
      <trkpt lat="48.78799" lon="2.18057">
        <ele>173</ele>
        <time>2014-01-26T11:31:11Z</time>
      </trkpt>
      <trkpt lat="48.78802" lon="2.18035">
        <ele>173</ele>
        <time>2014-01-26T11:31:13Z</time>
      </trkpt>
      <trkpt lat="48.78813" lon="2.18007">
        <ele>173</ele>
        <time>2014-01-26T11:31:16Z</time>
      </trkpt>
      <trkpt lat="48.78811" lon="2.17962">
        <ele>173</ele>
        <time>2014-01-26T11:31:20Z</time>
      </trkpt>
      <trkpt lat="48.78789" lon="2.17908">
        <ele>172</ele>
        <time>2014-01-26T11:31:52Z</time>
      </trkpt>
      <trkpt lat="48.78773" lon="2.17912">
        <ele>173</ele>
        <time>2014-01-26T11:31:59Z</time>
      </trkpt>
      <trkpt lat="48.78592" lon="2.17931">
        <ele>172</ele>
        <time>2014-01-26T11:32:27Z</time>
      </trkpt>
      <trkpt lat="48.7857" lon="2.17931">
        <ele>172</ele>
        <time>2014-01-26T11:32:29Z</time>
      </trkpt>
      <trkpt lat="48.78561" lon="2.17927">
        <ele>172</ele>
        <time>2014-01-26T11:32:31Z</time>
      </trkpt>
      <trkpt lat="48.78556" lon="2.17917">
        <ele>172</ele>
        <time>2014-01-26T11:32:32Z</time>
      </trkpt>
      <trkpt lat="48.78544" lon="2.17907">
        <ele>172</ele>
        <time>2014-01-26T11:32:34Z</time>
      </trkpt>
      <trkpt lat="48.78531" lon="2.17896">
        <ele>172</ele>
        <time>2014-01-26T11:32:35Z</time>
      </trkpt>
      <trkpt lat="48.78527" lon="2.17894">
        <ele>172</ele>
        <time>2014-01-26T11:32:36Z</time>
      </trkpt>
      <trkpt lat="48.78518" lon="2.17881">
        <ele>173</ele>
        <time>2014-01-26T11:32:37Z</time>
      </trkpt>
      <trkpt lat="48.78513" lon="2.17871">
        <ele>174</ele>
        <time>2014-01-26T11:32:38Z</time>
      </trkpt>
      <trkpt lat="48.78505" lon="2.17859">
        <ele>174</ele>
        <time>2014-01-26T11:32:39Z</time>
      </trkpt>
      <trkpt lat="48.78499" lon="2.17847">
        <ele>175</ele>
        <time>2014-01-26T11:32:40Z</time>
      </trkpt>
      <trkpt lat="48.78494" lon="2.17834">
        <ele>175</ele>
        <time>2014-01-26T11:32:41Z</time>
      </trkpt>
      <trkpt lat="48.78492" lon="2.1783">
        <ele>176</ele>
        <time>2014-01-26T11:32:42Z</time>
      </trkpt>
      <trkpt lat="48.78484" lon="2.17814">
        <ele>176</ele>
        <time>2014-01-26T11:32:43Z</time>
      </trkpt>
      <trkpt lat="48.78478" lon="2.17805">
        <ele>176</ele>
        <time>2014-01-26T11:32:44Z</time>
      </trkpt>
      <trkpt lat="48.78474" lon="2.17799">
        <ele>176</ele>
        <time>2014-01-26T11:32:45Z</time>
      </trkpt>
      <trkpt lat="48.78468" lon="2.17785">
        <ele>177</ele>
        <time>2014-01-26T11:32:46Z</time>
      </trkpt>
      <trkpt lat="48.78463" lon="2.17776">
        <ele>177</ele>
        <time>2014-01-26T11:32:47Z</time>
      </trkpt>
      <trkpt lat="48.78457" lon="2.17767">
        <ele>176</ele>
        <time>2014-01-26T11:32:48Z</time>
      </trkpt>
      <trkpt lat="48.78452" lon="2.17756">
        <ele>176</ele>
        <time>2014-01-26T11:32:49Z</time>
      </trkpt>
      <trkpt lat="48.78447" lon="2.17746">
        <ele>176</ele>
        <time>2014-01-26T11:32:50Z</time>
      </trkpt>
      <trkpt lat="48.78442" lon="2.17735">
        <ele>176</ele>
        <time>2014-01-26T11:32:51Z</time>
      </trkpt>
      <trkpt lat="48.78436" lon="2.17721">
        <ele>176</ele>
        <time>2014-01-26T11:32:52Z</time>
      </trkpt>
      <trkpt lat="48.78426" lon="2.1771">
        <ele>175</ele>
        <time>2014-01-26T11:32:53Z</time>
      </trkpt>
      <trkpt lat="48.78418" lon="2.17697">
        <ele>175</ele>
        <time>2014-01-26T11:32:54Z</time>
      </trkpt>
      <trkpt lat="48.78412" lon="2.17686">
        <ele>175</ele>
        <time>2014-01-26T11:32:55Z</time>
      </trkpt>
      <trkpt lat="48.78406" lon="2.17675">
        <ele>174</ele>
        <time>2014-01-26T11:32:56Z</time>
      </trkpt>
      <trkpt lat="48.784" lon="2.17664">
        <ele>174</ele>
        <time>2014-01-26T11:32:57Z</time>
      </trkpt>
      <trkpt lat="48.78395" lon="2.17654">
        <ele>174</ele>
        <time>2014-01-26T11:32:58Z</time>
      </trkpt>
      <trkpt lat="48.78387" lon="2.17643">
        <ele>174</ele>
        <time>2014-01-26T11:32:59Z</time>
      </trkpt>
      <trkpt lat="48.78381" lon="2.17632">
        <ele>174</ele>
        <time>2014-01-26T11:33:00Z</time>
      </trkpt>
      <trkpt lat="48.78375" lon="2.17621">
        <ele>174</ele>
        <time>2014-01-26T11:33:01Z</time>
      </trkpt>
      <trkpt lat="48.78368" lon="2.17609">
        <ele>174</ele>
        <time>2014-01-26T11:33:02Z</time>
      </trkpt>
      <trkpt lat="48.78362" lon="2.17598">
        <ele>174</ele>
        <time>2014-01-26T11:33:03Z</time>
      </trkpt>
      <trkpt lat="48.78357" lon="2.17587">
        <ele>174</ele>
        <time>2014-01-26T11:33:04Z</time>
      </trkpt>
      <trkpt lat="48.78352" lon="2.17577">
        <ele>174</ele>
        <time>2014-01-26T11:33:05Z</time>
      </trkpt>
      <trkpt lat="48.78347" lon="2.17569">
        <ele>174</ele>
        <time>2014-01-26T11:33:06Z</time>
      </trkpt>
      <trkpt lat="48.78343" lon="2.17562">
        <ele>174</ele>
        <time>2014-01-26T11:33:07Z</time>
      </trkpt>
      <trkpt lat="48.78339" lon="2.17559">
        <ele>174</ele>
        <time>2014-01-26T11:33:08Z</time>
      </trkpt>
      <trkpt lat="48.78335" lon="2.17553">
        <ele>174</ele>
        <time>2014-01-26T11:33:10Z</time>
      </trkpt>
      <trkpt lat="48.78333" lon="2.17549">
        <ele>174</ele>
        <time>2014-01-26T11:33:11Z</time>
      </trkpt>
      <trkpt lat="48.78331" lon="2.17546">
        <ele>174</ele>
        <time>2014-01-26T11:33:12Z</time>
      </trkpt>
      <trkpt lat="48.78329" lon="2.17543">
        <ele>174</ele>
        <time>2014-01-26T11:33:13Z</time>
      </trkpt>
      <trkpt lat="48.78326" lon="2.17539">
        <ele>174</ele>
        <time>2014-01-26T11:33:14Z</time>
      </trkpt>
      <trkpt lat="48.78258" lon="2.17449">
        <ele>174</ele>
        <time>2014-01-26T11:33:26Z</time>
      </trkpt>
      <trkpt lat="48.78252" lon="2.1744">
        <ele>174</ele>
        <time>2014-01-26T11:33:27Z</time>
      </trkpt>
      <trkpt lat="48.78261" lon="2.17422">
        <ele>174</ele>
        <time>2014-01-26T11:33:28Z</time>
      </trkpt>
      <trkpt lat="48.78257" lon="2.17411">
        <ele>174</ele>
        <time>2014-01-26T11:33:29Z</time>
      </trkpt>
      <trkpt lat="48.78247" lon="2.17383">
        <ele>174</ele>
        <time>2014-01-26T11:33:30Z</time>
      </trkpt>
      <trkpt lat="48.78224" lon="2.1732">
        <ele>174</ele>
        <time>2014-01-26T11:33:34Z</time>
      </trkpt>
      <trkpt lat="48.78199" lon="2.173">
        <ele>174</ele>
        <time>2014-01-26T11:33:36Z</time>
      </trkpt>
      <trkpt lat="48.78189" lon="2.17267">
        <ele>174</ele>
        <time>2014-01-26T11:33:38Z</time>
      </trkpt>
      <trkpt lat="48.78059" lon="2.17343">
        <ele>174</ele>
        <time>2014-01-26T11:34:04Z</time>
      </trkpt>
      <trkpt lat="48.78051" lon="2.17373">
        <ele>174</ele>
        <time>2014-01-26T11:34:05Z</time>
      </trkpt>
      <trkpt lat="48.78049" lon="2.17413">
        <ele>173</ele>
        <time>2014-01-26T11:34:07Z</time>
      </trkpt>
      <trkpt lat="48.78027" lon="2.17437">
        <ele>173</ele>
        <time>2014-01-26T11:34:08Z</time>
      </trkpt>
      <trkpt lat="48.78033" lon="2.17467">
        <ele>173</ele>
        <time>2014-01-26T11:34:09Z</time>
      </trkpt>
      <trkpt lat="48.78041" lon="2.17489">
        <ele>173</ele>
        <time>2014-01-26T11:34:10Z</time>
      </trkpt>
      <trkpt lat="48.78045" lon="2.17507">
        <ele>173</ele>
        <time>2014-01-26T11:34:11Z</time>
      </trkpt>
      <trkpt lat="48.78048" lon="2.17524">
        <ele>173</ele>
        <time>2014-01-26T11:34:12Z</time>
      </trkpt>
      <trkpt lat="48.78053" lon="2.17546">
        <ele>173</ele>
        <time>2014-01-26T11:34:13Z</time>
      </trkpt>
      <trkpt lat="48.78054" lon="2.17569">
        <ele>173</ele>
        <time>2014-01-26T11:34:14Z</time>
      </trkpt>
      <trkpt lat="48.78053" lon="2.176">
        <ele>172</ele>
        <time>2014-01-26T11:34:15Z</time>
      </trkpt>
      <trkpt lat="48.7805" lon="2.17619">
        <ele>172</ele>
        <time>2014-01-26T11:34:16Z</time>
      </trkpt>
      <trkpt lat="48.78048" lon="2.1764">
        <ele>172</ele>
        <time>2014-01-26T11:34:17Z</time>
      </trkpt>
      <trkpt lat="48.78046" lon="2.17661">
        <ele>172</ele>
        <time>2014-01-26T11:34:18Z</time>
      </trkpt>
      <trkpt lat="48.78045" lon="2.17682">
        <ele>172</ele>
        <time>2014-01-26T11:34:19Z</time>
      </trkpt>
      <trkpt lat="48.78043" lon="2.17705">
        <ele>171</ele>
        <time>2014-01-26T11:34:20Z</time>
      </trkpt>
      <trkpt lat="48.78042" lon="2.17727">
        <ele>171</ele>
        <time>2014-01-26T11:34:21Z</time>
      </trkpt>
      <trkpt lat="48.78041" lon="2.17749">
        <ele>171</ele>
        <time>2014-01-26T11:34:22Z</time>
      </trkpt>
      <trkpt lat="48.7804" lon="2.17772">
        <ele>171</ele>
        <time>2014-01-26T11:34:23Z</time>
      </trkpt>
      <trkpt lat="48.7804" lon="2.17796">
        <ele>171</ele>
        <time>2014-01-26T11:34:24Z</time>
      </trkpt>
      <trkpt lat="48.78038" lon="2.1782">
        <ele>171</ele>
        <time>2014-01-26T11:34:25Z</time>
      </trkpt>
      <trkpt lat="48.78038" lon="2.17844">
        <ele>171</ele>
        <time>2014-01-26T11:34:26Z</time>
      </trkpt>
      <trkpt lat="48.78039" lon="2.17867">
        <ele>171</ele>
        <time>2014-01-26T11:34:27Z</time>
      </trkpt>
      <trkpt lat="48.78039" lon="2.17892">
        <ele>171</ele>
        <time>2014-01-26T11:34:28Z</time>
      </trkpt>
      <trkpt lat="48.78039" lon="2.17915">
        <ele>171</ele>
        <time>2014-01-26T11:34:29Z</time>
      </trkpt>
      <trkpt lat="48.78041" lon="2.17942">
        <ele>171</ele>
        <time>2014-01-26T11:34:30Z</time>
      </trkpt>
      <trkpt lat="48.78044" lon="2.17967">
        <ele>171</ele>
        <time>2014-01-26T11:34:31Z</time>
      </trkpt>
      <trkpt lat="48.78046" lon="2.17993">
        <ele>171</ele>
        <time>2014-01-26T11:34:32Z</time>
      </trkpt>
      <trkpt lat="48.78047" lon="2.18018">
        <ele>171</ele>
        <time>2014-01-26T11:34:33Z</time>
      </trkpt>
      <trkpt lat="48.78046" lon="2.18042">
        <ele>171</ele>
        <time>2014-01-26T11:34:34Z</time>
      </trkpt>
      <trkpt lat="48.78044" lon="2.18068">
        <ele>171</ele>
        <time>2014-01-26T11:34:35Z</time>
      </trkpt>
      <trkpt lat="48.78043" lon="2.1809">
        <ele>171</ele>
        <time>2014-01-26T11:34:36Z</time>
      </trkpt>
      <trkpt lat="48.78041" lon="2.18114">
        <ele>171</ele>
        <time>2014-01-26T11:34:37Z</time>
      </trkpt>
      <trkpt lat="48.7804" lon="2.18136">
        <ele>171</ele>
        <time>2014-01-26T11:34:38Z</time>
      </trkpt>
      <trkpt lat="48.78039" lon="2.18161">
        <ele>171</ele>
        <time>2014-01-26T11:34:39Z</time>
      </trkpt>
      <trkpt lat="48.78034" lon="2.18233">
        <ele>171</ele>
        <time>2014-01-26T11:34:43Z</time>
      </trkpt>
      <trkpt lat="48.78028" lon="2.18316">
        <ele>171</ele>
        <time>2014-01-26T11:34:45Z</time>
      </trkpt>
      <trkpt lat="48.7802" lon="2.18395">
        <ele>171</ele>
        <time>2014-01-26T11:34:46Z</time>
      </trkpt>
      <trkpt lat="48.78017" lon="2.18411">
        <ele>171</ele>
        <time>2014-01-26T11:34:47Z</time>
      </trkpt>
      <trkpt lat="48.78013" lon="2.18436">
        <ele>171</ele>
        <time>2014-01-26T11:34:48Z</time>
      </trkpt>
      <trkpt lat="48.7801" lon="2.18464">
        <ele>172</ele>
        <time>2014-01-26T11:34:49Z</time>
      </trkpt>
      <trkpt lat="48.78006" lon="2.1849">
        <ele>172</ele>
        <time>2014-01-26T11:34:50Z</time>
      </trkpt>
      <trkpt lat="48.78002" lon="2.18518">
        <ele>172</ele>
        <time>2014-01-26T11:34:51Z</time>
      </trkpt>
      <trkpt lat="48.77998" lon="2.18546">
        <ele>172</ele>
        <time>2014-01-26T11:34:52Z</time>
      </trkpt>
      <trkpt lat="48.77735" lon="2.21757">
        <ele>179</ele>
        <time>2014-01-26T11:36:41Z</time>
      </trkpt>
      <trkpt lat="48.77741" lon="2.21796">
        <ele>179</ele>
        <time>2014-01-26T11:36:43Z</time>
      </trkpt>
      <trkpt lat="48.7775" lon="2.2183">
        <ele>178</ele>
        <time>2014-01-26T11:36:45Z</time>
      </trkpt>
      <trkpt lat="48.77753" lon="2.21845">
        <ele>178</ele>
        <time>2014-01-26T11:36:46Z</time>
      </trkpt>
      <trkpt lat="48.77757" lon="2.21867">
        <ele>178</ele>
        <time>2014-01-26T11:36:47Z</time>
      </trkpt>
      <trkpt lat="48.77751" lon="2.21918">
        <ele>177</ele>
        <time>2014-01-26T11:36:49Z</time>
      </trkpt>
      <trkpt lat="48.77749" lon="2.21951">
        <ele>177</ele>
        <time>2014-01-26T11:36:50Z</time>
      </trkpt>
      <trkpt lat="48.77754" lon="2.21997">
        <ele>177</ele>
        <time>2014-01-26T11:36:52Z</time>
      </trkpt>
      <trkpt lat="48.77757" lon="2.22044">
        <ele>177</ele>
        <time>2014-01-26T11:36:54Z</time>
      </trkpt>
      <trkpt lat="48.77808" lon="2.22258">
        <ele>177</ele>
        <time>2014-01-26T11:37:03Z</time>
      </trkpt>
      <trkpt lat="48.76768" lon="2.22949">
        <ele>176</ele>
        <time>2014-01-26T11:38:33Z</time>
      </trkpt>
      <trkpt lat="48.76737" lon="2.22957">
        <ele>176</ele>
        <time>2014-01-26T11:38:35Z</time>
      </trkpt>
      <trkpt lat="48.76721" lon="2.2297">
        <ele>175</ele>
        <time>2014-01-26T11:38:36Z</time>
      </trkpt>
      <trkpt lat="48.76708" lon="2.22969">
        <ele>175</ele>
        <time>2014-01-26T11:38:37Z</time>
      </trkpt>
      <trkpt lat="48.76693" lon="2.22972">
        <ele>175</ele>
        <time>2014-01-26T11:38:38Z</time>
      </trkpt>
      <trkpt lat="48.76678" lon="2.22974">
        <ele>174</ele>
        <time>2014-01-26T11:38:39Z</time>
      </trkpt>
      <trkpt lat="48.76664" lon="2.22983">
        <ele>174</ele>
        <time>2014-01-26T11:38:40Z</time>
      </trkpt>
      <trkpt lat="48.76647" lon="2.22984">
        <ele>174</ele>
        <time>2014-01-26T11:38:41Z</time>
      </trkpt>
      <trkpt lat="48.76616" lon="2.22986">
        <ele>173</ele>
        <time>2014-01-26T11:38:43Z</time>
      </trkpt>
      <trkpt lat="48.76585" lon="2.22981">
        <ele>173</ele>
        <time>2014-01-26T11:38:45Z</time>
      </trkpt>
      <trkpt lat="48.76552" lon="2.22973">
        <ele>172</ele>
        <time>2014-01-26T11:38:47Z</time>
      </trkpt>
      <trkpt lat="48.76466" lon="2.22949">
        <ele>172</ele>
        <time>2014-01-26T11:38:52Z</time>
      </trkpt>
      <trkpt lat="48.76273" lon="2.22844">
        <ele>153</ele>
        <time>2014-01-26T11:39:03Z</time>
      </trkpt>
      <trkpt lat="48.76252" lon="2.22826">
        <ele>151</ele>
        <time>2014-01-26T11:39:05Z</time>
      </trkpt>
      <trkpt lat="48.76228" lon="2.22805">
        <ele>150</ele>
        <time>2014-01-26T11:39:06Z</time>
      </trkpt>
      <trkpt lat="48.7489" lon="2.21827">
        <ele>78</ele>
        <time>2014-01-26T11:40:22Z</time>
      </trkpt>
      <trkpt lat="48.74887" lon="2.21802">
        <ele>78</ele>
        <time>2014-01-26T11:40:23Z</time>
      </trkpt>
      <trkpt lat="48.74884" lon="2.21774">
        <ele>78</ele>
        <time>2014-01-26T11:40:24Z</time>
      </trkpt>
      <trkpt lat="48.74903" lon="2.21263">
        <ele>78</ele>
        <time>2014-01-26T11:40:42Z</time>
      </trkpt>
      <trkpt lat="48.74906" lon="2.2124">
        <ele>79</ele>
        <time>2014-01-26T11:40:43Z</time>
      </trkpt>
      <trkpt lat="48.74909" lon="2.21219">
        <ele>79</ele>
        <time>2014-01-26T11:40:44Z</time>
      </trkpt>
      <trkpt lat="48.74912" lon="2.21198">
        <ele>79</ele>
        <time>2014-01-26T11:40:45Z</time>
      </trkpt>
      <trkpt lat="48.74915" lon="2.21175">
        <ele>79</ele>
        <time>2014-01-26T11:40:46Z</time>
      </trkpt>
      <trkpt lat="48.74917" lon="2.21154">
        <ele>79</ele>
        <time>2014-01-26T11:40:47Z</time>
      </trkpt>
      <trkpt lat="48.74922" lon="2.21135">
        <ele>79</ele>
        <time>2014-01-26T11:40:48Z</time>
      </trkpt>
      <trkpt lat="48.74926" lon="2.21117">
        <ele>79</ele>
        <time>2014-01-26T11:40:49Z</time>
      </trkpt>
      <trkpt lat="48.74929" lon="2.211">
        <ele>79</ele>
        <time>2014-01-26T11:40:50Z</time>
      </trkpt>
      <trkpt lat="48.74932" lon="2.21083">
        <ele>80</ele>
        <time>2014-01-26T11:40:51Z</time>
      </trkpt>
      <trkpt lat="48.74936" lon="2.21068">
        <ele>80</ele>
        <time>2014-01-26T11:40:52Z</time>
      </trkpt>
      <trkpt lat="48.74945" lon="2.21058">
        <ele>80</ele>
        <time>2014-01-26T11:40:53Z</time>
      </trkpt>
      <trkpt lat="48.74954" lon="2.21049">
        <ele>80</ele>
        <time>2014-01-26T11:40:54Z</time>
      </trkpt>
      <trkpt lat="48.74961" lon="2.21039">
        <ele>80</ele>
        <time>2014-01-26T11:40:55Z</time>
      </trkpt>
      <trkpt lat="48.74961" lon="2.21039">
        <ele>80</ele>
        <time>2014-01-26T11:40:57Z</time>
      </trkpt>
      <trkpt lat="48.74976" lon="2.21033">
        <ele>80</ele>
        <time>2014-01-26T11:40:58Z</time>
      </trkpt>
      <trkpt lat="48.74989" lon="2.21035">
        <ele>81</ele>
        <time>2014-01-26T11:40:59Z</time>
      </trkpt>
      <trkpt lat="48.74999" lon="2.21045">
        <ele>81</ele>
        <time>2014-01-26T11:41:00Z</time>
      </trkpt>
      <trkpt lat="48.75007" lon="2.21057">
        <ele>80</ele>
        <time>2014-01-26T11:41:01Z</time>
      </trkpt>
      <trkpt lat="48.75015" lon="2.21078">
        <ele>80</ele>
        <time>2014-01-26T11:41:02Z</time>
      </trkpt>
      <trkpt lat="48.75019" lon="2.21093">
        <ele>79</ele>
        <time>2014-01-26T11:41:03Z</time>
      </trkpt>
      <trkpt lat="48.75023" lon="2.21117">
        <ele>79</ele>
        <time>2014-01-26T11:41:04Z</time>
      </trkpt>
      <trkpt lat="48.75025" lon="2.21141">
        <ele>79</ele>
        <time>2014-01-26T11:41:05Z</time>
      </trkpt>
      <trkpt lat="48.75025" lon="2.21162">
        <ele>79</ele>
        <time>2014-01-26T11:41:06Z</time>
      </trkpt>
      <trkpt lat="48.75023" lon="2.2118">
        <ele>79</ele>
        <time>2014-01-26T11:41:07Z</time>
      </trkpt>
      <trkpt lat="48.75016" lon="2.21209">
        <ele>78</ele>
        <time>2014-01-26T11:41:08Z</time>
      </trkpt>
      <trkpt lat="48.75009" lon="2.21231">
        <ele>78</ele>
        <time>2014-01-26T11:41:09Z</time>
      </trkpt>
      <trkpt lat="48.75002" lon="2.21252">
        <ele>78</ele>
        <time>2014-01-26T11:41:10Z</time>
      </trkpt>
      <trkpt lat="48.74997" lon="2.21269">
        <ele>78</ele>
        <time>2014-01-26T11:41:11Z</time>
      </trkpt>
      <trkpt lat="48.74989" lon="2.21293">
        <ele>78</ele>
        <time>2014-01-26T11:41:12Z</time>
      </trkpt>
      <trkpt lat="48.74982" lon="2.21314">
        <ele>78</ele>
        <time>2014-01-26T11:41:13Z</time>
      </trkpt>
      <trkpt lat="48.74974" lon="2.21339">
        <ele>78</ele>
        <time>2014-01-26T11:41:14Z</time>
      </trkpt>
      <trkpt lat="48.74968" lon="2.21361">
        <ele>77</ele>
        <time>2014-01-26T11:41:15Z</time>
      </trkpt>
      <trkpt lat="48.74962" lon="2.21381">
        <ele>78</ele>
        <time>2014-01-26T11:41:16Z</time>
      </trkpt>
      <trkpt lat="48.74955" lon="2.21404">
        <ele>78</ele>
        <time>2014-01-26T11:41:17Z</time>
      </trkpt>
      <trkpt lat="48.74948" lon="2.21426">
        <ele>78</ele>
        <time>2014-01-26T11:41:18Z</time>
      </trkpt>
      <trkpt lat="48.74941" lon="2.21448">
        <ele>79</ele>
        <time>2014-01-26T11:41:19Z</time>
      </trkpt>
      <trkpt lat="48.74935" lon="2.21472">
        <ele>79</ele>
        <time>2014-01-26T11:41:20Z</time>
      </trkpt>
      <trkpt lat="48.74929" lon="2.21501">
        <ele>79</ele>
        <time>2014-01-26T11:41:21Z</time>
      </trkpt>
      <trkpt lat="48.74924" lon="2.21522">
        <ele>79</ele>
        <time>2014-01-26T11:41:22Z</time>
      </trkpt>
      <trkpt lat="48.7492" lon="2.21543">
        <ele>80</ele>
        <time>2014-01-26T11:41:23Z</time>
      </trkpt>
      <trkpt lat="48.74913" lon="2.21564">
        <ele>79</ele>
        <time>2014-01-26T11:41:24Z</time>
      </trkpt>
      <trkpt lat="48.74904" lon="2.21586">
        <ele>79</ele>
        <time>2014-01-26T11:41:25Z</time>
      </trkpt>
      <trkpt lat="48.74897" lon="2.21606">
        <ele>79</ele>
        <time>2014-01-26T11:41:26Z</time>
      </trkpt>
      <trkpt lat="48.74887" lon="2.21626">
        <ele>79</ele>
        <time>2014-01-26T11:41:27Z</time>
      </trkpt>
      <trkpt lat="48.74878" lon="2.21649">
        <ele>79</ele>
        <time>2014-01-26T11:41:28Z</time>
      </trkpt>
      <trkpt lat="48.7487" lon="2.2167">
        <ele>78</ele>
        <time>2014-01-26T11:41:29Z</time>
      </trkpt>
      <trkpt lat="48.7486" lon="2.21694">
        <ele>78</ele>
        <time>2014-01-26T11:41:30Z</time>
      </trkpt>
      <trkpt lat="48.74849" lon="2.21716">
        <ele>78</ele>
        <time>2014-01-26T11:41:31Z</time>
      </trkpt>
      <trkpt lat="48.7484" lon="2.21736">
        <ele>78</ele>
        <time>2014-01-26T11:41:32Z</time>
      </trkpt>
      <trkpt lat="48.74828" lon="2.21756">
        <ele>78</ele>
        <time>2014-01-26T11:41:33Z</time>
      </trkpt>
      <trkpt lat="48.74819" lon="2.21774">
        <ele>78</ele>
        <time>2014-01-26T11:41:34Z</time>
      </trkpt>
      <trkpt lat="48.74808" lon="2.21792">
        <ele>78</ele>
        <time>2014-01-26T11:41:35Z</time>
      </trkpt>
      <trkpt lat="48.74796" lon="2.21811">
        <ele>77</ele>
        <time>2014-01-26T11:41:36Z</time>
      </trkpt>
      <trkpt lat="48.74784" lon="2.21825">
        <ele>77</ele>
        <time>2014-01-26T11:41:37Z</time>
      </trkpt>
      <trkpt lat="48.74771" lon="2.21839">
        <ele>78</ele>
        <time>2014-01-26T11:41:38Z</time>
      </trkpt>
      <trkpt lat="48.74759" lon="2.21855">
        <ele>78</ele>
        <time>2014-01-26T11:41:39Z</time>
      </trkpt>
      <trkpt lat="48.74748" lon="2.21865">
        <ele>78</ele>
        <time>2014-01-26T11:41:40Z</time>
      </trkpt>
      <trkpt lat="48.74732" lon="2.21879">
        <ele>78</ele>
        <time>2014-01-26T11:41:41Z</time>
      </trkpt>
      <trkpt lat="48.74717" lon="2.21894">
        <ele>77</ele>
        <time>2014-01-26T11:41:42Z</time>
      </trkpt>
      <trkpt lat="48.747" lon="2.21908">
        <ele>78</ele>
        <time>2014-01-26T11:41:43Z</time>
      </trkpt>
      <trkpt lat="48.74686" lon="2.21922">
        <ele>77</ele>
        <time>2014-01-26T11:41:44Z</time>
      </trkpt>
      <trkpt lat="48.7467" lon="2.21939">
        <ele>77</ele>
        <time>2014-01-26T11:41:45Z</time>
      </trkpt>
      <trkpt lat="48.74656" lon="2.21954">
        <ele>77</ele>
        <time>2014-01-26T11:41:46Z</time>
      </trkpt>
      <trkpt lat="48.74507" lon="2.22121">
        <ele>77</ele>
        <time>2014-01-26T11:41:56Z</time>
      </trkpt>
      <trkpt lat="48.74497" lon="2.22138">
        <ele>77</ele>
        <time>2014-01-26T11:41:57Z</time>
      </trkpt>
      <trkpt lat="48.74486" lon="2.22156">
        <ele>78</ele>
        <time>2014-01-26T11:41:58Z</time>
      </trkpt>
      <trkpt lat="48.74476" lon="2.22173">
        <ele>77</ele>
        <time>2014-01-26T11:41:59Z</time>
      </trkpt>
      <trkpt lat="48.74465" lon="2.22192">
        <ele>77</ele>
        <time>2014-01-26T11:42:00Z</time>
      </trkpt>
      <trkpt lat="48.74453" lon="2.22212">
        <ele>77</ele>
        <time>2014-01-26T11:42:01Z</time>
      </trkpt>
      <trkpt lat="48.7444" lon="2.22228">
        <ele>78</ele>
        <time>2014-01-26T11:42:02Z</time>
      </trkpt>
      <trkpt lat="48.74429" lon="2.22246">
        <ele>78</ele>
        <time>2014-01-26T11:42:03Z</time>
      </trkpt>
      <trkpt lat="48.74416" lon="2.22261">
        <ele>78</ele>
        <time>2014-01-26T11:42:04Z</time>
      </trkpt>
      <trkpt lat="48.74402" lon="2.22278">
        <ele>79</ele>
        <time>2014-01-26T11:42:05Z</time>
      </trkpt>
      <trkpt lat="48.74389" lon="2.2229">
        <ele>79</ele>
        <time>2014-01-26T11:42:06Z</time>
      </trkpt>
      <trkpt lat="48.74377" lon="2.22303">
        <ele>79</ele>
        <time>2014-01-26T11:42:07Z</time>
      </trkpt>
      <trkpt lat="48.74365" lon="2.22316">
        <ele>79</ele>
        <time>2014-01-26T11:42:08Z</time>
      </trkpt>
      <trkpt lat="48.7435" lon="2.22327">
        <ele>80</ele>
        <time>2014-01-26T11:42:09Z</time>
      </trkpt>
      <trkpt lat="48.74336" lon="2.22339">
        <ele>80</ele>
        <time>2014-01-26T11:42:10Z</time>
      </trkpt>
      <trkpt lat="48.7432" lon="2.22348">
        <ele>80</ele>
        <time>2014-01-26T11:42:11Z</time>
      </trkpt>
      <trkpt lat="48.74306" lon="2.22358">
        <ele>80</ele>
        <time>2014-01-26T11:42:12Z</time>
      </trkpt>
      <trkpt lat="48.74292" lon="2.22363">
        <ele>81</ele>
        <time>2014-01-26T11:42:13Z</time>
      </trkpt>
      <trkpt lat="48.74277" lon="2.22369">
        <ele>82</ele>
        <time>2014-01-26T11:42:14Z</time>
      </trkpt>
      <trkpt lat="48.74264" lon="2.22375">
        <ele>82</ele>
        <time>2014-01-26T11:42:15Z</time>
      </trkpt>
      <trkpt lat="48.74249" lon="2.22382">
        <ele>83</ele>
        <time>2014-01-26T11:42:16Z</time>
      </trkpt>
      <trkpt lat="48.74233" lon="2.22387">
        <ele>83</ele>
        <time>2014-01-26T11:42:17Z</time>
      </trkpt>
      <trkpt lat="48.74217" lon="2.22393">
        <ele>83</ele>
        <time>2014-01-26T11:42:18Z</time>
      </trkpt>
      <trkpt lat="48.74202" lon="2.22403">
        <ele>83</ele>
        <time>2014-01-26T11:42:19Z</time>
      </trkpt>
      <trkpt lat="48.74192" lon="2.22411">
        <ele>83</ele>
        <time>2014-01-26T11:42:20Z</time>
      </trkpt>
      <trkpt lat="48.74181" lon="2.22431">
        <ele>84</ele>
        <time>2014-01-26T11:42:22Z</time>
      </trkpt>
      <trkpt lat="48.74171" lon="2.22431">
        <ele>84</ele>
        <time>2014-01-26T11:42:23Z</time>
      </trkpt>
      <trkpt lat="48.74145" lon="2.22439">
        <ele>84</ele>
        <time>2014-01-26T11:42:24Z</time>
      </trkpt>
      <trkpt lat="48.74118" lon="2.22454">
        <ele>84</ele>
        <time>2014-01-26T11:42:25Z</time>
      </trkpt>
      <trkpt lat="48.74095" lon="2.22465">
        <ele>85</ele>
        <time>2014-01-26T11:42:26Z</time>
      </trkpt>
      <trkpt lat="48.74076" lon="2.22473">
        <ele>85</ele>
        <time>2014-01-26T11:42:27Z</time>
      </trkpt>
      <trkpt lat="48.7406" lon="2.2248">
        <ele>86</ele>
        <time>2014-01-26T11:42:28Z</time>
      </trkpt>
      <trkpt lat="48.74046" lon="2.22487">
        <ele>86</ele>
        <time>2014-01-26T11:42:29Z</time>
      </trkpt>
      <trkpt lat="48.7403" lon="2.22494">
        <ele>87</ele>
        <time>2014-01-26T11:42:30Z</time>
      </trkpt>
      <trkpt lat="48.74015" lon="2.22505">
        <ele>87</ele>
        <time>2014-01-26T11:42:31Z</time>
      </trkpt>
      <trkpt lat="48.74003" lon="2.22514">
        <ele>87</ele>
        <time>2014-01-26T11:42:32Z</time>
      </trkpt>
      <trkpt lat="48.73984" lon="2.22525">
        <ele>88</ele>
        <time>2014-01-26T11:42:33Z</time>
      </trkpt>
      <trkpt lat="48.73969" lon="2.22535">
        <ele>88</ele>
        <time>2014-01-26T11:42:34Z</time>
      </trkpt>
      <trkpt lat="48.73956" lon="2.22544">
        <ele>88</ele>
        <time>2014-01-26T11:42:35Z</time>
      </trkpt>
      <trkpt lat="48.73937" lon="2.22557">
        <ele>88</ele>
        <time>2014-01-26T11:42:36Z</time>
      </trkpt>
      <trkpt lat="48.73917" lon="2.22568">
        <ele>88</ele>
        <time>2014-01-26T11:42:37Z</time>
      </trkpt>
      <trkpt lat="48.739" lon="2.2258">
        <ele>88</ele>
        <time>2014-01-26T11:42:38Z</time>
      </trkpt>
      <trkpt lat="48.73881" lon="2.22595">
        <ele>88</ele>
        <time>2014-01-26T11:42:39Z</time>
      </trkpt>
      <trkpt lat="48.73865" lon="2.22609">
        <ele>88</ele>
        <time>2014-01-26T11:42:40Z</time>
      </trkpt>
      <trkpt lat="48.7385" lon="2.22622">
        <ele>88</ele>
        <time>2014-01-26T11:42:41Z</time>
      </trkpt>
      <trkpt lat="48.73835" lon="2.22631">
        <ele>87</ele>
        <time>2014-01-26T11:42:42Z</time>
      </trkpt>
      <trkpt lat="48.73819" lon="2.22645">
        <ele>87</ele>
        <time>2014-01-26T11:42:43Z</time>
      </trkpt>
      <trkpt lat="48.73802" lon="2.22658">
        <ele>86</ele>
        <time>2014-01-26T11:42:44Z</time>
      </trkpt>
      <trkpt lat="48.73785" lon="2.22673">
        <ele>86</ele>
        <time>2014-01-26T11:42:45Z</time>
      </trkpt>
      <trkpt lat="48.73772" lon="2.22686">
        <ele>86</ele>
        <time>2014-01-26T11:42:46Z</time>
      </trkpt>
      <trkpt lat="48.73759" lon="2.22703">
        <ele>86</ele>
        <time>2014-01-26T11:42:47Z</time>
      </trkpt>
      <trkpt lat="48.73746" lon="2.22717">
        <ele>85</ele>
        <time>2014-01-26T11:42:48Z</time>
      </trkpt>
      <trkpt lat="48.73732" lon="2.22734">
        <ele>85</ele>
        <time>2014-01-26T11:42:49Z</time>
      </trkpt>
      <trkpt lat="48.73717" lon="2.22751">
        <ele>84</ele>
        <time>2014-01-26T11:42:50Z</time>
      </trkpt>
      <trkpt lat="48.73702" lon="2.22766">
        <ele>84</ele>
        <time>2014-01-26T11:42:51Z</time>
      </trkpt>
      <trkpt lat="48.73689" lon="2.22783">
        <ele>83</ele>
        <time>2014-01-26T11:42:52Z</time>
      </trkpt>
      <trkpt lat="48.73673" lon="2.22802">
        <ele>83</ele>
        <time>2014-01-26T11:42:53Z</time>
      </trkpt>
      <trkpt lat="48.73659" lon="2.22819">
        <ele>82</ele>
        <time>2014-01-26T11:42:54Z</time>
      </trkpt>
      <trkpt lat="48.73646" lon="2.22838">
        <ele>82</ele>
        <time>2014-01-26T11:42:55Z</time>
      </trkpt>
      <trkpt lat="48.73632" lon="2.22858">
        <ele>82</ele>
        <time>2014-01-26T11:42:56Z</time>
      </trkpt>
      <trkpt lat="48.73618" lon="2.22877">
        <ele>82</ele>
        <time>2014-01-26T11:42:57Z</time>
      </trkpt>
      <trkpt lat="48.73607" lon="2.22896">
        <ele>81</ele>
        <time>2014-01-26T11:42:58Z</time>
      </trkpt>
      <trkpt lat="48.73595" lon="2.22916">
        <ele>81</ele>
        <time>2014-01-26T11:42:59Z</time>
      </trkpt>
      <trkpt lat="48.73581" lon="2.22937">
        <ele>81</ele>
        <time>2014-01-26T11:43:00Z</time>
      </trkpt>
      <trkpt lat="48.73567" lon="2.22957">
        <ele>80</ele>
        <time>2014-01-26T11:43:01Z</time>
      </trkpt>
      <trkpt lat="48.73552" lon="2.22977">
        <ele>80</ele>
        <time>2014-01-26T11:43:02Z</time>
      </trkpt>
      <trkpt lat="48.73182" lon="2.23679">
        <ele>72</ele>
        <time>2014-01-26T11:43:32Z</time>
      </trkpt>
      <trkpt lat="48.73173" lon="2.23708">
        <ele>72</ele>
        <time>2014-01-26T11:43:33Z</time>
      </trkpt>
      <trkpt lat="48.73166" lon="2.23745">
        <ele>72</ele>
        <time>2014-01-26T11:43:34Z</time>
      </trkpt>
      <trkpt lat="48.73159" lon="2.23781">
        <ele>72</ele>
        <time>2014-01-26T11:43:35Z</time>
      </trkpt>
      <trkpt lat="48.73102" lon="2.24032">
        <ele>75</ele>
        <time>2014-01-26T11:43:43Z</time>
      </trkpt>
      <trkpt lat="48.73093" lon="2.24056">
        <ele>75</ele>
        <time>2014-01-26T11:43:44Z</time>
      </trkpt>
      <trkpt lat="48.73082" lon="2.24085">
        <ele>75</ele>
        <time>2014-01-26T11:43:45Z</time>
      </trkpt>
      <trkpt lat="48.73071" lon="2.24108">
        <ele>75</ele>
        <time>2014-01-26T11:43:46Z</time>
      </trkpt>
      <trkpt lat="48.7306" lon="2.24133">
        <ele>75</ele>
        <time>2014-01-26T11:43:47Z</time>
      </trkpt>
      <trkpt lat="48.7305" lon="2.24155">
        <ele>76</ele>
        <time>2014-01-26T11:43:48Z</time>
      </trkpt>
      <trkpt lat="48.73039" lon="2.24178">
        <ele>76</ele>
        <time>2014-01-26T11:43:49Z</time>
      </trkpt>
      <trkpt lat="48.73026" lon="2.24201">
        <ele>76</ele>
        <time>2014-01-26T11:43:50Z</time>
      </trkpt>
      <trkpt lat="48.73012" lon="2.24222">
        <ele>76</ele>
        <time>2014-01-26T11:43:51Z</time>
      </trkpt>
      <trkpt lat="48.72997" lon="2.24242">
        <ele>76</ele>
        <time>2014-01-26T11:43:52Z</time>
      </trkpt>
      <trkpt lat="48.72982" lon="2.2426">
        <ele>76</ele>
        <time>2014-01-26T11:43:53Z</time>
      </trkpt>
      <trkpt lat="48.72965" lon="2.2428">
        <ele>76</ele>
        <time>2014-01-26T11:43:54Z</time>
      </trkpt>
      <trkpt lat="48.72949" lon="2.24296">
        <ele>76</ele>
        <time>2014-01-26T11:43:55Z</time>
      </trkpt>
      <trkpt lat="48.72932" lon="2.24312">
        <ele>76</ele>
        <time>2014-01-26T11:43:56Z</time>
      </trkpt>
      <trkpt lat="48.72916" lon="2.24321">
        <ele>76</ele>
        <time>2014-01-26T11:43:57Z</time>
      </trkpt>
      <trkpt lat="48.72898" lon="2.2433">
        <ele>76</ele>
        <time>2014-01-26T11:43:58Z</time>
      </trkpt>
      <trkpt lat="48.72879" lon="2.24344">
        <ele>77</ele>
        <time>2014-01-26T11:43:59Z</time>
      </trkpt>
      <trkpt lat="48.72864" lon="2.24351">
        <ele>76</ele>
        <time>2014-01-26T11:44:00Z</time>
      </trkpt>
      <trkpt lat="48.72848" lon="2.24359">
        <ele>77</ele>
        <time>2014-01-26T11:44:01Z</time>
      </trkpt>
      <trkpt lat="48.72831" lon="2.24366">
        <ele>77</ele>
        <time>2014-01-26T11:44:02Z</time>
      </trkpt>
      <trkpt lat="48.72812" lon="2.24372">
        <ele>77</ele>
        <time>2014-01-26T11:44:03Z</time>
      </trkpt>
      <trkpt lat="48.72792" lon="2.24379">
        <ele>78</ele>
        <time>2014-01-26T11:44:04Z</time>
      </trkpt>
      <trkpt lat="48.72773" lon="2.24385">
        <ele>78</ele>
        <time>2014-01-26T11:44:05Z</time>
      </trkpt>
      <trkpt lat="48.72754" lon="2.24391">
        <ele>78</ele>
        <time>2014-01-26T11:44:06Z</time>
      </trkpt>
      <trkpt lat="48.72736" lon="2.24399">
        <ele>79</ele>
        <time>2014-01-26T11:44:07Z</time>
      </trkpt>
      <trkpt lat="48.72719" lon="2.24408">
        <ele>80</ele>
        <time>2014-01-26T11:44:08Z</time>
      </trkpt>
      <trkpt lat="48.72702" lon="2.24416">
        <ele>80</ele>
        <time>2014-01-26T11:44:09Z</time>
      </trkpt>
      <trkpt lat="48.72684" lon="2.24427">
        <ele>81</ele>
        <time>2014-01-26T11:44:10Z</time>
      </trkpt>
      <trkpt lat="48.72668" lon="2.24436">
        <ele>81</ele>
        <time>2014-01-26T11:44:11Z</time>
      </trkpt>
      <trkpt lat="48.72651" lon="2.24443">
        <ele>81</ele>
        <time>2014-01-26T11:44:12Z</time>
      </trkpt>
      <trkpt lat="48.72634" lon="2.24448">
        <ele>82</ele>
        <time>2014-01-26T11:44:13Z</time>
      </trkpt>
      <trkpt lat="48.72618" lon="2.24457">
        <ele>82</ele>
        <time>2014-01-26T11:44:14Z</time>
      </trkpt>
      <trkpt lat="48.72602" lon="2.24466">
        <ele>82</ele>
        <time>2014-01-26T11:44:15Z</time>
      </trkpt>
      <trkpt lat="48.72585" lon="2.24474">
        <ele>83</ele>
        <time>2014-01-26T11:44:16Z</time>
      </trkpt>
      <trkpt lat="48.72568" lon="2.24482">
        <ele>83</ele>
        <time>2014-01-26T11:44:17Z</time>
      </trkpt>
      <trkpt lat="48.72552" lon="2.2449">
        <ele>84</ele>
        <time>2014-01-26T11:44:18Z</time>
      </trkpt>
      <trkpt lat="48.72536" lon="2.24498">
        <ele>84</ele>
        <time>2014-01-26T11:44:19Z</time>
      </trkpt>
      <trkpt lat="48.72521" lon="2.24505">
        <ele>84</ele>
        <time>2014-01-26T11:44:20Z</time>
      </trkpt>
      <trkpt lat="48.72508" lon="2.24511">
        <ele>84</ele>
        <time>2014-01-26T11:44:21Z</time>
      </trkpt>
      <trkpt lat="48.72494" lon="2.24518">
        <ele>85</ele>
        <time>2014-01-26T11:44:22Z</time>
      </trkpt>
      <trkpt lat="48.7248" lon="2.24526">
        <ele>85</ele>
        <time>2014-01-26T11:44:23Z</time>
      </trkpt>
      <trkpt lat="48.72466" lon="2.24532">
        <ele>85</ele>
        <time>2014-01-26T11:44:24Z</time>
      </trkpt>
      <trkpt lat="48.72454" lon="2.24539">
        <ele>85</ele>
        <time>2014-01-26T11:44:25Z</time>
      </trkpt>
      <trkpt lat="48.72441" lon="2.24548">
        <ele>86</ele>
        <time>2014-01-26T11:44:26Z</time>
      </trkpt>
      <trkpt lat="48.72429" lon="2.24554">
        <ele>86</ele>
        <time>2014-01-26T11:44:27Z</time>
      </trkpt>
      <trkpt lat="48.72417" lon="2.2456">
        <ele>87</ele>
        <time>2014-01-26T11:44:28Z</time>
      </trkpt>
      <trkpt lat="48.72404" lon="2.24568">
        <ele>88</ele>
        <time>2014-01-26T11:44:29Z</time>
      </trkpt>
      <trkpt lat="48.72392" lon="2.24574">
        <ele>88</ele>
        <time>2014-01-26T11:44:30Z</time>
      </trkpt>
      <trkpt lat="48.7238" lon="2.24581">
        <ele>89</ele>
        <time>2014-01-26T11:44:31Z</time>
      </trkpt>
      <trkpt lat="48.7237" lon="2.24588">
        <ele>89</ele>
        <time>2014-01-26T11:44:32Z</time>
      </trkpt>
      <trkpt lat="48.72359" lon="2.24596">
        <ele>89</ele>
        <time>2014-01-26T11:44:33Z</time>
      </trkpt>
      <trkpt lat="48.72348" lon="2.24604">
        <ele>89</ele>
        <time>2014-01-26T11:44:34Z</time>
      </trkpt>
      <trkpt lat="48.72337" lon="2.24613">
        <ele>90</ele>
        <time>2014-01-26T11:44:35Z</time>
      </trkpt>
      <trkpt lat="48.72327" lon="2.24621">
        <ele>90</ele>
        <time>2014-01-26T11:44:36Z</time>
      </trkpt>
      <trkpt lat="48.72317" lon="2.24628">
        <ele>90</ele>
        <time>2014-01-26T11:44:37Z</time>
      </trkpt>
      <trkpt lat="48.72307" lon="2.24637">
        <ele>90</ele>
        <time>2014-01-26T11:44:38Z</time>
      </trkpt>
      <trkpt lat="48.72299" lon="2.24647">
        <ele>90</ele>
        <time>2014-01-26T11:44:39Z</time>
      </trkpt>
      <trkpt lat="48.72291" lon="2.24653">
        <ele>90</ele>
        <time>2014-01-26T11:44:40Z</time>
      </trkpt>
      <trkpt lat="48.72284" lon="2.2466">
        <ele>90</ele>
        <time>2014-01-26T11:44:41Z</time>
      </trkpt>
      <trkpt lat="48.72279" lon="2.24666">
        <ele>90</ele>
        <time>2014-01-26T11:44:42Z</time>
      </trkpt>
      <trkpt lat="48.72276" lon="2.2467">
        <ele>90</ele>
        <time>2014-01-26T11:44:43Z</time>
      </trkpt>
      <trkpt lat="48.72272" lon="2.24672">
        <ele>90</ele>
        <time>2014-01-26T11:44:44Z</time>
      </trkpt>
      <trkpt lat="48.72269" lon="2.24673">
        <ele>90</ele>
        <time>2014-01-26T11:44:46Z</time>
      </trkpt>
      <trkpt lat="48.72267" lon="2.24675">
        <ele>91</ele>
        <time>2014-01-26T11:44:47Z</time>
      </trkpt>
      <trkpt lat="48.72258" lon="2.24673">
        <ele>91</ele>
        <time>2014-01-26T11:44:48Z</time>
      </trkpt>
      <trkpt lat="48.72256" lon="2.24675">
        <ele>91</ele>
        <time>2014-01-26T11:44:49Z</time>
      </trkpt>
      <trkpt lat="48.72256" lon="2.24679">
        <ele>92</ele>
        <time>2014-01-26T11:44:51Z</time>
      </trkpt>
      <trkpt lat="48.72258" lon="2.24683">
        <ele>92</ele>
        <time>2014-01-26T11:44:53Z</time>
      </trkpt>
      <trkpt lat="48.72249" lon="2.24695">
        <ele>92</ele>
        <time>2014-01-26T11:44:54Z</time>
      </trkpt>
      <trkpt lat="48.7224" lon="2.24715">
        <ele>92</ele>
        <time>2014-01-26T11:44:56Z</time>
      </trkpt>
      <trkpt lat="48.72236" lon="2.24725">
        <ele>92</ele>
        <time>2014-01-26T11:44:57Z</time>
      </trkpt>
      <trkpt lat="48.72233" lon="2.24732">
        <ele>92</ele>
        <time>2014-01-26T11:44:58Z</time>
      </trkpt>
      <trkpt lat="48.72229" lon="2.2474">
        <ele>92</ele>
        <time>2014-01-26T11:44:59Z</time>
      </trkpt>
      <trkpt lat="48.72226" lon="2.24748">
        <ele>92</ele>
        <time>2014-01-26T11:45:00Z</time>
      </trkpt>
      <trkpt lat="48.72222" lon="2.24758">
        <ele>92</ele>
        <time>2014-01-26T11:45:01Z</time>
      </trkpt>
      <trkpt lat="48.72218" lon="2.24768">
        <ele>92</ele>
        <time>2014-01-26T11:45:02Z</time>
      </trkpt>
      <trkpt lat="48.72213" lon="2.24774">
        <ele>92</ele>
        <time>2014-01-26T11:45:03Z</time>
      </trkpt>
      <trkpt lat="48.72209" lon="2.24782">
        <ele>92</ele>
        <time>2014-01-26T11:45:04Z</time>
      </trkpt>
      <trkpt lat="48.72205" lon="2.24788">
        <ele>91</ele>
        <time>2014-01-26T11:45:05Z</time>
      </trkpt>
      <trkpt lat="48.722" lon="2.24794">
        <ele>91</ele>
        <time>2014-01-26T11:45:06Z</time>
      </trkpt>
      <trkpt lat="48.72195" lon="2.24797">
        <ele>91</ele>
        <time>2014-01-26T11:45:07Z</time>
      </trkpt>
      <trkpt lat="48.72191" lon="2.24802">
        <ele>91</ele>
        <time>2014-01-26T11:45:08Z</time>
      </trkpt>
      <trkpt lat="48.72192" lon="2.24808">
        <ele>91</ele>
        <time>2014-01-26T11:45:10Z</time>
      </trkpt>
      <trkpt lat="48.72192" lon="2.24814">
        <ele>91</ele>
        <time>2014-01-26T11:45:12Z</time>
      </trkpt>
      <trkpt lat="48.72169" lon="2.24825">
        <ele>91</ele>
        <time>2014-01-26T11:45:13Z</time>
      </trkpt>
      <trkpt lat="48.72173" lon="2.24843">
        <ele>91</ele>
        <time>2014-01-26T11:45:14Z</time>
      </trkpt>
      <trkpt lat="48.72169" lon="2.24844">
        <ele>92</ele>
        <time>2014-01-26T11:45:16Z</time>
      </trkpt>
      <trkpt lat="48.72164" lon="2.2484">
        <ele>92</ele>
        <time>2014-01-26T11:45:17Z</time>
      </trkpt>
      <trkpt lat="48.72161" lon="2.24833">
        <ele>92</ele>
        <time>2014-01-26T11:45:18Z</time>
      </trkpt>
      <trkpt lat="48.72156" lon="2.2483">
        <ele>92</ele>
        <time>2014-01-26T11:45:19Z</time>
      </trkpt>
      <trkpt lat="48.72153" lon="2.24829">
        <ele>92</ele>
        <time>2014-01-26T11:45:20Z</time>
      </trkpt>
      <trkpt lat="48.72148" lon="2.24828">
        <ele>93</ele>
        <time>2014-01-26T11:45:21Z</time>
      </trkpt>
      <trkpt lat="48.72143" lon="2.24828">
        <ele>93</ele>
        <time>2014-01-26T11:45:22Z</time>
      </trkpt>
      <trkpt lat="48.72137" lon="2.24828">
        <ele>93</ele>
        <time>2014-01-26T11:45:23Z</time>
      </trkpt>
      <trkpt lat="48.72134" lon="2.24829">
        <ele>93</ele>
        <time>2014-01-26T11:45:24Z</time>
      </trkpt>
      <trkpt lat="48.72131" lon="2.24829">
        <ele>93</ele>
        <time>2014-01-26T11:45:25Z</time>
      </trkpt>
      <trkpt lat="48.72126" lon="2.24832">
        <ele>93</ele>
        <time>2014-01-26T11:45:26Z</time>
      </trkpt>
      <trkpt lat="48.7212" lon="2.24836">
        <ele>94</ele>
        <time>2014-01-26T11:45:27Z</time>
      </trkpt>
      <trkpt lat="48.72112" lon="2.24839">
        <ele>94</ele>
        <time>2014-01-26T11:45:28Z</time>
      </trkpt>
      <trkpt lat="48.72106" lon="2.24841">
        <ele>94</ele>
        <time>2014-01-26T11:45:29Z</time>
      </trkpt>
      <trkpt lat="48.72099" lon="2.24843">
        <ele>94</ele>
        <time>2014-01-26T11:45:30Z</time>
      </trkpt>
      <trkpt lat="48.72093" lon="2.24845">
        <ele>94</ele>
        <time>2014-01-26T11:45:31Z</time>
      </trkpt>
      <trkpt lat="48.72085" lon="2.24848">
        <ele>94</ele>
        <time>2014-01-26T11:45:32Z</time>
      </trkpt>
      <trkpt lat="48.72079" lon="2.24852">
        <ele>94</ele>
        <time>2014-01-26T11:45:33Z</time>
      </trkpt>
      <trkpt lat="48.72074" lon="2.24855">
        <ele>94</ele>
        <time>2014-01-26T11:45:34Z</time>
      </trkpt>
      <trkpt lat="48.72067" lon="2.24859">
        <ele>94</ele>
        <time>2014-01-26T11:45:35Z</time>
      </trkpt>
      <trkpt lat="48.72059" lon="2.24865">
        <ele>94</ele>
        <time>2014-01-26T11:45:36Z</time>
      </trkpt>
      <trkpt lat="48.72054" lon="2.24868">
        <ele>94</ele>
        <time>2014-01-26T11:45:37Z</time>
      </trkpt>
      <trkpt lat="48.72046" lon="2.24874">
        <ele>94</ele>
        <time>2014-01-26T11:45:38Z</time>
      </trkpt>
      <trkpt lat="48.72039" lon="2.24878">
        <ele>94</ele>
        <time>2014-01-26T11:45:39Z</time>
      </trkpt>
      <trkpt lat="48.72029" lon="2.2488">
        <ele>94</ele>
        <time>2014-01-26T11:45:40Z</time>
      </trkpt>
      <trkpt lat="48.72022" lon="2.24883">
        <ele>94</ele>
        <time>2014-01-26T11:45:41Z</time>
      </trkpt>
      <trkpt lat="48.72015" lon="2.24887">
        <ele>94</ele>
        <time>2014-01-26T11:45:42Z</time>
      </trkpt>
      <trkpt lat="48.72012" lon="2.24888">
        <ele>94</ele>
        <time>2014-01-26T11:45:43Z</time>
      </trkpt>
      <trkpt lat="48.72005" lon="2.24888">
        <ele>94</ele>
        <time>2014-01-26T11:45:44Z</time>
      </trkpt>
      <trkpt lat="48.71992" lon="2.24888">
        <ele>94</ele>
        <time>2014-01-26T11:45:46Z</time>
      </trkpt>
      <trkpt lat="48.71988" lon="2.24887">
        <ele>94</ele>
        <time>2014-01-26T11:45:47Z</time>
      </trkpt>
      <trkpt lat="48.71981" lon="2.24853">
        <ele>94</ele>
        <time>2014-01-26T11:45:48Z</time>
      </trkpt>
      <trkpt lat="48.71969" lon="2.24836">
        <ele>94</ele>
        <time>2014-01-26T11:45:49Z</time>
      </trkpt>
      <trkpt lat="48.71966" lon="2.24831">
        <ele>93</ele>
        <time>2014-01-26T11:45:50Z</time>
      </trkpt>
      <trkpt lat="48.71963" lon="2.24827">
        <ele>93</ele>
        <time>2014-01-26T11:45:51Z</time>
      </trkpt>
      <trkpt lat="48.71952" lon="2.24805">
        <ele>93</ele>
        <time>2014-01-26T11:45:53Z</time>
      </trkpt>
      <trkpt lat="48.71945" lon="2.24796">
        <ele>93</ele>
        <time>2014-01-26T11:45:54Z</time>
      </trkpt>
      <trkpt lat="48.71935" lon="2.24784">
        <ele>93</ele>
        <time>2014-01-26T11:45:55Z</time>
      </trkpt>
      <trkpt lat="48.71927" lon="2.24773">
        <ele>93</ele>
        <time>2014-01-26T11:45:56Z</time>
      </trkpt>
      <trkpt lat="48.7192" lon="2.24764">
        <ele>93</ele>
        <time>2014-01-26T11:45:57Z</time>
      </trkpt>
      <trkpt lat="48.71913" lon="2.24755">
        <ele>93</ele>
        <time>2014-01-26T11:45:58Z</time>
      </trkpt>
      <trkpt lat="48.71907" lon="2.24748">
        <ele>93</ele>
        <time>2014-01-26T11:45:59Z</time>
      </trkpt>
      <trkpt lat="48.71902" lon="2.24741">
        <ele>92</ele>
        <time>2014-01-26T11:46:00Z</time>
      </trkpt>
      <trkpt lat="48.71897" lon="2.24735">
        <ele>92</ele>
        <time>2014-01-26T11:46:01Z</time>
      </trkpt>
      <trkpt lat="48.71888" lon="2.24724">
        <ele>92</ele>
        <time>2014-01-26T11:46:03Z</time>
      </trkpt>
      <trkpt lat="48.71884" lon="2.24719">
        <ele>92</ele>
        <time>2014-01-26T11:46:04Z</time>
      </trkpt>
      <trkpt lat="48.71879" lon="2.24712">
        <ele>92</ele>
        <time>2014-01-26T11:46:05Z</time>
      </trkpt>
      <trkpt lat="48.71874" lon="2.24708">
        <ele>92</ele>
        <time>2014-01-26T11:46:06Z</time>
      </trkpt>
      <trkpt lat="48.71869" lon="2.24702">
        <ele>92</ele>
        <time>2014-01-26T11:46:07Z</time>
      </trkpt>
      <trkpt lat="48.71863" lon="2.24696">
        <ele>92</ele>
        <time>2014-01-26T11:46:08Z</time>
      </trkpt>
      <trkpt lat="48.71858" lon="2.24691">
        <ele>93</ele>
        <time>2014-01-26T11:46:09Z</time>
      </trkpt>
      <trkpt lat="48.71851" lon="2.24684">
        <ele>92</ele>
        <time>2014-01-26T11:46:10Z</time>
      </trkpt>
      <trkpt lat="48.71844" lon="2.24677">
        <ele>92</ele>
        <time>2014-01-26T11:46:11Z</time>
      </trkpt>
      <trkpt lat="48.71838" lon="2.24671">
        <ele>92</ele>
        <time>2014-01-26T11:46:12Z</time>
      </trkpt>
      <trkpt lat="48.71832" lon="2.24664">
        <ele>92</ele>
        <time>2014-01-26T11:46:13Z</time>
      </trkpt>
      <trkpt lat="48.71827" lon="2.2466">
        <ele>92</ele>
        <time>2014-01-26T11:46:14Z</time>
      </trkpt>
      <trkpt lat="48.7182" lon="2.24652">
        <ele>92</ele>
        <time>2014-01-26T11:46:15Z</time>
      </trkpt>
      <trkpt lat="48.71813" lon="2.24645">
        <ele>92</ele>
        <time>2014-01-26T11:46:16Z</time>
      </trkpt>
      <trkpt lat="48.71801" lon="2.24632">
        <ele>92</ele>
        <time>2014-01-26T11:46:18Z</time>
      </trkpt>
      <trkpt lat="48.71795" lon="2.24627">
        <ele>92</ele>
        <time>2014-01-26T11:46:19Z</time>
      </trkpt>
      <trkpt lat="48.71789" lon="2.24622">
        <ele>92</ele>
        <time>2014-01-26T11:46:20Z</time>
      </trkpt>
      <trkpt lat="48.71783" lon="2.24616">
        <ele>93</ele>
        <time>2014-01-26T11:46:21Z</time>
      </trkpt>
      <trkpt lat="48.71777" lon="2.24611">
        <ele>92</ele>
        <time>2014-01-26T11:46:22Z</time>
      </trkpt>
      <trkpt lat="48.71771" lon="2.24605">
        <ele>92</ele>
        <time>2014-01-26T11:46:23Z</time>
      </trkpt>
      <trkpt lat="48.71755" lon="2.24593">
        <ele>92</ele>
        <time>2014-01-26T11:46:26Z</time>
      </trkpt>
      <trkpt lat="48.71743" lon="2.24583">
        <ele>92</ele>
        <time>2014-01-26T11:46:28Z</time>
      </trkpt>
      <trkpt lat="48.71726" lon="2.24568">
        <ele>92</ele>
        <time>2014-01-26T11:46:31Z</time>
      </trkpt>
      <trkpt lat="48.71708" lon="2.24552">
        <ele>92</ele>
        <time>2014-01-26T11:46:34Z</time>
      </trkpt>
      <trkpt lat="48.71687" lon="2.24535">
        <ele>92</ele>
        <time>2014-01-26T11:46:37Z</time>
      </trkpt>
      <trkpt lat="48.71679" lon="2.24528">
        <ele>92</ele>
        <time>2014-01-26T11:46:38Z</time>
      </trkpt>
      <trkpt lat="48.71663" lon="2.24515">
        <ele>92</ele>
        <time>2014-01-26T11:46:40Z</time>
      </trkpt>
      <trkpt lat="48.7165" lon="2.24504">
        <ele>92</ele>
        <time>2014-01-26T11:46:42Z</time>
      </trkpt>
      <trkpt lat="48.71642" lon="2.24498">
        <ele>92</ele>
        <time>2014-01-26T11:46:43Z</time>
      </trkpt>
      <trkpt lat="48.71636" lon="2.24492">
        <ele>92</ele>
        <time>2014-01-26T11:46:44Z</time>
      </trkpt>
      <trkpt lat="48.71618" lon="2.24478">
        <ele>92</ele>
        <time>2014-01-26T11:46:48Z</time>
      </trkpt>
      <trkpt lat="48.71612" lon="2.24473">
        <ele>92</ele>
        <time>2014-01-26T11:46:49Z</time>
      </trkpt>
      <trkpt lat="48.71601" lon="2.24463">
        <ele>92</ele>
        <time>2014-01-26T11:46:50Z</time>
      </trkpt>
      <trkpt lat="48.71591" lon="2.24455">
        <ele>92</ele>
        <time>2014-01-26T11:46:51Z</time>
      </trkpt>
      <trkpt lat="48.71585" lon="2.2445">
        <ele>92</ele>
        <time>2014-01-26T11:46:52Z</time>
      </trkpt>
      <trkpt lat="48.71576" lon="2.24442">
        <ele>92</ele>
        <time>2014-01-26T11:46:53Z</time>
      </trkpt>
      <trkpt lat="48.71569" lon="2.24436">
        <ele>92</ele>
        <time>2014-01-26T11:46:54Z</time>
      </trkpt>
      <trkpt lat="48.71562" lon="2.24429">
        <ele>92</ele>
        <time>2014-01-26T11:46:55Z</time>
      </trkpt>
      <trkpt lat="48.71556" lon="2.24424">
        <ele>92</ele>
        <time>2014-01-26T11:46:56Z</time>
      </trkpt>
      <trkpt lat="48.7155" lon="2.24419">
        <ele>91</ele>
        <time>2014-01-26T11:46:57Z</time>
      </trkpt>
      <trkpt lat="48.71541" lon="2.24411">
        <ele>91</ele>
        <time>2014-01-26T11:46:58Z</time>
      </trkpt>
      <trkpt lat="48.71536" lon="2.24406">
        <ele>91</ele>
        <time>2014-01-26T11:46:59Z</time>
      </trkpt>
      <trkpt lat="48.71531" lon="2.24402">
        <ele>91</ele>
        <time>2014-01-26T11:47:00Z</time>
      </trkpt>
      <trkpt lat="48.71527" lon="2.24398">
        <ele>91</ele>
        <time>2014-01-26T11:47:01Z</time>
      </trkpt>
      <trkpt lat="48.71521" lon="2.24392">
        <ele>91</ele>
        <time>2014-01-26T11:47:02Z</time>
      </trkpt>
      <trkpt lat="48.71518" lon="2.24389">
        <ele>91</ele>
        <time>2014-01-26T11:47:03Z</time>
      </trkpt>
      <trkpt lat="48.71509" lon="2.2438">
        <ele>91</ele>
        <time>2014-01-26T11:47:04Z</time>
      </trkpt>
      <trkpt lat="48.71505" lon="2.24377">
        <ele>91</ele>
        <time>2014-01-26T11:47:05Z</time>
      </trkpt>
      <trkpt lat="48.715" lon="2.24372">
        <ele>92</ele>
        <time>2014-01-26T11:47:06Z</time>
      </trkpt>
      <trkpt lat="48.71492" lon="2.24364">
        <ele>92</ele>
        <time>2014-01-26T11:47:07Z</time>
      </trkpt>
      <trkpt lat="48.71484" lon="2.24356">
        <ele>92</ele>
        <time>2014-01-26T11:47:08Z</time>
      </trkpt>
      <trkpt lat="48.71479" lon="2.24351">
        <ele>91</ele>
        <time>2014-01-26T11:47:09Z</time>
      </trkpt>
      <trkpt lat="48.71472" lon="2.24345">
        <ele>91</ele>
        <time>2014-01-26T11:47:10Z</time>
      </trkpt>
      <trkpt lat="48.71464" lon="2.24337">
        <ele>91</ele>
        <time>2014-01-26T11:47:11Z</time>
      </trkpt>
      <trkpt lat="48.71456" lon="2.24329">
        <ele>91</ele>
        <time>2014-01-26T11:47:12Z</time>
      </trkpt>
      <trkpt lat="48.71449" lon="2.24322">
        <ele>91</ele>
        <time>2014-01-26T11:47:13Z</time>
      </trkpt>
      <trkpt lat="48.71446" lon="2.24319">
        <ele>91</ele>
        <time>2014-01-26T11:47:14Z</time>
      </trkpt>
      <trkpt lat="48.71441" lon="2.24315">
        <ele>91</ele>
        <time>2014-01-26T11:47:15Z</time>
      </trkpt>
      <trkpt lat="48.71437" lon="2.24311">
        <ele>91</ele>
        <time>2014-01-26T11:47:19Z</time>
      </trkpt>
      <trkpt lat="48.71434" lon="2.24308">
        <ele>91</ele>
        <time>2014-01-26T11:47:20Z</time>
      </trkpt>
      <trkpt lat="48.71429" lon="2.24303">
        <ele>91</ele>
        <time>2014-01-26T11:47:21Z</time>
      </trkpt>
      <trkpt lat="48.71426" lon="2.243">
        <ele>90</ele>
        <time>2014-01-26T11:47:22Z</time>
      </trkpt>
      <trkpt lat="48.71427" lon="2.24282">
        <ele>90</ele>
        <time>2014-01-26T11:47:23Z</time>
      </trkpt>
      <trkpt lat="48.7142" lon="2.24271">
        <ele>90</ele>
        <time>2014-01-26T11:47:24Z</time>
      </trkpt>
      <trkpt lat="48.71413" lon="2.24266">
        <ele>90</ele>
        <time>2014-01-26T11:47:25Z</time>
      </trkpt>
      <trkpt lat="48.71407" lon="2.24258">
        <ele>90</ele>
        <time>2014-01-26T11:47:26Z</time>
      </trkpt>
      <trkpt lat="48.71401" lon="2.24249">
        <ele>90</ele>
        <time>2014-01-26T11:47:27Z</time>
      </trkpt>
      <trkpt lat="48.71389" lon="2.24252">
        <ele>91</ele>
        <time>2014-01-26T11:47:28Z</time>
      </trkpt>
      <trkpt lat="48.7138" lon="2.24241">
        <ele>91</ele>
        <time>2014-01-26T11:47:29Z</time>
      </trkpt>
      <trkpt lat="48.71373" lon="2.24232">
        <ele>91</ele>
        <time>2014-01-26T11:47:30Z</time>
      </trkpt>
      <trkpt lat="48.71363" lon="2.24219">
        <ele>91</ele>
        <time>2014-01-26T11:47:31Z</time>
      </trkpt>
      <trkpt lat="48.71356" lon="2.2421">
        <ele>91</ele>
        <time>2014-01-26T11:47:32Z</time>
      </trkpt>
      <trkpt lat="48.71348" lon="2.242">
        <ele>91</ele>
        <time>2014-01-26T11:47:33Z</time>
      </trkpt>
      <trkpt lat="48.71342" lon="2.24192">
        <ele>91</ele>
        <time>2014-01-26T11:47:34Z</time>
      </trkpt>
      <trkpt lat="48.71334" lon="2.24181">
        <ele>91</ele>
        <time>2014-01-26T11:47:35Z</time>
      </trkpt>
      <trkpt lat="48.71328" lon="2.24174">
        <ele>91</ele>
        <time>2014-01-26T11:47:36Z</time>
      </trkpt>
      <trkpt lat="48.71319" lon="2.24163">
        <ele>91</ele>
        <time>2014-01-26T11:47:37Z</time>
      </trkpt>
      <trkpt lat="48.71312" lon="2.24153">
        <ele>91</ele>
        <time>2014-01-26T11:47:38Z</time>
      </trkpt>
      <trkpt lat="48.71305" lon="2.24144">
        <ele>91</ele>
        <time>2014-01-26T11:47:39Z</time>
      </trkpt>
      <trkpt lat="48.71297" lon="2.24134">
        <ele>91</ele>
        <time>2014-01-26T11:47:40Z</time>
      </trkpt>
      <trkpt lat="48.71288" lon="2.24123">
        <ele>90</ele>
        <time>2014-01-26T11:47:41Z</time>
      </trkpt>
      <trkpt lat="48.71281" lon="2.24114">
        <ele>90</ele>
        <time>2014-01-26T11:47:42Z</time>
      </trkpt>
      <trkpt lat="48.71273" lon="2.24104">
        <ele>90</ele>
        <time>2014-01-26T11:47:43Z</time>
      </trkpt>
      <trkpt lat="48.71222" lon="2.24038">
        <ele>90</ele>
        <time>2014-01-26T11:47:51Z</time>
      </trkpt>
      <trkpt lat="48.71209" lon="2.24025">
        <ele>90</ele>
        <time>2014-01-26T11:47:53Z</time>
      </trkpt>
      <trkpt lat="48.71201" lon="2.24011">
        <ele>90</ele>
        <time>2014-01-26T11:47:54Z</time>
      </trkpt>
      <trkpt lat="48.71193" lon="2.23999">
        <ele>90</ele>
        <time>2014-01-26T11:47:55Z</time>
      </trkpt>
      <trkpt lat="48.71186" lon="2.23987">
        <ele>89</ele>
        <time>2014-01-26T11:47:56Z</time>
      </trkpt>
      <trkpt lat="48.71182" lon="2.23981">
        <ele>89</ele>
        <time>2014-01-26T11:47:57Z</time>
      </trkpt>
      <trkpt lat="48.71176" lon="2.23971">
        <ele>89</ele>
        <time>2014-01-26T11:47:58Z</time>
      </trkpt>
      <trkpt lat="48.71169" lon="2.2396">
        <ele>89</ele>
        <time>2014-01-26T11:47:59Z</time>
      </trkpt>
      <trkpt lat="48.71163" lon="2.23948">
        <ele>89</ele>
        <time>2014-01-26T11:48:00Z</time>
      </trkpt>
      <trkpt lat="48.7115" lon="2.23924">
        <ele>89</ele>
        <time>2014-01-26T11:48:03Z</time>
      </trkpt>
      <trkpt lat="48.71136" lon="2.23897">
        <ele>89</ele>
        <time>2014-01-26T11:48:06Z</time>
      </trkpt>
      <trkpt lat="48.71099" lon="2.23843">
        <ele>88</ele>
        <time>2014-01-26T11:48:12Z</time>
      </trkpt>
      <trkpt lat="48.71088" lon="2.23764">
        <ele>88</ele>
        <time>2014-01-26T11:48:15Z</time>
      </trkpt>
      <trkpt lat="48.71041" lon="2.23729">
        <ele>88</ele>
        <time>2014-01-26T11:48:20Z</time>
      </trkpt>
      <trkpt lat="48.71028" lon="2.23723">
        <ele>88</ele>
        <time>2014-01-26T11:48:21Z</time>
      </trkpt>
      <trkpt lat="48.71012" lon="2.23717">
        <ele>88</ele>
        <time>2014-01-26T11:48:23Z</time>
      </trkpt>
      <trkpt lat="48.70996" lon="2.2371">
        <ele>88</ele>
        <time>2014-01-26T11:48:25Z</time>
      </trkpt>
      <trkpt lat="48.70991" lon="2.23708">
        <ele>88</ele>
        <time>2014-01-26T11:48:26Z</time>
      </trkpt>
      <trkpt lat="48.70982" lon="2.23705">
        <ele>87</ele>
        <time>2014-01-26T11:48:28Z</time>
      </trkpt>
      <trkpt lat="48.70975" lon="2.23703">
        <ele>87</ele>
        <time>2014-01-26T11:48:29Z</time>
      </trkpt>
      <trkpt lat="48.70962" lon="2.23702">
        <ele>86</ele>
        <time>2014-01-26T11:48:33Z</time>
      </trkpt>
      <trkpt lat="48.70958" lon="2.23701">
        <ele>86</ele>
        <time>2014-01-26T11:48:34Z</time>
      </trkpt>
      <trkpt lat="48.70966" lon="2.23727">
        <ele>86</ele>
        <time>2014-01-26T11:48:36Z</time>
      </trkpt>
      <trkpt lat="48.70966" lon="2.23737">
        <ele>85</ele>
        <time>2014-01-26T11:48:37Z</time>
      </trkpt>
      <trkpt lat="48.7097" lon="2.23763">
        <ele>84</ele>
        <time>2014-01-26T11:48:40Z</time>
      </trkpt>
      <trkpt lat="48.70975" lon="2.23786">
        <ele>84</ele>
        <time>2014-01-26T11:48:41Z</time>
      </trkpt>
      <trkpt lat="48.70969" lon="2.23806">
        <ele>84</ele>
        <time>2014-01-26T11:48:42Z</time>
      </trkpt>
      <trkpt lat="48.70966" lon="2.23816">
        <ele>84</ele>
        <time>2014-01-26T11:48:43Z</time>
      </trkpt>
      <trkpt lat="48.70963" lon="2.23823">
        <ele>83</ele>
        <time>2014-01-26T11:48:44Z</time>
      </trkpt>
      <trkpt lat="48.7096" lon="2.23831">
        <ele>83</ele>
        <time>2014-01-26T11:48:45Z</time>
      </trkpt>
      <trkpt lat="48.70957" lon="2.23838">
        <ele>83</ele>
        <time>2014-01-26T11:48:46Z</time>
      </trkpt>
      <trkpt lat="48.70953" lon="2.23845">
        <ele>83</ele>
        <time>2014-01-26T11:48:49Z</time>
      </trkpt>
      <trkpt lat="48.70933" lon="2.23821">
        <ele>83</ele>
        <time>2014-01-26T11:48:53Z</time>
      </trkpt>
      <trkpt lat="48.70916" lon="2.23807">
        <ele>83</ele>
        <time>2014-01-26T11:48:54Z</time>
      </trkpt>
      <trkpt lat="48.70894" lon="2.23793">
        <ele>82</ele>
        <time>2014-01-26T11:48:58Z</time>
      </trkpt>
      <trkpt lat="48.70881" lon="2.23786">
        <ele>82</ele>
        <time>2014-01-26T11:48:59Z</time>
      </trkpt>
      <trkpt lat="48.70872" lon="2.23781">
        <ele>82</ele>
        <time>2014-01-26T11:49:00Z</time>
      </trkpt>
      <trkpt lat="48.70862" lon="2.23776">
        <ele>82</ele>
        <time>2014-01-26T11:49:01Z</time>
      </trkpt>
      <trkpt lat="48.70851" lon="2.23771">
        <ele>82</ele>
        <time>2014-01-26T11:49:02Z</time>
      </trkpt>
      <trkpt lat="48.70844" lon="2.23767">
        <ele>82</ele>
        <time>2014-01-26T11:49:03Z</time>
      </trkpt>
      <trkpt lat="48.70836" lon="2.23763">
        <ele>82</ele>
        <time>2014-01-26T11:49:04Z</time>
      </trkpt>
      <trkpt lat="48.70827" lon="2.23759">
        <ele>81</ele>
        <time>2014-01-26T11:49:06Z</time>
      </trkpt>
      <trkpt lat="48.70821" lon="2.23756">
        <ele>81</ele>
        <time>2014-01-26T11:49:07Z</time>
      </trkpt>
      <trkpt lat="48.70815" lon="2.23753">
        <ele>81</ele>
        <time>2014-01-26T11:49:08Z</time>
      </trkpt>
      <trkpt lat="48.70809" lon="2.23751">
        <ele>81</ele>
        <time>2014-01-26T11:49:09Z</time>
      </trkpt>
      <trkpt lat="48.70802" lon="2.23748">
        <ele>81</ele>
        <time>2014-01-26T11:49:10Z</time>
      </trkpt>
      <trkpt lat="48.7079" lon="2.23747">
        <ele>81</ele>
        <time>2014-01-26T11:49:11Z</time>
      </trkpt>
      <trkpt lat="48.70783" lon="2.23746">
        <ele>81</ele>
        <time>2014-01-26T11:49:12Z</time>
      </trkpt>
      <trkpt lat="48.70775" lon="2.23746">
        <ele>81</ele>
        <time>2014-01-26T11:49:13Z</time>
      </trkpt>
      <trkpt lat="48.70766" lon="2.23746">
        <ele>81</ele>
        <time>2014-01-26T11:49:14Z</time>
      </trkpt>
      <trkpt lat="48.70757" lon="2.2374">
        <ele>81</ele>
        <time>2014-01-26T11:49:15Z</time>
      </trkpt>
      <trkpt lat="48.70747" lon="2.23724">
        <ele>81</ele>
        <time>2014-01-26T11:49:17Z</time>
      </trkpt>
      <trkpt lat="48.70743" lon="2.2372">
        <ele>81</ele>
        <time>2014-01-26T11:49:18Z</time>
      </trkpt>
      <trkpt lat="48.70732" lon="2.23711">
        <ele>81</ele>
        <time>2014-01-26T11:49:20Z</time>
      </trkpt>
      <trkpt lat="48.70727" lon="2.23708">
        <ele>81</ele>
        <time>2014-01-26T11:49:21Z</time>
      </trkpt>
      <trkpt lat="48.7072" lon="2.23703">
        <ele>81</ele>
        <time>2014-01-26T11:49:22Z</time>
      </trkpt>
      <trkpt lat="48.70709" lon="2.23698">
        <ele>81</ele>
        <time>2014-01-26T11:49:24Z</time>
      </trkpt>
      <trkpt lat="48.70696" lon="2.23694">
        <ele>81</ele>
        <time>2014-01-26T11:49:26Z</time>
      </trkpt>
      <trkpt lat="48.70688" lon="2.23688">
        <ele>81</ele>
        <time>2014-01-26T11:49:27Z</time>
      </trkpt>
      <trkpt lat="48.70676" lon="2.23681">
        <ele>81</ele>
        <time>2014-01-26T11:49:28Z</time>
      </trkpt>
      <trkpt lat="48.70668" lon="2.23677">
        <ele>81</ele>
        <time>2014-01-26T11:49:29Z</time>
      </trkpt>
      <trkpt lat="48.70659" lon="2.23673">
        <ele>81</ele>
        <time>2014-01-26T11:49:30Z</time>
      </trkpt>
      <trkpt lat="48.7065" lon="2.23669">
        <ele>81</ele>
        <time>2014-01-26T11:49:31Z</time>
      </trkpt>
      <trkpt lat="48.70643" lon="2.23666">
        <ele>81</ele>
        <time>2014-01-26T11:49:32Z</time>
      </trkpt>
      <trkpt lat="48.70632" lon="2.23661">
        <ele>80</ele>
        <time>2014-01-26T11:49:33Z</time>
      </trkpt>
      <trkpt lat="48.70624" lon="2.23657">
        <ele>80</ele>
        <time>2014-01-26T11:49:34Z</time>
      </trkpt>
      <trkpt lat="48.70616" lon="2.23654">
        <ele>80</ele>
        <time>2014-01-26T11:49:35Z</time>
      </trkpt>
      <trkpt lat="48.70608" lon="2.2365">
        <ele>80</ele>
        <time>2014-01-26T11:49:36Z</time>
      </trkpt>
      <trkpt lat="48.70599" lon="2.23646">
        <ele>79</ele>
        <time>2014-01-26T11:49:37Z</time>
      </trkpt>
      <trkpt lat="48.70592" lon="2.23644">
        <ele>79</ele>
        <time>2014-01-26T11:49:38Z</time>
      </trkpt>
      <trkpt lat="48.70584" lon="2.2364">
        <ele>79</ele>
        <time>2014-01-26T11:49:39Z</time>
      </trkpt>
      <trkpt lat="48.70578" lon="2.23638">
        <ele>78</ele>
        <time>2014-01-26T11:49:40Z</time>
      </trkpt>
      <trkpt lat="48.70568" lon="2.23636">
        <ele>78</ele>
        <time>2014-01-26T11:49:41Z</time>
      </trkpt>
      <trkpt lat="48.70565" lon="2.23636">
        <ele>78</ele>
        <time>2014-01-26T11:49:43Z</time>
      </trkpt>
      <trkpt lat="48.70565" lon="2.23636">
        <ele>77</ele>
        <time>2014-01-26T11:49:47Z</time>
      </trkpt>
      <trkpt lat="48.70552" lon="2.23628">
        <ele>77</ele>
        <time>2014-01-26T11:49:48Z</time>
      </trkpt>
      <trkpt lat="48.70547" lon="2.23625">
        <ele>77</ele>
        <time>2014-01-26T11:49:53Z</time>
      </trkpt>
      <trkpt lat="48.70544" lon="2.23616">
        <ele>76</ele>
        <time>2014-01-26T11:49:56Z</time>
      </trkpt>
      <trkpt lat="48.7054" lon="2.23606">
        <ele>76</ele>
        <time>2014-01-26T11:49:58Z</time>
      </trkpt>
      <trkpt lat="48.70533" lon="2.2359">
        <ele>76</ele>
        <time>2014-01-26T11:49:59Z</time>
      </trkpt>
      <trkpt lat="48.70529" lon="2.23582">
        <ele>76</ele>
        <time>2014-01-26T11:50:00Z</time>
      </trkpt>
      <trkpt lat="48.70526" lon="2.23576">
        <ele>76</ele>
        <time>2014-01-26T11:50:01Z</time>
      </trkpt>
      <trkpt lat="48.70519" lon="2.23563">
        <ele>76</ele>
        <time>2014-01-26T11:50:02Z</time>
      </trkpt>
      <trkpt lat="48.70515" lon="2.23554">
        <ele>76</ele>
        <time>2014-01-26T11:50:03Z</time>
      </trkpt>
      <trkpt lat="48.70508" lon="2.23545">
        <ele>76</ele>
        <time>2014-01-26T11:50:04Z</time>
      </trkpt>
      <trkpt lat="48.70503" lon="2.23537">
        <ele>76</ele>
        <time>2014-01-26T11:50:05Z</time>
      </trkpt>
      <trkpt lat="48.70499" lon="2.23529">
        <ele>76</ele>
        <time>2014-01-26T11:50:06Z</time>
      </trkpt>
      <trkpt lat="48.70495" lon="2.23521">
        <ele>76</ele>
        <time>2014-01-26T11:50:07Z</time>
      </trkpt>
      <trkpt lat="48.70489" lon="2.23511">
        <ele>76</ele>
        <time>2014-01-26T11:50:08Z</time>
      </trkpt>
      <trkpt lat="48.70485" lon="2.23502">
        <ele>76</ele>
        <time>2014-01-26T11:50:09Z</time>
      </trkpt>
      <trkpt lat="48.70478" lon="2.23488">
        <ele>76</ele>
        <time>2014-01-26T11:50:10Z</time>
      </trkpt>
      <trkpt lat="48.70469" lon="2.23471">
        <ele>76</ele>
        <time>2014-01-26T11:50:11Z</time>
      </trkpt>
      <trkpt lat="48.70459" lon="2.23453">
        <ele>76</ele>
        <time>2014-01-26T11:50:12Z</time>
      </trkpt>
      <trkpt lat="48.70454" lon="2.23442">
        <ele>75</ele>
        <time>2014-01-26T11:50:13Z</time>
      </trkpt>
      <trkpt lat="48.70446" lon="2.23425">
        <ele>75</ele>
        <time>2014-01-26T11:50:14Z</time>
      </trkpt>
      <trkpt lat="48.70437" lon="2.23408">
        <ele>75</ele>
        <time>2014-01-26T11:50:15Z</time>
      </trkpt>
      <trkpt lat="48.70435" lon="2.23399">
        <ele>74</ele>
        <time>2014-01-26T11:50:16Z</time>
      </trkpt>
      <trkpt lat="48.70429" lon="2.23385">
        <ele>74</ele>
        <time>2014-01-26T11:50:17Z</time>
      </trkpt>
      <trkpt lat="48.70427" lon="2.23379">
        <ele>74</ele>
        <time>2014-01-26T11:50:18Z</time>
      </trkpt>
      <trkpt lat="48.70423" lon="2.23374">
        <ele>73</ele>
        <time>2014-01-26T11:50:21Z</time>
      </trkpt>
      <trkpt lat="48.70412" lon="2.23389">
        <ele>73</ele>
        <time>2014-01-26T11:50:22Z</time>
      </trkpt>
      <trkpt lat="48.70409" lon="2.2339">
        <ele>72</ele>
        <time>2014-01-26T11:50:28Z</time>
      </trkpt>
      <trkpt lat="48.70405" lon="2.23393">
        <ele>72</ele>
        <time>2014-01-26T11:50:30Z</time>
      </trkpt>
      <trkpt lat="48.70403" lon="2.23394">
        <ele>72</ele>
        <time>2014-01-26T11:50:31Z</time>
      </trkpt>
      <trkpt lat="48.70401" lon="2.23396">
        <ele>72</ele>
        <time>2014-01-26T11:50:32Z</time>
      </trkpt>
      <trkpt lat="48.70401" lon="2.23395">
        <ele>71</ele>
        <time>2014-01-26T11:50:44Z</time>
      </trkpt>
      <trkpt lat="48.70404" lon="2.23394">
        <ele>67</ele>
        <time>2014-01-26T11:51:26Z</time>
      </trkpt>
      <trkpt lat="48.70402" lon="2.23395">
        <ele>67</ele>
        <time>2014-01-26T11:52:00Z</time>
      </trkpt>
      <trkpt lat="48.70425" lon="2.23401">
        <ele>67</ele>
        <time>2014-01-26T11:52:11Z</time>
      </trkpt>
      <trkpt lat="48.70423" lon="2.23389">
        <ele>67</ele>
        <time>2014-01-26T11:52:13Z</time>
      </trkpt>
      <trkpt lat="48.70415" lon="2.234">
        <ele>67</ele>
        <time>2014-01-26T11:52:28Z</time>
      </trkpt>
      <trkpt lat="48.70417" lon="2.23403">
        <ele>65</ele>
        <time>2014-01-26T11:53:45Z</time>
      </trkpt>
      <trkpt lat="48.70415" lon="2.23399">
        <ele>65</ele>
        <time>2014-01-26T11:54:19Z</time>
      </trkpt>
      <trkpt lat="48.70412" lon="2.23391">
        <ele>65</ele>
        <time>2014-01-26T11:54:37Z</time>
      </trkpt>
      <trkpt lat="48.70282" lon="2.22912">
        <ele>86</ele>
        <time>2014-01-26T12:47:20Z</time>
      </trkpt>
      <trkpt lat="48.70293" lon="2.22879">
        <ele>21</ele>
        <time>2014-01-26T12:47:29Z</time>
      </trkpt>
      <trkpt lat="48.70289" lon="2.22883">
        <ele>22</ele>
        <time>2014-01-26T12:47:32Z</time>
      </trkpt>
      <trkpt lat="48.70283" lon="2.22883">
        <ele>26</ele>
        <time>2014-01-26T12:47:35Z</time>
      </trkpt>
      <trkpt lat="48.70278" lon="2.22889">
        <ele>31</ele>
        <time>2014-01-26T12:47:37Z</time>
      </trkpt>
    </trkseg>
  </trk>
</gpx>